<?xml version="1.0" encoding="UTF-8" standalone="no" ?>
<gpx xmlns="http://www.topografix.com/GPX/1/1" xmlns:xsi="http://www.w3.org/2001/XMLSchema-instance" xsi:schemaLocation="http://www.topografix.com/GPX/1/1 http://www.topografix.com/GPX/1/1/gpx.xsd" version="1.1" creator="VisuGPX - https://www.visugpx.com">
  <metadata>
    <name>Tour de l\'Estellier</name>
    <desc><![CDATA[Bezaudun les Alpes, col des 4 chemins, Tour de l\'Estellier, Bouyon, (eboulis) Bezaudun]]></desc>
  </metadata>
  <trk>
    <name><![CDATA[Tracé actuel: 20 AVR 2011 09:29]]></name>
    <trkseg>
      <trkpt lat="43.80798" lon="7.0965">
        <ele>839.85</ele>
        <time>2011-04-20T07:29:38Z</time>
      </trkpt>
      <trkpt lat="43.80798" lon="7.0965">
        <ele>842.73</ele>
        <time>2011-04-20T07:29:40Z</time>
      </trkpt>
    </trkseg>
  </trk>
  <trk>
    <name><![CDATA[Tracé actuel: 20 AVR 2011 09:29]]></name>
    <trkseg>
      <trkpt lat="43.80798" lon="7.0965">
        <ele>845.14</ele>
        <time>2011-04-20T07:29:41Z</time>
      </trkpt>
      <trkpt lat="43.80799" lon="7.09651">
        <ele>848.98</ele>
        <time>2011-04-20T07:29:45Z</time>
      </trkpt>
      <trkpt lat="43.80799" lon="7.09651">
        <ele>851.87</ele>
        <time>2011-04-20T07:29:48Z</time>
      </trkpt>
      <trkpt lat="43.808" lon="7.09651">
        <ele>855.23</ele>
        <time>2011-04-20T07:29:52Z</time>
      </trkpt>
      <trkpt lat="43.808" lon="7.09651">
        <ele>859.08</ele>
        <time>2011-04-20T07:29:56Z</time>
      </trkpt>
      <trkpt lat="43.80799" lon="7.0965">
        <ele>861.48</ele>
        <time>2011-04-20T07:30:02Z</time>
      </trkpt>
      <trkpt lat="43.80799" lon="7.09651">
        <ele>864.36</ele>
        <time>2011-04-20T07:30:07Z</time>
      </trkpt>
      <trkpt lat="43.80799" lon="7.09651">
        <ele>865.8</ele>
        <time>2011-04-20T07:30:10Z</time>
      </trkpt>
      <trkpt lat="43.80799" lon="7.09651">
        <ele>867.73</ele>
        <time>2011-04-20T07:30:15Z</time>
      </trkpt>
      <trkpt lat="43.80799" lon="7.09651">
        <ele>871.09</ele>
        <time>2011-04-20T07:30:24Z</time>
      </trkpt>
      <trkpt lat="43.80799" lon="7.09652">
        <ele>874.46</ele>
        <time>2011-04-20T07:30:37Z</time>
      </trkpt>
      <trkpt lat="43.80798" lon="7.09649">
        <ele>876.86</ele>
        <time>2011-04-20T07:30:58Z</time>
      </trkpt>
      <trkpt lat="43.80798" lon="7.09649">
        <ele>876.86</ele>
        <time>2011-04-20T07:31:32Z</time>
      </trkpt>
      <trkpt lat="43.80798" lon="7.09649">
        <ele>877.34</ele>
        <time>2011-04-20T07:32:06Z</time>
      </trkpt>
      <trkpt lat="43.80798" lon="7.09649">
        <ele>874.46</ele>
        <time>2011-04-20T07:32:11Z</time>
      </trkpt>
      <trkpt lat="43.80798" lon="7.09649">
        <ele>879.26</ele>
        <time>2011-04-20T07:32:13Z</time>
      </trkpt>
      <trkpt lat="43.80798" lon="7.09649">
        <ele>877.34</ele>
        <time>2011-04-20T07:32:14Z</time>
      </trkpt>
      <trkpt lat="43.80798" lon="7.09649">
        <ele>876.38</ele>
        <time>2011-04-20T07:32:45Z</time>
      </trkpt>
      <trkpt lat="43.80799" lon="7.0965">
        <ele>875.9</ele>
        <time>2011-04-20T07:33:27Z</time>
      </trkpt>
      <trkpt lat="43.80799" lon="7.0965">
        <ele>875.9</ele>
        <time>2011-04-20T07:33:30Z</time>
      </trkpt>
      <trkpt lat="43.80802" lon="7.09651">
        <ele>875.9</ele>
        <time>2011-04-20T07:33:43Z</time>
      </trkpt>
      <trkpt lat="43.80801" lon="7.0965">
        <ele>876.86</ele>
        <time>2011-04-20T07:34:15Z</time>
      </trkpt>
      <trkpt lat="43.80809" lon="7.0965">
        <ele>876.38</ele>
        <time>2011-04-20T07:34:25Z</time>
      </trkpt>
      <trkpt lat="43.80819" lon="7.09657">
        <ele>877.34</ele>
        <time>2011-04-20T07:34:40Z</time>
      </trkpt>
      <trkpt lat="43.80827" lon="7.09657">
        <ele>880.22</ele>
        <time>2011-04-20T07:34:57Z</time>
      </trkpt>
      <trkpt lat="43.80827" lon="7.09657">
        <ele>880.71</ele>
        <time>2011-04-20T07:35:14Z</time>
      </trkpt>
      <trkpt lat="43.80827" lon="7.09659">
        <ele>882.15</ele>
        <time>2011-04-20T07:35:29Z</time>
      </trkpt>
      <trkpt lat="43.80829" lon="7.09659">
        <ele>883.11</ele>
        <time>2011-04-20T07:35:33Z</time>
      </trkpt>
      <trkpt lat="43.80831" lon="7.09654">
        <ele>883.59</ele>
        <time>2011-04-20T07:35:36Z</time>
      </trkpt>
      <trkpt lat="43.80837" lon="7.09648">
        <ele>885.03</ele>
        <time>2011-04-20T07:35:44Z</time>
      </trkpt>
      <trkpt lat="43.8084" lon="7.09649">
        <ele>886.95</ele>
        <time>2011-04-20T07:35:54Z</time>
      </trkpt>
      <trkpt lat="43.80838" lon="7.09642">
        <ele>889.84</ele>
        <time>2011-04-20T07:36:10Z</time>
      </trkpt>
      <trkpt lat="43.80841" lon="7.09635">
        <ele>890.8</ele>
        <time>2011-04-20T07:36:16Z</time>
      </trkpt>
      <trkpt lat="43.80845" lon="7.09628">
        <ele>892.24</ele>
        <time>2011-04-20T07:36:30Z</time>
      </trkpt>
      <trkpt lat="43.80846" lon="7.09617">
        <ele>893.2</ele>
        <time>2011-04-20T07:36:44Z</time>
      </trkpt>
      <trkpt lat="43.80845" lon="7.09615">
        <ele>892.72</ele>
        <time>2011-04-20T07:36:47Z</time>
      </trkpt>
      <trkpt lat="43.80844" lon="7.09612">
        <ele>892.24</ele>
        <time>2011-04-20T07:36:49Z</time>
      </trkpt>
      <trkpt lat="43.80842" lon="7.09598">
        <ele>891.28</ele>
        <time>2011-04-20T07:37:01Z</time>
      </trkpt>
      <trkpt lat="43.8084" lon="7.09598">
        <ele>891.76</ele>
        <time>2011-04-20T07:37:12Z</time>
      </trkpt>
      <trkpt lat="43.80837" lon="7.09596">
        <ele>891.76</ele>
        <time>2011-04-20T07:37:33Z</time>
      </trkpt>
      <trkpt lat="43.80837" lon="7.09595">
        <ele>891.76</ele>
        <time>2011-04-20T07:38:02Z</time>
      </trkpt>
      <trkpt lat="43.80837" lon="7.09595">
        <ele>891.76</ele>
        <time>2011-04-20T07:38:32Z</time>
      </trkpt>
      <trkpt lat="43.80837" lon="7.09595">
        <ele>891.28</ele>
        <time>2011-04-20T07:38:41Z</time>
      </trkpt>
      <trkpt lat="43.80834" lon="7.09587">
        <ele>891.28</ele>
        <time>2011-04-20T07:38:47Z</time>
      </trkpt>
      <trkpt lat="43.80827" lon="7.09578">
        <ele>890.8</ele>
        <time>2011-04-20T07:38:55Z</time>
      </trkpt>
      <trkpt lat="43.80824" lon="7.09571">
        <ele>889.84</ele>
        <time>2011-04-20T07:39:01Z</time>
      </trkpt>
      <trkpt lat="43.80823" lon="7.09566">
        <ele>890.32</ele>
        <time>2011-04-20T07:39:04Z</time>
      </trkpt>
      <trkpt lat="43.80829" lon="7.09563">
        <ele>889.36</ele>
        <time>2011-04-20T07:39:11Z</time>
      </trkpt>
      <trkpt lat="43.80844" lon="7.09581">
        <ele>886.47</ele>
        <time>2011-04-20T07:39:28Z</time>
      </trkpt>
      <trkpt lat="43.80845" lon="7.09581">
        <ele>886.95</ele>
        <time>2011-04-20T07:39:29Z</time>
      </trkpt>
      <trkpt lat="43.80859" lon="7.09597">
        <ele>885.03</ele>
        <time>2011-04-20T07:39:45Z</time>
      </trkpt>
      <trkpt lat="43.80875" lon="7.09617">
        <ele>882.15</ele>
        <time>2011-04-20T07:40:02Z</time>
      </trkpt>
      <trkpt lat="43.80886" lon="7.09639">
        <ele>880.71</ele>
        <time>2011-04-20T07:40:18Z</time>
      </trkpt>
      <trkpt lat="43.80888" lon="7.09664">
        <ele>881.67</ele>
        <time>2011-04-20T07:40:34Z</time>
      </trkpt>
      <trkpt lat="43.80887" lon="7.09667">
        <ele>881.67</ele>
        <time>2011-04-20T07:40:37Z</time>
      </trkpt>
      <trkpt lat="43.80888" lon="7.09671">
        <ele>880.71</ele>
        <time>2011-04-20T07:40:40Z</time>
      </trkpt>
      <trkpt lat="43.8089" lon="7.09672">
        <ele>880.71</ele>
        <time>2011-04-20T07:40:42Z</time>
      </trkpt>
      <trkpt lat="43.80895" lon="7.09662">
        <ele>878.78</ele>
        <time>2011-04-20T07:40:49Z</time>
      </trkpt>
      <trkpt lat="43.80906" lon="7.09655">
        <ele>876.38</ele>
        <time>2011-04-20T07:41:02Z</time>
      </trkpt>
      <trkpt lat="43.80906" lon="7.09655">
        <ele>873.01</ele>
        <time>2011-04-20T07:41:03Z</time>
      </trkpt>
      <trkpt lat="43.80906" lon="7.09654">
        <ele>877.34</ele>
        <time>2011-04-20T07:41:04Z</time>
      </trkpt>
      <trkpt lat="43.80906" lon="7.09647">
        <ele>874.94</ele>
        <time>2011-04-20T07:41:08Z</time>
      </trkpt>
      <trkpt lat="43.80906" lon="7.09641">
        <ele>872.53</ele>
        <time>2011-04-20T07:41:22Z</time>
      </trkpt>
      <trkpt lat="43.80906" lon="7.09628">
        <ele>871.57</ele>
        <time>2011-04-20T07:41:30Z</time>
      </trkpt>
      <trkpt lat="43.809" lon="7.09607">
        <ele>867.73</ele>
        <time>2011-04-20T07:41:45Z</time>
      </trkpt>
      <trkpt lat="43.809" lon="7.09606">
        <ele>867.73</ele>
        <time>2011-04-20T07:41:46Z</time>
      </trkpt>
      <trkpt lat="43.80895" lon="7.09586">
        <ele>864.84</ele>
        <time>2011-04-20T07:42:02Z</time>
      </trkpt>
      <trkpt lat="43.80889" lon="7.09565">
        <ele>862.44</ele>
        <time>2011-04-20T07:42:17Z</time>
      </trkpt>
      <trkpt lat="43.80886" lon="7.09552">
        <ele>861.48</ele>
        <time>2011-04-20T07:42:31Z</time>
      </trkpt>
      <trkpt lat="43.80884" lon="7.09537">
        <ele>859.08</ele>
        <time>2011-04-20T07:42:47Z</time>
      </trkpt>
      <trkpt lat="43.80883" lon="7.09533">
        <ele>862.92</ele>
        <time>2011-04-20T07:42:50Z</time>
      </trkpt>
      <trkpt lat="43.80883" lon="7.09532">
        <ele>860.52</ele>
        <time>2011-04-20T07:42:51Z</time>
      </trkpt>
      <trkpt lat="43.80883" lon="7.09521">
        <ele>856.67</ele>
        <time>2011-04-20T07:42:59Z</time>
      </trkpt>
      <trkpt lat="43.80883" lon="7.09497">
        <ele>856.19</ele>
        <time>2011-04-20T07:43:15Z</time>
      </trkpt>
      <trkpt lat="43.80885" lon="7.09494">
        <ele>855.23</ele>
        <time>2011-04-20T07:43:19Z</time>
      </trkpt>
      <trkpt lat="43.80895" lon="7.09478">
        <ele>853.31</ele>
        <time>2011-04-20T07:43:35Z</time>
      </trkpt>
      <trkpt lat="43.80896" lon="7.09476">
        <ele>853.31</ele>
        <time>2011-04-20T07:43:36Z</time>
      </trkpt>
      <trkpt lat="43.809" lon="7.09473">
        <ele>853.79</ele>
        <time>2011-04-20T07:43:40Z</time>
      </trkpt>
      <trkpt lat="43.80912" lon="7.09463">
        <ele>852.35</ele>
        <time>2011-04-20T07:43:51Z</time>
      </trkpt>
      <trkpt lat="43.80917" lon="7.09459">
        <ele>851.87</ele>
        <time>2011-04-20T07:43:57Z</time>
      </trkpt>
      <trkpt lat="43.80923" lon="7.09456">
        <ele>850.9</ele>
        <time>2011-04-20T07:44:02Z</time>
      </trkpt>
      <trkpt lat="43.80929" lon="7.0945">
        <ele>840.81</ele>
        <time>2011-04-20T07:44:15Z</time>
      </trkpt>
      <trkpt lat="43.80929" lon="7.0945">
        <ele>848.98</ele>
        <time>2011-04-20T07:44:16Z</time>
      </trkpt>
      <trkpt lat="43.80929" lon="7.0945">
        <ele>845.62</ele>
        <time>2011-04-20T07:44:21Z</time>
      </trkpt>
      <trkpt lat="43.80929" lon="7.0945">
        <ele>851.38</ele>
        <time>2011-04-20T07:44:22Z</time>
      </trkpt>
      <trkpt lat="43.80929" lon="7.0945">
        <ele>846.1</ele>
        <time>2011-04-20T07:44:23Z</time>
      </trkpt>
      <trkpt lat="43.80929" lon="7.0945">
        <ele>850.9</ele>
        <time>2011-04-20T07:44:26Z</time>
      </trkpt>
      <trkpt lat="43.80929" lon="7.0945">
        <ele>844.18</ele>
        <time>2011-04-20T07:44:28Z</time>
      </trkpt>
      <trkpt lat="43.80929" lon="7.0945">
        <ele>852.35</ele>
        <time>2011-04-20T07:44:29Z</time>
      </trkpt>
      <trkpt lat="43.80929" lon="7.0945">
        <ele>842.73</ele>
        <time>2011-04-20T07:44:30Z</time>
      </trkpt>
      <trkpt lat="43.80929" lon="7.0945">
        <ele>854.27</ele>
        <time>2011-04-20T07:44:31Z</time>
      </trkpt>
      <trkpt lat="43.80929" lon="7.0945">
        <ele>850.42</ele>
        <time>2011-04-20T07:44:33Z</time>
      </trkpt>
      <trkpt lat="43.80929" lon="7.0945">
        <ele>846.58</ele>
        <time>2011-04-20T07:44:34Z</time>
      </trkpt>
      <trkpt lat="43.80929" lon="7.0945">
        <ele>851.38</ele>
        <time>2011-04-20T07:44:35Z</time>
      </trkpt>
      <trkpt lat="43.80929" lon="7.0945">
        <ele>847.54</ele>
        <time>2011-04-20T07:44:45Z</time>
      </trkpt>
      <trkpt lat="43.80929" lon="7.0945">
        <ele>852.35</ele>
        <time>2011-04-20T07:44:46Z</time>
      </trkpt>
      <trkpt lat="43.80929" lon="7.0945">
        <ele>848.98</ele>
        <time>2011-04-20T07:44:47Z</time>
      </trkpt>
      <trkpt lat="43.80929" lon="7.0945">
        <ele>849.94</ele>
        <time>2011-04-20T07:44:52Z</time>
      </trkpt>
      <trkpt lat="43.8093" lon="7.09449">
        <ele>849.94</ele>
        <time>2011-04-20T07:44:59Z</time>
      </trkpt>
      <trkpt lat="43.80931" lon="7.09447">
        <ele>849.94</ele>
        <time>2011-04-20T07:45:01Z</time>
      </trkpt>
      <trkpt lat="43.80934" lon="7.09444">
        <ele>849.46</ele>
        <time>2011-04-20T07:45:04Z</time>
      </trkpt>
      <trkpt lat="43.80941" lon="7.09437">
        <ele>849.94</ele>
        <time>2011-04-20T07:45:12Z</time>
      </trkpt>
      <trkpt lat="43.80943" lon="7.09434">
        <ele>850.42</ele>
        <time>2011-04-20T07:45:15Z</time>
      </trkpt>
      <trkpt lat="43.8096" lon="7.09424">
        <ele>850.9</ele>
        <time>2011-04-20T07:45:30Z</time>
      </trkpt>
      <trkpt lat="43.80971" lon="7.09409">
        <ele>850.9</ele>
        <time>2011-04-20T07:45:45Z</time>
      </trkpt>
      <trkpt lat="43.80974" lon="7.09394">
        <ele>851.87</ele>
        <time>2011-04-20T07:45:54Z</time>
      </trkpt>
      <trkpt lat="43.80976" lon="7.09381">
        <ele>853.31</ele>
        <time>2011-04-20T07:46:04Z</time>
      </trkpt>
      <trkpt lat="43.80979" lon="7.09354">
        <ele>854.75</ele>
        <time>2011-04-20T07:46:21Z</time>
      </trkpt>
      <trkpt lat="43.80984" lon="7.09335">
        <ele>855.23</ele>
        <time>2011-04-20T07:46:34Z</time>
      </trkpt>
      <trkpt lat="43.80985" lon="7.09331">
        <ele>855.23</ele>
        <time>2011-04-20T07:46:37Z</time>
      </trkpt>
      <trkpt lat="43.80994" lon="7.09308">
        <ele>853.79</ele>
        <time>2011-04-20T07:46:52Z</time>
      </trkpt>
      <trkpt lat="43.80999" lon="7.09282">
        <ele>853.79</ele>
        <time>2011-04-20T07:47:07Z</time>
      </trkpt>
      <trkpt lat="43.81007" lon="7.09257">
        <ele>852.35</ele>
        <time>2011-04-20T07:47:21Z</time>
      </trkpt>
      <trkpt lat="43.81022" lon="7.09238">
        <ele>851.87</ele>
        <time>2011-04-20T07:47:36Z</time>
      </trkpt>
      <trkpt lat="43.81021" lon="7.09215">
        <ele>849.94</ele>
        <time>2011-04-20T07:47:50Z</time>
      </trkpt>
      <trkpt lat="43.8102" lon="7.0921">
        <ele>848.98</ele>
        <time>2011-04-20T07:47:54Z</time>
      </trkpt>
      <trkpt lat="43.81012" lon="7.09184">
        <ele>847.54</ele>
        <time>2011-04-20T07:48:10Z</time>
      </trkpt>
      <trkpt lat="43.81012" lon="7.09178">
        <ele>846.1</ele>
        <time>2011-04-20T07:48:15Z</time>
      </trkpt>
      <trkpt lat="43.81025" lon="7.09159">
        <ele>846.1</ele>
        <time>2011-04-20T07:48:30Z</time>
      </trkpt>
      <trkpt lat="43.81038" lon="7.09144">
        <ele>846.1</ele>
        <time>2011-04-20T07:48:43Z</time>
      </trkpt>
      <trkpt lat="43.81054" lon="7.09131">
        <ele>846.58</ele>
        <time>2011-04-20T07:48:58Z</time>
      </trkpt>
      <trkpt lat="43.81064" lon="7.09115">
        <ele>847.06</ele>
        <time>2011-04-20T07:49:11Z</time>
      </trkpt>
      <trkpt lat="43.81067" lon="7.09094">
        <ele>847.54</ele>
        <time>2011-04-20T07:49:25Z</time>
      </trkpt>
      <trkpt lat="43.81067" lon="7.09071">
        <ele>848.02</ele>
        <time>2011-04-20T07:49:41Z</time>
      </trkpt>
      <trkpt lat="43.81064" lon="7.09051">
        <ele>848.98</ele>
        <time>2011-04-20T07:49:54Z</time>
      </trkpt>
      <trkpt lat="43.8106" lon="7.09044">
        <ele>848.02</ele>
        <time>2011-04-20T07:50:00Z</time>
      </trkpt>
      <trkpt lat="43.81055" lon="7.09019">
        <ele>847.06</ele>
        <time>2011-04-20T07:50:16Z</time>
      </trkpt>
      <trkpt lat="43.81053" lon="7.09013">
        <ele>845.62</ele>
        <time>2011-04-20T07:50:19Z</time>
      </trkpt>
      <trkpt lat="43.81052" lon="7.09008">
        <ele>845.62</ele>
        <time>2011-04-20T07:50:22Z</time>
      </trkpt>
      <trkpt lat="43.81047" lon="7.08989">
        <ele>841.77</ele>
        <time>2011-04-20T07:50:35Z</time>
      </trkpt>
      <trkpt lat="43.81044" lon="7.08972">
        <ele>840.33</ele>
        <time>2011-04-20T07:50:47Z</time>
      </trkpt>
      <trkpt lat="43.81043" lon="7.08969">
        <ele>839.37</ele>
        <time>2011-04-20T07:50:49Z</time>
      </trkpt>
      <trkpt lat="43.81036" lon="7.08941">
        <ele>836.96</ele>
        <time>2011-04-20T07:51:06Z</time>
      </trkpt>
      <trkpt lat="43.81031" lon="7.08922">
        <ele>834.56</ele>
        <time>2011-04-20T07:51:19Z</time>
      </trkpt>
      <trkpt lat="43.81028" lon="7.08912">
        <ele>833.12</ele>
        <time>2011-04-20T07:51:28Z</time>
      </trkpt>
      <trkpt lat="43.81026" lon="7.08906">
        <ele>833.6</ele>
        <time>2011-04-20T07:51:33Z</time>
      </trkpt>
      <trkpt lat="43.81026" lon="7.08903">
        <ele>832.64</ele>
        <time>2011-04-20T07:51:35Z</time>
      </trkpt>
      <trkpt lat="43.81025" lon="7.08898">
        <ele>832.64</ele>
        <time>2011-04-20T07:51:38Z</time>
      </trkpt>
      <trkpt lat="43.81022" lon="7.08882">
        <ele>829.27</ele>
        <time>2011-04-20T07:51:48Z</time>
      </trkpt>
      <trkpt lat="43.81024" lon="7.0887">
        <ele>827.83</ele>
        <time>2011-04-20T07:51:57Z</time>
      </trkpt>
      <trkpt lat="43.81023" lon="7.08858">
        <ele>827.83</ele>
        <time>2011-04-20T07:52:05Z</time>
      </trkpt>
      <trkpt lat="43.81025" lon="7.08839">
        <ele>824.95</ele>
        <time>2011-04-20T07:52:20Z</time>
      </trkpt>
      <trkpt lat="43.81025" lon="7.08838">
        <ele>825.43</ele>
        <time>2011-04-20T07:52:21Z</time>
      </trkpt>
      <trkpt lat="43.81025" lon="7.08835">
        <ele>824.95</ele>
        <time>2011-04-20T07:52:23Z</time>
      </trkpt>
      <trkpt lat="43.81023" lon="7.08829">
        <ele>823.99</ele>
        <time>2011-04-20T07:52:27Z</time>
      </trkpt>
      <trkpt lat="43.81026" lon="7.08818">
        <ele>821.58</ele>
        <time>2011-04-20T07:52:40Z</time>
      </trkpt>
      <trkpt lat="43.81029" lon="7.08816">
        <ele>820.62</ele>
        <time>2011-04-20T07:52:43Z</time>
      </trkpt>
      <trkpt lat="43.81031" lon="7.08814">
        <ele>819.66</ele>
        <time>2011-04-20T07:52:45Z</time>
      </trkpt>
      <trkpt lat="43.81035" lon="7.08811">
        <ele>819.18</ele>
        <time>2011-04-20T07:52:50Z</time>
      </trkpt>
      <trkpt lat="43.81036" lon="7.08807">
        <ele>817.26</ele>
        <time>2011-04-20T07:52:53Z</time>
      </trkpt>
      <trkpt lat="43.81037" lon="7.08803">
        <ele>815.82</ele>
        <time>2011-04-20T07:52:57Z</time>
      </trkpt>
      <trkpt lat="43.8104" lon="7.08796">
        <ele>814.37</ele>
        <time>2011-04-20T07:53:04Z</time>
      </trkpt>
      <trkpt lat="43.81041" lon="7.08793">
        <ele>814.37</ele>
        <time>2011-04-20T07:53:06Z</time>
      </trkpt>
      <trkpt lat="43.81044" lon="7.0879">
        <ele>812.45</ele>
        <time>2011-04-20T07:53:20Z</time>
      </trkpt>
      <trkpt lat="43.81046" lon="7.0879">
        <ele>812.45</ele>
        <time>2011-04-20T07:53:36Z</time>
      </trkpt>
      <trkpt lat="43.81052" lon="7.08795">
        <ele>810.05</ele>
        <time>2011-04-20T07:53:57Z</time>
      </trkpt>
      <trkpt lat="43.81056" lon="7.08799">
        <ele>807.64</ele>
        <time>2011-04-20T07:54:09Z</time>
      </trkpt>
      <trkpt lat="43.8106" lon="7.08804">
        <ele>805.72</ele>
        <time>2011-04-20T07:54:16Z</time>
      </trkpt>
      <trkpt lat="43.81064" lon="7.08805">
        <ele>804.28</ele>
        <time>2011-04-20T07:54:23Z</time>
      </trkpt>
      <trkpt lat="43.81066" lon="7.08807">
        <ele>803.8</ele>
        <time>2011-04-20T07:54:25Z</time>
      </trkpt>
      <trkpt lat="43.81071" lon="7.0881">
        <ele>802.36</ele>
        <time>2011-04-20T07:54:38Z</time>
      </trkpt>
      <trkpt lat="43.81071" lon="7.08808">
        <ele>800.92</ele>
        <time>2011-04-20T07:54:52Z</time>
      </trkpt>
      <trkpt lat="43.81074" lon="7.08803">
        <ele>799.95</ele>
        <time>2011-04-20T07:54:59Z</time>
      </trkpt>
      <trkpt lat="43.81074" lon="7.088">
        <ele>798.99</ele>
        <time>2011-04-20T07:55:01Z</time>
      </trkpt>
      <trkpt lat="43.81079" lon="7.08793">
        <ele>795.63</ele>
        <time>2011-04-20T07:55:15Z</time>
      </trkpt>
      <trkpt lat="43.81079" lon="7.08794">
        <ele>796.11</ele>
        <time>2011-04-20T07:55:16Z</time>
      </trkpt>
      <trkpt lat="43.81086" lon="7.08799">
        <ele>793.71</ele>
        <time>2011-04-20T07:55:27Z</time>
      </trkpt>
      <trkpt lat="43.81087" lon="7.08788">
        <ele>791.78</ele>
        <time>2011-04-20T07:55:32Z</time>
      </trkpt>
      <trkpt lat="43.81086" lon="7.08782">
        <ele>791.3</ele>
        <time>2011-04-20T07:55:35Z</time>
      </trkpt>
      <trkpt lat="43.81086" lon="7.08778">
        <ele>790.34</ele>
        <time>2011-04-20T07:55:37Z</time>
      </trkpt>
      <trkpt lat="43.81083" lon="7.0876">
        <ele>787.94</ele>
        <time>2011-04-20T07:55:49Z</time>
      </trkpt>
      <trkpt lat="43.81083" lon="7.08756">
        <ele>786.98</ele>
        <time>2011-04-20T07:55:52Z</time>
      </trkpt>
      <trkpt lat="43.81091" lon="7.0875">
        <ele>789.86</ele>
        <time>2011-04-20T07:56:01Z</time>
      </trkpt>
      <trkpt lat="43.81093" lon="7.08747">
        <ele>785.53</ele>
        <time>2011-04-20T07:56:05Z</time>
      </trkpt>
      <trkpt lat="43.81094" lon="7.08747">
        <ele>793.71</ele>
        <time>2011-04-20T07:56:06Z</time>
      </trkpt>
      <trkpt lat="43.81094" lon="7.08747">
        <ele>790.34</ele>
        <time>2011-04-20T07:56:11Z</time>
      </trkpt>
      <trkpt lat="43.81094" lon="7.08747">
        <ele>790.34</ele>
        <time>2011-04-20T07:56:37Z</time>
      </trkpt>
      <trkpt lat="43.81094" lon="7.08747">
        <ele>790.34</ele>
        <time>2011-04-20T07:57:15Z</time>
      </trkpt>
      <trkpt lat="43.81094" lon="7.08747">
        <ele>790.82</ele>
        <time>2011-04-20T07:57:39Z</time>
      </trkpt>
      <trkpt lat="43.81094" lon="7.08747">
        <ele>790.34</ele>
        <time>2011-04-20T07:58:06Z</time>
      </trkpt>
      <trkpt lat="43.81095" lon="7.08746">
        <ele>792.26</ele>
        <time>2011-04-20T07:58:25Z</time>
      </trkpt>
      <trkpt lat="43.81095" lon="7.08746">
        <ele>791.3</ele>
        <time>2011-04-20T07:58:53Z</time>
      </trkpt>
      <trkpt lat="43.81096" lon="7.08748">
        <ele>791.3</ele>
        <time>2011-04-20T07:59:08Z</time>
      </trkpt>
      <trkpt lat="43.81117" lon="7.08734">
        <ele>790.82</ele>
        <time>2011-04-20T07:59:26Z</time>
      </trkpt>
      <trkpt lat="43.81118" lon="7.08733">
        <ele>790.34</ele>
        <time>2011-04-20T07:59:27Z</time>
      </trkpt>
      <trkpt lat="43.81125" lon="7.08725">
        <ele>789.86</ele>
        <time>2011-04-20T07:59:34Z</time>
      </trkpt>
      <trkpt lat="43.81126" lon="7.08722">
        <ele>791.78</ele>
        <time>2011-04-20T07:59:36Z</time>
      </trkpt>
      <trkpt lat="43.81133" lon="7.087">
        <ele>790.82</ele>
        <time>2011-04-20T07:59:50Z</time>
      </trkpt>
      <trkpt lat="43.81136" lon="7.0869">
        <ele>788.9</ele>
        <time>2011-04-20T07:59:58Z</time>
      </trkpt>
      <trkpt lat="43.81136" lon="7.08687">
        <ele>788.42</ele>
        <time>2011-04-20T08:00:00Z</time>
      </trkpt>
      <trkpt lat="43.81141" lon="7.08677">
        <ele>786.5</ele>
        <time>2011-04-20T08:00:09Z</time>
      </trkpt>
      <trkpt lat="43.81142" lon="7.08672">
        <ele>785.53</ele>
        <time>2011-04-20T08:00:12Z</time>
      </trkpt>
      <trkpt lat="43.81141" lon="7.08652">
        <ele>783.13</ele>
        <time>2011-04-20T08:00:26Z</time>
      </trkpt>
      <trkpt lat="43.81138" lon="7.08645">
        <ele>783.13</ele>
        <time>2011-04-20T08:00:31Z</time>
      </trkpt>
      <trkpt lat="43.81136" lon="7.08634">
        <ele>782.65</ele>
        <time>2011-04-20T08:00:37Z</time>
      </trkpt>
      <trkpt lat="43.81134" lon="7.08631">
        <ele>783.13</ele>
        <time>2011-04-20T08:00:39Z</time>
      </trkpt>
      <trkpt lat="43.81135" lon="7.08609">
        <ele>783.13</ele>
        <time>2011-04-20T08:00:52Z</time>
      </trkpt>
      <trkpt lat="43.81136" lon="7.08605">
        <ele>779.77</ele>
        <time>2011-04-20T08:00:54Z</time>
      </trkpt>
      <trkpt lat="43.81137" lon="7.08603">
        <ele>783.61</ele>
        <time>2011-04-20T08:00:55Z</time>
      </trkpt>
      <trkpt lat="43.81137" lon="7.08595">
        <ele>784.09</ele>
        <time>2011-04-20T08:01:02Z</time>
      </trkpt>
      <trkpt lat="43.81137" lon="7.08594">
        <ele>781.21</ele>
        <time>2011-04-20T08:01:17Z</time>
      </trkpt>
      <trkpt lat="43.81138" lon="7.0859">
        <ele>784.57</ele>
        <time>2011-04-20T08:01:20Z</time>
      </trkpt>
      <trkpt lat="43.81138" lon="7.08586">
        <ele>783.61</ele>
        <time>2011-04-20T08:01:23Z</time>
      </trkpt>
      <trkpt lat="43.81141" lon="7.08573">
        <ele>785.05</ele>
        <time>2011-04-20T08:01:32Z</time>
      </trkpt>
      <trkpt lat="43.81144" lon="7.08563">
        <ele>781.69</ele>
        <time>2011-04-20T08:01:39Z</time>
      </trkpt>
      <trkpt lat="43.81145" lon="7.08562">
        <ele>785.53</ele>
        <time>2011-04-20T08:01:40Z</time>
      </trkpt>
      <trkpt lat="43.81149" lon="7.08544">
        <ele>786.02</ele>
        <time>2011-04-20T08:01:50Z</time>
      </trkpt>
      <trkpt lat="43.81149" lon="7.08539">
        <ele>785.05</ele>
        <time>2011-04-20T08:01:53Z</time>
      </trkpt>
      <trkpt lat="43.81151" lon="7.0853">
        <ele>784.57</ele>
        <time>2011-04-20T08:01:59Z</time>
      </trkpt>
      <trkpt lat="43.81155" lon="7.08515">
        <ele>785.05</ele>
        <time>2011-04-20T08:02:14Z</time>
      </trkpt>
      <trkpt lat="43.81161" lon="7.08506">
        <ele>784.57</ele>
        <time>2011-04-20T08:02:24Z</time>
      </trkpt>
      <trkpt lat="43.8116" lon="7.08497">
        <ele>785.53</ele>
        <time>2011-04-20T08:02:29Z</time>
      </trkpt>
      <trkpt lat="43.81161" lon="7.0849">
        <ele>786.02</ele>
        <time>2011-04-20T08:02:33Z</time>
      </trkpt>
      <trkpt lat="43.81167" lon="7.08462">
        <ele>787.46</ele>
        <time>2011-04-20T08:02:49Z</time>
      </trkpt>
      <trkpt lat="43.8117" lon="7.08438">
        <ele>789.38</ele>
        <time>2011-04-20T08:03:04Z</time>
      </trkpt>
      <trkpt lat="43.81173" lon="7.08412">
        <ele>790.34</ele>
        <time>2011-04-20T08:03:19Z</time>
      </trkpt>
      <trkpt lat="43.81177" lon="7.08387">
        <ele>791.78</ele>
        <time>2011-04-20T08:03:34Z</time>
      </trkpt>
      <trkpt lat="43.81178" lon="7.08363">
        <ele>792.74</ele>
        <time>2011-04-20T08:03:48Z</time>
      </trkpt>
      <trkpt lat="43.81181" lon="7.08339">
        <ele>793.71</ele>
        <time>2011-04-20T08:04:03Z</time>
      </trkpt>
      <trkpt lat="43.81182" lon="7.08332">
        <ele>794.19</ele>
        <time>2011-04-20T08:04:09Z</time>
      </trkpt>
      <trkpt lat="43.81194" lon="7.08322">
        <ele>794.67</ele>
        <time>2011-04-20T08:04:25Z</time>
      </trkpt>
      <trkpt lat="43.81195" lon="7.08322">
        <ele>795.15</ele>
        <time>2011-04-20T08:04:27Z</time>
      </trkpt>
      <trkpt lat="43.812" lon="7.08321">
        <ele>795.15</ele>
        <time>2011-04-20T08:04:34Z</time>
      </trkpt>
      <trkpt lat="43.8121" lon="7.08322">
        <ele>792.26</ele>
        <time>2011-04-20T08:04:48Z</time>
      </trkpt>
      <trkpt lat="43.81211" lon="7.08322">
        <ele>792.26</ele>
        <time>2011-04-20T08:05:05Z</time>
      </trkpt>
      <trkpt lat="43.81217" lon="7.08323">
        <ele>793.71</ele>
        <time>2011-04-20T08:05:23Z</time>
      </trkpt>
      <trkpt lat="43.81219" lon="7.0832">
        <ele>794.19</ele>
        <time>2011-04-20T08:05:28Z</time>
      </trkpt>
      <trkpt lat="43.81221" lon="7.08314">
        <ele>794.67</ele>
        <time>2011-04-20T08:05:34Z</time>
      </trkpt>
      <trkpt lat="43.81226" lon="7.08296">
        <ele>796.11</ele>
        <time>2011-04-20T08:05:49Z</time>
      </trkpt>
      <trkpt lat="43.8123" lon="7.08282">
        <ele>798.03</ele>
        <time>2011-04-20T08:06:02Z</time>
      </trkpt>
      <trkpt lat="43.81233" lon="7.08269">
        <ele>800.92</ele>
        <time>2011-04-20T08:06:14Z</time>
      </trkpt>
      <trkpt lat="43.81235" lon="7.08256">
        <ele>803.32</ele>
        <time>2011-04-20T08:06:26Z</time>
      </trkpt>
      <trkpt lat="43.81236" lon="7.0825">
        <ele>803.32</ele>
        <time>2011-04-20T08:06:30Z</time>
      </trkpt>
      <trkpt lat="43.81238" lon="7.08236">
        <ele>805.72</ele>
        <time>2011-04-20T08:06:43Z</time>
      </trkpt>
      <trkpt lat="43.81239" lon="7.08234">
        <ele>806.2</ele>
        <time>2011-04-20T08:06:45Z</time>
      </trkpt>
      <trkpt lat="43.81241" lon="7.08217">
        <ele>808.13</ele>
        <time>2011-04-20T08:07:01Z</time>
      </trkpt>
      <trkpt lat="43.81242" lon="7.08201">
        <ele>811.01</ele>
        <time>2011-04-20T08:07:17Z</time>
      </trkpt>
      <trkpt lat="43.81245" lon="7.08198">
        <ele>812.45</ele>
        <time>2011-04-20T08:07:28Z</time>
      </trkpt>
      <trkpt lat="43.81249" lon="7.08214">
        <ele>813.89</ele>
        <time>2011-04-20T08:07:41Z</time>
      </trkpt>
      <trkpt lat="43.81254" lon="7.08231">
        <ele>815.34</ele>
        <time>2011-04-20T08:07:55Z</time>
      </trkpt>
      <trkpt lat="43.81258" lon="7.08246">
        <ele>816.78</ele>
        <time>2011-04-20T08:08:08Z</time>
      </trkpt>
      <trkpt lat="43.81263" lon="7.08243">
        <ele>819.66</ele>
        <time>2011-04-20T08:08:18Z</time>
      </trkpt>
      <trkpt lat="43.81268" lon="7.08224">
        <ele>821.1</ele>
        <time>2011-04-20T08:08:34Z</time>
      </trkpt>
      <trkpt lat="43.81271" lon="7.08212">
        <ele>822.55</ele>
        <time>2011-04-20T08:08:45Z</time>
      </trkpt>
      <trkpt lat="43.81275" lon="7.08195">
        <ele>825.91</ele>
        <time>2011-04-20T08:09:01Z</time>
      </trkpt>
      <trkpt lat="43.81275" lon="7.08192">
        <ele>824.95</ele>
        <time>2011-04-20T08:09:05Z</time>
      </trkpt>
      <trkpt lat="43.81279" lon="7.08177">
        <ele>827.83</ele>
        <time>2011-04-20T08:09:20Z</time>
      </trkpt>
      <trkpt lat="43.81279" lon="7.08174">
        <ele>827.35</ele>
        <time>2011-04-20T08:09:22Z</time>
      </trkpt>
      <trkpt lat="43.8128" lon="7.08171">
        <ele>827.35</ele>
        <time>2011-04-20T08:09:24Z</time>
      </trkpt>
      <trkpt lat="43.8128" lon="7.08169">
        <ele>828.31</ele>
        <time>2011-04-20T08:09:26Z</time>
      </trkpt>
      <trkpt lat="43.81284" lon="7.08152">
        <ele>830.72</ele>
        <time>2011-04-20T08:09:40Z</time>
      </trkpt>
      <trkpt lat="43.81288" lon="7.08136">
        <ele>831.68</ele>
        <time>2011-04-20T08:09:54Z</time>
      </trkpt>
      <trkpt lat="43.81292" lon="7.08122">
        <ele>834.56</ele>
        <time>2011-04-20T08:10:07Z</time>
      </trkpt>
      <trkpt lat="43.81294" lon="7.08109">
        <ele>836</ele>
        <time>2011-04-20T08:10:20Z</time>
      </trkpt>
      <trkpt lat="43.81294" lon="7.08107">
        <ele>836.48</ele>
        <time>2011-04-20T08:10:22Z</time>
      </trkpt>
      <trkpt lat="43.81297" lon="7.08092">
        <ele>839.85</ele>
        <time>2011-04-20T08:10:36Z</time>
      </trkpt>
      <trkpt lat="43.81301" lon="7.08077">
        <ele>841.29</ele>
        <time>2011-04-20T08:10:52Z</time>
      </trkpt>
      <trkpt lat="43.81303" lon="7.08065">
        <ele>843.21</ele>
        <time>2011-04-20T08:11:04Z</time>
      </trkpt>
      <trkpt lat="43.81306" lon="7.08051">
        <ele>845.14</ele>
        <time>2011-04-20T08:11:18Z</time>
      </trkpt>
      <trkpt lat="43.8131" lon="7.0804">
        <ele>846.58</ele>
        <time>2011-04-20T08:11:32Z</time>
      </trkpt>
      <trkpt lat="43.81314" lon="7.08024">
        <ele>849.94</ele>
        <time>2011-04-20T08:11:46Z</time>
      </trkpt>
      <trkpt lat="43.81318" lon="7.0801">
        <ele>851.38</ele>
        <time>2011-04-20T08:11:59Z</time>
      </trkpt>
      <trkpt lat="43.81322" lon="7.07995">
        <ele>853.31</ele>
        <time>2011-04-20T08:12:14Z</time>
      </trkpt>
      <trkpt lat="43.81325" lon="7.07986">
        <ele>854.75</ele>
        <time>2011-04-20T08:12:27Z</time>
      </trkpt>
      <trkpt lat="43.81327" lon="7.07979">
        <ele>855.23</ele>
        <time>2011-04-20T08:12:40Z</time>
      </trkpt>
      <trkpt lat="43.81331" lon="7.07967">
        <ele>858.11</ele>
        <time>2011-04-20T08:12:51Z</time>
      </trkpt>
      <trkpt lat="43.81338" lon="7.07954">
        <ele>860.04</ele>
        <time>2011-04-20T08:13:06Z</time>
      </trkpt>
      <trkpt lat="43.81339" lon="7.07955">
        <ele>860.52</ele>
        <time>2011-04-20T08:13:08Z</time>
      </trkpt>
      <trkpt lat="43.81339" lon="7.07958">
        <ele>861.48</ele>
        <time>2011-04-20T08:13:11Z</time>
      </trkpt>
      <trkpt lat="43.8134" lon="7.07969">
        <ele>862.44</ele>
        <time>2011-04-20T08:13:25Z</time>
      </trkpt>
      <trkpt lat="43.8134" lon="7.0797">
        <ele>862.44</ele>
        <time>2011-04-20T08:13:29Z</time>
      </trkpt>
      <trkpt lat="43.8134" lon="7.07973">
        <ele>862.92</ele>
        <time>2011-04-20T08:13:31Z</time>
      </trkpt>
      <trkpt lat="43.81342" lon="7.07981">
        <ele>863.4</ele>
        <time>2011-04-20T08:13:37Z</time>
      </trkpt>
      <trkpt lat="43.81343" lon="7.07991">
        <ele>864.36</ele>
        <time>2011-04-20T08:13:50Z</time>
      </trkpt>
      <trkpt lat="43.81343" lon="7.07995">
        <ele>865.32</ele>
        <time>2011-04-20T08:14:02Z</time>
      </trkpt>
      <trkpt lat="43.81344" lon="7.07998">
        <ele>864.84</ele>
        <time>2011-04-20T08:14:04Z</time>
      </trkpt>
      <trkpt lat="43.81345" lon="7.08016">
        <ele>866.29</ele>
        <time>2011-04-20T08:14:15Z</time>
      </trkpt>
      <trkpt lat="43.81346" lon="7.08021">
        <ele>866.77</ele>
        <time>2011-04-20T08:14:18Z</time>
      </trkpt>
      <trkpt lat="43.81347" lon="7.08025">
        <ele>867.25</ele>
        <time>2011-04-20T08:14:21Z</time>
      </trkpt>
      <trkpt lat="43.81353" lon="7.08025">
        <ele>869.65</ele>
        <time>2011-04-20T08:14:35Z</time>
      </trkpt>
      <trkpt lat="43.81358" lon="7.0801">
        <ele>873.01</ele>
        <time>2011-04-20T08:14:49Z</time>
      </trkpt>
      <trkpt lat="43.81362" lon="7.07995">
        <ele>875.42</ele>
        <time>2011-04-20T08:15:06Z</time>
      </trkpt>
      <trkpt lat="43.81369" lon="7.0798">
        <ele>878.3</ele>
        <time>2011-04-20T08:15:22Z</time>
      </trkpt>
      <trkpt lat="43.81375" lon="7.07967">
        <ele>879.74</ele>
        <time>2011-04-20T08:15:37Z</time>
      </trkpt>
      <trkpt lat="43.8138" lon="7.0796">
        <ele>881.67</ele>
        <time>2011-04-20T08:15:51Z</time>
      </trkpt>
      <trkpt lat="43.8138" lon="7.07958">
        <ele>881.67</ele>
        <time>2011-04-20T08:16:11Z</time>
      </trkpt>
      <trkpt lat="43.81382" lon="7.07964">
        <ele>883.11</ele>
        <time>2011-04-20T08:16:24Z</time>
      </trkpt>
      <trkpt lat="43.81382" lon="7.07968">
        <ele>883.59</ele>
        <time>2011-04-20T08:16:27Z</time>
      </trkpt>
      <trkpt lat="43.81382" lon="7.07973">
        <ele>884.07</ele>
        <time>2011-04-20T08:16:32Z</time>
      </trkpt>
      <trkpt lat="43.81382" lon="7.07979">
        <ele>885.03</ele>
        <time>2011-04-20T08:16:37Z</time>
      </trkpt>
      <trkpt lat="43.81383" lon="7.07997">
        <ele>887.43</ele>
        <time>2011-04-20T08:16:53Z</time>
      </trkpt>
      <trkpt lat="43.81383" lon="7.08">
        <ele>887.43</ele>
        <time>2011-04-20T08:16:55Z</time>
      </trkpt>
      <trkpt lat="43.81385" lon="7.0801">
        <ele>888.4</ele>
        <time>2011-04-20T08:17:04Z</time>
      </trkpt>
      <trkpt lat="43.81385" lon="7.08013">
        <ele>888.4</ele>
        <time>2011-04-20T08:17:06Z</time>
      </trkpt>
      <trkpt lat="43.81385" lon="7.08016">
        <ele>888.88</ele>
        <time>2011-04-20T08:17:08Z</time>
      </trkpt>
      <trkpt lat="43.81388" lon="7.08032">
        <ele>891.28</ele>
        <time>2011-04-20T08:17:22Z</time>
      </trkpt>
      <trkpt lat="43.8139" lon="7.0805">
        <ele>892.72</ele>
        <time>2011-04-20T08:17:37Z</time>
      </trkpt>
      <trkpt lat="43.81393" lon="7.08065">
        <ele>892.24</ele>
        <time>2011-04-20T08:17:50Z</time>
      </trkpt>
      <trkpt lat="43.81395" lon="7.08074">
        <ele>894.16</ele>
        <time>2011-04-20T08:18:04Z</time>
      </trkpt>
      <trkpt lat="43.81395" lon="7.08074">
        <ele>895.12</ele>
        <time>2011-04-20T08:18:20Z</time>
      </trkpt>
      <trkpt lat="43.81397" lon="7.08082">
        <ele>894.64</ele>
        <time>2011-04-20T08:18:27Z</time>
      </trkpt>
      <trkpt lat="43.81401" lon="7.081">
        <ele>897.53</ele>
        <time>2011-04-20T08:18:41Z</time>
      </trkpt>
      <trkpt lat="43.81405" lon="7.08118">
        <ele>898.97</ele>
        <time>2011-04-20T08:18:55Z</time>
      </trkpt>
      <trkpt lat="43.81408" lon="7.08131">
        <ele>900.41</ele>
        <time>2011-04-20T08:19:08Z</time>
      </trkpt>
      <trkpt lat="43.81411" lon="7.08145">
        <ele>902.82</ele>
        <time>2011-04-20T08:19:21Z</time>
      </trkpt>
      <trkpt lat="43.81416" lon="7.08142">
        <ele>904.26</ele>
        <time>2011-04-20T08:19:31Z</time>
      </trkpt>
      <trkpt lat="43.81418" lon="7.08134">
        <ele>904.74</ele>
        <time>2011-04-20T08:19:39Z</time>
      </trkpt>
      <trkpt lat="43.81421" lon="7.08118">
        <ele>907.14</ele>
        <time>2011-04-20T08:19:54Z</time>
      </trkpt>
      <trkpt lat="43.81425" lon="7.08104">
        <ele>909.06</ele>
        <time>2011-04-20T08:20:09Z</time>
      </trkpt>
      <trkpt lat="43.81428" lon="7.08088">
        <ele>912.43</ele>
        <time>2011-04-20T08:20:25Z</time>
      </trkpt>
      <trkpt lat="43.81432" lon="7.0807">
        <ele>914.83</ele>
        <time>2011-04-20T08:20:44Z</time>
      </trkpt>
      <trkpt lat="43.81437" lon="7.08057">
        <ele>916.75</ele>
        <time>2011-04-20T08:20:59Z</time>
      </trkpt>
      <trkpt lat="43.81441" lon="7.08044">
        <ele>918.2</ele>
        <time>2011-04-20T08:21:12Z</time>
      </trkpt>
      <trkpt lat="43.81444" lon="7.08035">
        <ele>919.64</ele>
        <time>2011-04-20T08:21:26Z</time>
      </trkpt>
      <trkpt lat="43.8145" lon="7.0802">
        <ele>921.56</ele>
        <time>2011-04-20T08:21:40Z</time>
      </trkpt>
      <trkpt lat="43.81457" lon="7.08008">
        <ele>923.48</ele>
        <time>2011-04-20T08:21:54Z</time>
      </trkpt>
      <trkpt lat="43.81465" lon="7.07995">
        <ele>925.89</ele>
        <time>2011-04-20T08:22:10Z</time>
      </trkpt>
      <trkpt lat="43.81475" lon="7.07981">
        <ele>927.81</ele>
        <time>2011-04-20T08:22:27Z</time>
      </trkpt>
      <trkpt lat="43.81483" lon="7.07974">
        <ele>928.77</ele>
        <time>2011-04-20T08:22:41Z</time>
      </trkpt>
      <trkpt lat="43.81483" lon="7.07974">
        <ele>928.77</ele>
        <time>2011-04-20T08:22:58Z</time>
      </trkpt>
      <trkpt lat="43.81488" lon="7.07968">
        <ele>929.73</ele>
        <time>2011-04-20T08:23:25Z</time>
      </trkpt>
      <trkpt lat="43.81491" lon="7.07966">
        <ele>930.21</ele>
        <time>2011-04-20T08:23:31Z</time>
      </trkpt>
      <trkpt lat="43.81493" lon="7.07965">
        <ele>930.21</ele>
        <time>2011-04-20T08:23:34Z</time>
      </trkpt>
      <trkpt lat="43.81503" lon="7.07958">
        <ele>932.62</ele>
        <time>2011-04-20T08:23:47Z</time>
      </trkpt>
      <trkpt lat="43.81506" lon="7.07957">
        <ele>931.65</ele>
        <time>2011-04-20T08:23:51Z</time>
      </trkpt>
      <trkpt lat="43.81521" lon="7.07953">
        <ele>935.02</ele>
        <time>2011-04-20T08:24:07Z</time>
      </trkpt>
      <trkpt lat="43.81533" lon="7.07946">
        <ele>936.94</ele>
        <time>2011-04-20T08:24:22Z</time>
      </trkpt>
      <trkpt lat="43.81534" lon="7.07946">
        <ele>936.94</ele>
        <time>2011-04-20T08:24:23Z</time>
      </trkpt>
      <trkpt lat="43.81548" lon="7.0794">
        <ele>938.86</ele>
        <time>2011-04-20T08:24:40Z</time>
      </trkpt>
      <trkpt lat="43.81556" lon="7.07936">
        <ele>941.75</ele>
        <time>2011-04-20T08:24:52Z</time>
      </trkpt>
      <trkpt lat="43.81558" lon="7.07935">
        <ele>942.23</ele>
        <time>2011-04-20T08:24:55Z</time>
      </trkpt>
      <trkpt lat="43.81559" lon="7.07931">
        <ele>941.75</ele>
        <time>2011-04-20T08:24:59Z</time>
      </trkpt>
      <trkpt lat="43.81562" lon="7.07926">
        <ele>943.19</ele>
        <time>2011-04-20T08:25:03Z</time>
      </trkpt>
      <trkpt lat="43.81563" lon="7.07924">
        <ele>943.67</ele>
        <time>2011-04-20T08:25:05Z</time>
      </trkpt>
      <trkpt lat="43.8157" lon="7.0791">
        <ele>944.63</ele>
        <time>2011-04-20T08:25:21Z</time>
      </trkpt>
      <trkpt lat="43.8157" lon="7.07908">
        <ele>944.63</ele>
        <time>2011-04-20T08:25:42Z</time>
      </trkpt>
      <trkpt lat="43.8157" lon="7.07908">
        <ele>943.67</ele>
        <time>2011-04-20T08:26:02Z</time>
      </trkpt>
      <trkpt lat="43.8157" lon="7.07908">
        <ele>944.15</ele>
        <time>2011-04-20T08:26:27Z</time>
      </trkpt>
      <trkpt lat="43.8157" lon="7.07908">
        <ele>944.15</ele>
        <time>2011-04-20T08:26:49Z</time>
      </trkpt>
      <trkpt lat="43.8157" lon="7.07908">
        <ele>943.67</ele>
        <time>2011-04-20T08:27:16Z</time>
      </trkpt>
      <trkpt lat="43.81572" lon="7.07904">
        <ele>945.11</ele>
        <time>2011-04-20T08:27:37Z</time>
      </trkpt>
      <trkpt lat="43.81575" lon="7.07898">
        <ele>945.11</ele>
        <time>2011-04-20T08:27:42Z</time>
      </trkpt>
      <trkpt lat="43.81583" lon="7.07874">
        <ele>947.52</ele>
        <time>2011-04-20T08:28:01Z</time>
      </trkpt>
      <trkpt lat="43.81588" lon="7.07857">
        <ele>948.48</ele>
        <time>2011-04-20T08:28:14Z</time>
      </trkpt>
      <trkpt lat="43.81595" lon="7.07831">
        <ele>951.36</ele>
        <time>2011-04-20T08:28:34Z</time>
      </trkpt>
      <trkpt lat="43.81597" lon="7.07816">
        <ele>953.28</ele>
        <time>2011-04-20T08:28:48Z</time>
      </trkpt>
      <trkpt lat="43.81603" lon="7.07795">
        <ele>954.73</ele>
        <time>2011-04-20T08:29:04Z</time>
      </trkpt>
      <trkpt lat="43.81609" lon="7.07775">
        <ele>956.17</ele>
        <time>2011-04-20T08:29:19Z</time>
      </trkpt>
      <trkpt lat="43.81617" lon="7.07754">
        <ele>957.13</ele>
        <time>2011-04-20T08:29:35Z</time>
      </trkpt>
      <trkpt lat="43.81618" lon="7.07746">
        <ele>958.09</ele>
        <time>2011-04-20T08:29:41Z</time>
      </trkpt>
      <trkpt lat="43.81623" lon="7.07718">
        <ele>957.13</ele>
        <time>2011-04-20T08:29:58Z</time>
      </trkpt>
      <trkpt lat="43.81625" lon="7.07695">
        <ele>959.05</ele>
        <time>2011-04-20T08:30:14Z</time>
      </trkpt>
      <trkpt lat="43.81621" lon="7.07672">
        <ele>960.98</ele>
        <time>2011-04-20T08:30:31Z</time>
      </trkpt>
      <trkpt lat="43.81617" lon="7.07656">
        <ele>962.42</ele>
        <time>2011-04-20T08:30:43Z</time>
      </trkpt>
      <trkpt lat="43.81616" lon="7.07645">
        <ele>962.9</ele>
        <time>2011-04-20T08:30:51Z</time>
      </trkpt>
      <trkpt lat="43.81618" lon="7.07623">
        <ele>965.3</ele>
        <time>2011-04-20T08:31:07Z</time>
      </trkpt>
      <trkpt lat="43.81618" lon="7.07605">
        <ele>967.22</ele>
        <time>2011-04-20T08:31:22Z</time>
      </trkpt>
      <trkpt lat="43.81615" lon="7.07587">
        <ele>968.67</ele>
        <time>2011-04-20T08:31:36Z</time>
      </trkpt>
      <trkpt lat="43.81618" lon="7.07567">
        <ele>970.11</ele>
        <time>2011-04-20T08:31:50Z</time>
      </trkpt>
      <trkpt lat="43.81623" lon="7.07543">
        <ele>971.07</ele>
        <time>2011-04-20T08:32:07Z</time>
      </trkpt>
      <trkpt lat="43.81625" lon="7.07519">
        <ele>972.03</ele>
        <time>2011-04-20T08:32:24Z</time>
      </trkpt>
      <trkpt lat="43.81624" lon="7.07495">
        <ele>973.47</ele>
        <time>2011-04-20T08:32:40Z</time>
      </trkpt>
      <trkpt lat="43.81625" lon="7.07489">
        <ele>973.95</ele>
        <time>2011-04-20T08:32:44Z</time>
      </trkpt>
      <trkpt lat="43.81625" lon="7.0747">
        <ele>974.91</ele>
        <time>2011-04-20T08:32:57Z</time>
      </trkpt>
      <trkpt lat="43.81627" lon="7.07447">
        <ele>975.39</ele>
        <time>2011-04-20T08:33:12Z</time>
      </trkpt>
      <trkpt lat="43.8163" lon="7.07421">
        <ele>975.39</ele>
        <time>2011-04-20T08:33:28Z</time>
      </trkpt>
      <trkpt lat="43.81635" lon="7.07391">
        <ele>975.39</ele>
        <time>2011-04-20T08:33:46Z</time>
      </trkpt>
      <trkpt lat="43.81632" lon="7.07366">
        <ele>975.88</ele>
        <time>2011-04-20T08:34:02Z</time>
      </trkpt>
      <trkpt lat="43.81628" lon="7.07345">
        <ele>978.76</ele>
        <time>2011-04-20T08:34:16Z</time>
      </trkpt>
      <trkpt lat="43.8163" lon="7.07324">
        <ele>979.24</ele>
        <time>2011-04-20T08:34:30Z</time>
      </trkpt>
      <trkpt lat="43.81636" lon="7.07302">
        <ele>980.2</ele>
        <time>2011-04-20T08:34:47Z</time>
      </trkpt>
      <trkpt lat="43.81638" lon="7.07297">
        <ele>981.16</ele>
        <time>2011-04-20T08:34:51Z</time>
      </trkpt>
      <trkpt lat="43.81642" lon="7.07289">
        <ele>982.12</ele>
        <time>2011-04-20T08:34:59Z</time>
      </trkpt>
      <trkpt lat="43.81643" lon="7.07287">
        <ele>982.12</ele>
        <time>2011-04-20T08:35:01Z</time>
      </trkpt>
      <trkpt lat="43.81644" lon="7.07284">
        <ele>983.09</ele>
        <time>2011-04-20T08:35:03Z</time>
      </trkpt>
      <trkpt lat="43.8165" lon="7.07273">
        <ele>983.57</ele>
        <time>2011-04-20T08:35:13Z</time>
      </trkpt>
      <trkpt lat="43.81659" lon="7.07253">
        <ele>986.45</ele>
        <time>2011-04-20T08:35:30Z</time>
      </trkpt>
      <trkpt lat="43.81663" lon="7.07245">
        <ele>987.41</ele>
        <time>2011-04-20T08:35:38Z</time>
      </trkpt>
      <trkpt lat="43.81669" lon="7.07231">
        <ele>988.85</ele>
        <time>2011-04-20T08:35:51Z</time>
      </trkpt>
      <trkpt lat="43.81676" lon="7.07213">
        <ele>990.78</ele>
        <time>2011-04-20T08:36:07Z</time>
      </trkpt>
      <trkpt lat="43.81684" lon="7.07195">
        <ele>993.18</ele>
        <time>2011-04-20T08:36:22Z</time>
      </trkpt>
      <trkpt lat="43.81694" lon="7.07172">
        <ele>994.62</ele>
        <time>2011-04-20T08:36:40Z</time>
      </trkpt>
      <trkpt lat="43.81702" lon="7.07153">
        <ele>996.06</ele>
        <time>2011-04-20T08:36:55Z</time>
      </trkpt>
      <trkpt lat="43.81712" lon="7.07134">
        <ele>997.51</ele>
        <time>2011-04-20T08:37:11Z</time>
      </trkpt>
      <trkpt lat="43.81721" lon="7.07115">
        <ele>999.43</ele>
        <time>2011-04-20T08:37:27Z</time>
      </trkpt>
      <trkpt lat="43.81728" lon="7.07096">
        <ele>999.91</ele>
        <time>2011-04-20T08:37:42Z</time>
      </trkpt>
      <trkpt lat="43.81731" lon="7.07091">
        <ele>1001.35</ele>
        <time>2011-04-20T08:37:47Z</time>
      </trkpt>
      <trkpt lat="43.81739" lon="7.07074">
        <ele>1003.75</ele>
        <time>2011-04-20T08:38:02Z</time>
      </trkpt>
      <trkpt lat="43.81748" lon="7.07055">
        <ele>1005.68</ele>
        <time>2011-04-20T08:38:19Z</time>
      </trkpt>
      <trkpt lat="43.81757" lon="7.07036">
        <ele>1008.08</ele>
        <time>2011-04-20T08:38:36Z</time>
      </trkpt>
      <trkpt lat="43.81761" lon="7.07024">
        <ele>1009.52</ele>
        <time>2011-04-20T08:38:48Z</time>
      </trkpt>
      <trkpt lat="43.81766" lon="7.07015">
        <ele>1011.44</ele>
        <time>2011-04-20T08:38:57Z</time>
      </trkpt>
      <trkpt lat="43.81776" lon="7.06994">
        <ele>1013.85</ele>
        <time>2011-04-20T08:39:15Z</time>
      </trkpt>
      <trkpt lat="43.81785" lon="7.06976">
        <ele>1015.29</ele>
        <time>2011-04-20T08:39:31Z</time>
      </trkpt>
      <trkpt lat="43.81794" lon="7.06961">
        <ele>1017.21</ele>
        <time>2011-04-20T08:39:46Z</time>
      </trkpt>
      <trkpt lat="43.81803" lon="7.06949">
        <ele>1020.1</ele>
        <time>2011-04-20T08:40:01Z</time>
      </trkpt>
      <trkpt lat="43.81812" lon="7.06938">
        <ele>1021.54</ele>
        <time>2011-04-20T08:40:15Z</time>
      </trkpt>
      <trkpt lat="43.81819" lon="7.06928">
        <ele>1023.46</ele>
        <time>2011-04-20T08:40:28Z</time>
      </trkpt>
      <trkpt lat="43.81819" lon="7.06928">
        <ele>1023.94</ele>
        <time>2011-04-20T08:40:43Z</time>
      </trkpt>
      <trkpt lat="43.81824" lon="7.0692">
        <ele>1024.42</ele>
        <time>2011-04-20T08:40:58Z</time>
      </trkpt>
      <trkpt lat="43.81833" lon="7.06907">
        <ele>1025.86</ele>
        <time>2011-04-20T08:41:12Z</time>
      </trkpt>
      <trkpt lat="43.81843" lon="7.06891">
        <ele>1027.79</ele>
        <time>2011-04-20T08:41:28Z</time>
      </trkpt>
      <trkpt lat="43.81852" lon="7.06879">
        <ele>1029.71</ele>
        <time>2011-04-20T08:41:43Z</time>
      </trkpt>
      <trkpt lat="43.81862" lon="7.06869">
        <ele>1032.11</ele>
        <time>2011-04-20T08:41:58Z</time>
      </trkpt>
      <trkpt lat="43.8187" lon="7.06859">
        <ele>1034.04</ele>
        <time>2011-04-20T08:42:12Z</time>
      </trkpt>
      <trkpt lat="43.81878" lon="7.06846">
        <ele>1036.44</ele>
        <time>2011-04-20T08:42:28Z</time>
      </trkpt>
      <trkpt lat="43.81883" lon="7.06831">
        <ele>1037.88</ele>
        <time>2011-04-20T08:42:43Z</time>
      </trkpt>
      <trkpt lat="43.81884" lon="7.06823">
        <ele>1038.84</ele>
        <time>2011-04-20T08:42:50Z</time>
      </trkpt>
      <trkpt lat="43.81887" lon="7.06804">
        <ele>1041.25</ele>
        <time>2011-04-20T08:43:06Z</time>
      </trkpt>
      <trkpt lat="43.81888" lon="7.06791">
        <ele>1043.65</ele>
        <time>2011-04-20T08:43:19Z</time>
      </trkpt>
      <trkpt lat="43.81891" lon="7.06776">
        <ele>1045.57</ele>
        <time>2011-04-20T08:43:35Z</time>
      </trkpt>
      <trkpt lat="43.81892" lon="7.06769">
        <ele>1046.53</ele>
        <time>2011-04-20T08:43:49Z</time>
      </trkpt>
      <trkpt lat="43.81895" lon="7.06749">
        <ele>1048.45</ele>
        <time>2011-04-20T08:44:05Z</time>
      </trkpt>
      <trkpt lat="43.81901" lon="7.06726">
        <ele>1050.86</ele>
        <time>2011-04-20T08:44:25Z</time>
      </trkpt>
      <trkpt lat="43.81901" lon="7.06726">
        <ele>1050.38</ele>
        <time>2011-04-20T08:44:26Z</time>
      </trkpt>
      <trkpt lat="43.81905" lon="7.06708">
        <ele>1053.26</ele>
        <time>2011-04-20T08:44:43Z</time>
      </trkpt>
      <trkpt lat="43.81905" lon="7.067">
        <ele>1054.22</ele>
        <time>2011-04-20T08:44:57Z</time>
      </trkpt>
      <trkpt lat="43.81909" lon="7.06679">
        <ele>1056.63</ele>
        <time>2011-04-20T08:45:16Z</time>
      </trkpt>
      <trkpt lat="43.81909" lon="7.06679">
        <ele>1056.15</ele>
        <time>2011-04-20T08:45:32Z</time>
      </trkpt>
      <trkpt lat="43.81909" lon="7.06678">
        <ele>1056.63</ele>
        <time>2011-04-20T08:46:00Z</time>
      </trkpt>
      <trkpt lat="43.81909" lon="7.06678">
        <ele>1056.63</ele>
        <time>2011-04-20T08:46:24Z</time>
      </trkpt>
      <trkpt lat="43.81909" lon="7.06677">
        <ele>1056.15</ele>
        <time>2011-04-20T08:46:52Z</time>
      </trkpt>
      <trkpt lat="43.81909" lon="7.06677">
        <ele>1057.59</ele>
        <time>2011-04-20T08:47:06Z</time>
      </trkpt>
      <trkpt lat="43.81912" lon="7.06667">
        <ele>1058.07</ele>
        <time>2011-04-20T08:47:19Z</time>
      </trkpt>
      <trkpt lat="43.81912" lon="7.06664">
        <ele>1059.99</ele>
        <time>2011-04-20T08:47:22Z</time>
      </trkpt>
      <trkpt lat="43.81913" lon="7.06656">
        <ele>1060.47</ele>
        <time>2011-04-20T08:47:29Z</time>
      </trkpt>
      <trkpt lat="43.81918" lon="7.06637">
        <ele>1062.87</ele>
        <time>2011-04-20T08:47:46Z</time>
      </trkpt>
      <trkpt lat="43.81921" lon="7.06622">
        <ele>1064.32</ele>
        <time>2011-04-20T08:47:59Z</time>
      </trkpt>
      <trkpt lat="43.81922" lon="7.0662">
        <ele>1064.32</ele>
        <time>2011-04-20T08:48:01Z</time>
      </trkpt>
      <trkpt lat="43.81928" lon="7.06596">
        <ele>1066.24</ele>
        <time>2011-04-20T08:48:20Z</time>
      </trkpt>
      <trkpt lat="43.81932" lon="7.06576">
        <ele>1068.16</ele>
        <time>2011-04-20T08:48:37Z</time>
      </trkpt>
      <trkpt lat="43.81933" lon="7.06573">
        <ele>1068.16</ele>
        <time>2011-04-20T08:48:40Z</time>
      </trkpt>
      <trkpt lat="43.81936" lon="7.06555">
        <ele>1071.53</ele>
        <time>2011-04-20T08:48:56Z</time>
      </trkpt>
      <trkpt lat="43.81939" lon="7.06543">
        <ele>1072.97</ele>
        <time>2011-04-20T08:49:07Z</time>
      </trkpt>
      <trkpt lat="43.81942" lon="7.06526">
        <ele>1074.89</ele>
        <time>2011-04-20T08:49:22Z</time>
      </trkpt>
      <trkpt lat="43.81944" lon="7.06514">
        <ele>1075.85</ele>
        <time>2011-04-20T08:49:34Z</time>
      </trkpt>
      <trkpt lat="43.81947" lon="7.06504">
        <ele>1077.78</ele>
        <time>2011-04-20T08:49:44Z</time>
      </trkpt>
      <trkpt lat="43.81948" lon="7.06499">
        <ele>1077.78</ele>
        <time>2011-04-20T08:49:49Z</time>
      </trkpt>
      <trkpt lat="43.81951" lon="7.0648">
        <ele>1081.14</ele>
        <time>2011-04-20T08:50:05Z</time>
      </trkpt>
      <trkpt lat="43.81952" lon="7.06462">
        <ele>1083.54</ele>
        <time>2011-04-20T08:50:21Z</time>
      </trkpt>
      <trkpt lat="43.81954" lon="7.06451">
        <ele>1085.47</ele>
        <time>2011-04-20T08:50:32Z</time>
      </trkpt>
      <trkpt lat="43.81957" lon="7.06435">
        <ele>1088.35</ele>
        <time>2011-04-20T08:50:47Z</time>
      </trkpt>
      <trkpt lat="43.81955" lon="7.06419">
        <ele>1089.79</ele>
        <time>2011-04-20T08:51:04Z</time>
      </trkpt>
      <trkpt lat="43.81955" lon="7.06415">
        <ele>1090.75</ele>
        <time>2011-04-20T08:51:08Z</time>
      </trkpt>
      <trkpt lat="43.81952" lon="7.06391">
        <ele>1092.68</ele>
        <time>2011-04-20T08:51:27Z</time>
      </trkpt>
      <trkpt lat="43.81952" lon="7.06386">
        <ele>1093.64</ele>
        <time>2011-04-20T08:51:42Z</time>
      </trkpt>
      <trkpt lat="43.81952" lon="7.06377">
        <ele>1095.56</ele>
        <time>2011-04-20T08:51:56Z</time>
      </trkpt>
      <trkpt lat="43.81951" lon="7.06374">
        <ele>1095.56</ele>
        <time>2011-04-20T08:51:59Z</time>
      </trkpt>
      <trkpt lat="43.8195" lon="7.06357">
        <ele>1097.48</ele>
        <time>2011-04-20T08:52:14Z</time>
      </trkpt>
      <trkpt lat="43.81949" lon="7.06342">
        <ele>1099.4</ele>
        <time>2011-04-20T08:52:30Z</time>
      </trkpt>
      <trkpt lat="43.81947" lon="7.06332">
        <ele>1100.85</ele>
        <time>2011-04-20T08:52:39Z</time>
      </trkpt>
      <trkpt lat="43.81942" lon="7.06312">
        <ele>1102.77</ele>
        <time>2011-04-20T08:52:57Z</time>
      </trkpt>
      <trkpt lat="43.81941" lon="7.0629">
        <ele>1105.17</ele>
        <time>2011-04-20T08:53:15Z</time>
      </trkpt>
      <trkpt lat="43.8194" lon="7.06286">
        <ele>1105.17</ele>
        <time>2011-04-20T08:53:19Z</time>
      </trkpt>
      <trkpt lat="43.81941" lon="7.06263">
        <ele>1107.1</ele>
        <time>2011-04-20T08:53:35Z</time>
      </trkpt>
      <trkpt lat="43.81941" lon="7.06244">
        <ele>1108.06</ele>
        <time>2011-04-20T08:53:50Z</time>
      </trkpt>
      <trkpt lat="43.81942" lon="7.06231">
        <ele>1110.94</ele>
        <time>2011-04-20T08:54:05Z</time>
      </trkpt>
      <trkpt lat="43.81943" lon="7.0623">
        <ele>1111.42</ele>
        <time>2011-04-20T08:54:23Z</time>
      </trkpt>
      <trkpt lat="43.81945" lon="7.06225">
        <ele>1114.31</ele>
        <time>2011-04-20T08:54:40Z</time>
      </trkpt>
      <trkpt lat="43.81944" lon="7.06225">
        <ele>1111.42</ele>
        <time>2011-04-20T08:54:51Z</time>
      </trkpt>
      <trkpt lat="43.81945" lon="7.06226">
        <ele>1111.9</ele>
        <time>2011-04-20T08:55:09Z</time>
      </trkpt>
      <trkpt lat="43.81945" lon="7.06227">
        <ele>1111.9</ele>
        <time>2011-04-20T08:55:30Z</time>
      </trkpt>
      <trkpt lat="43.81946" lon="7.0623">
        <ele>1111.9</ele>
        <time>2011-04-20T08:55:51Z</time>
      </trkpt>
      <trkpt lat="43.81946" lon="7.0623">
        <ele>1112.86</ele>
        <time>2011-04-20T08:56:22Z</time>
      </trkpt>
      <trkpt lat="43.81946" lon="7.0623">
        <ele>1111.9</ele>
        <time>2011-04-20T08:56:59Z</time>
      </trkpt>
      <trkpt lat="43.81952" lon="7.06238">
        <ele>1112.38</ele>
        <time>2011-04-20T08:57:21Z</time>
      </trkpt>
      <trkpt lat="43.81954" lon="7.06241">
        <ele>1112.38</ele>
        <time>2011-04-20T08:57:24Z</time>
      </trkpt>
      <trkpt lat="43.81964" lon="7.06258">
        <ele>1114.79</ele>
        <time>2011-04-20T08:57:41Z</time>
      </trkpt>
      <trkpt lat="43.8197" lon="7.06273">
        <ele>1115.75</ele>
        <time>2011-04-20T08:57:57Z</time>
      </trkpt>
      <trkpt lat="43.81977" lon="7.06291">
        <ele>1118.63</ele>
        <time>2011-04-20T08:58:14Z</time>
      </trkpt>
      <trkpt lat="43.81986" lon="7.06308">
        <ele>1121.03</ele>
        <time>2011-04-20T08:58:31Z</time>
      </trkpt>
      <trkpt lat="43.81993" lon="7.06327">
        <ele>1123.44</ele>
        <time>2011-04-20T08:58:48Z</time>
      </trkpt>
      <trkpt lat="43.81995" lon="7.06329">
        <ele>1123.44</ele>
        <time>2011-04-20T08:58:50Z</time>
      </trkpt>
      <trkpt lat="43.8201" lon="7.06343">
        <ele>1124.88</ele>
        <time>2011-04-20T08:59:07Z</time>
      </trkpt>
      <trkpt lat="43.82024" lon="7.06349">
        <ele>1125.84</ele>
        <time>2011-04-20T08:59:24Z</time>
      </trkpt>
      <trkpt lat="43.82034" lon="7.06345">
        <ele>1129.21</ele>
        <time>2011-04-20T08:59:35Z</time>
      </trkpt>
      <trkpt lat="43.82042" lon="7.0634">
        <ele>1133.05</ele>
        <time>2011-04-20T08:59:49Z</time>
      </trkpt>
      <trkpt lat="43.8205" lon="7.06335">
        <ele>1134.49</ele>
        <time>2011-04-20T09:00:02Z</time>
      </trkpt>
      <trkpt lat="43.82059" lon="7.06327">
        <ele>1136.9</ele>
        <time>2011-04-20T09:00:18Z</time>
      </trkpt>
      <trkpt lat="43.82061" lon="7.06324">
        <ele>1137.38</ele>
        <time>2011-04-20T09:00:22Z</time>
      </trkpt>
      <trkpt lat="43.82065" lon="7.06316">
        <ele>1139.78</ele>
        <time>2011-04-20T09:00:32Z</time>
      </trkpt>
      <trkpt lat="43.82072" lon="7.06312">
        <ele>1141.7</ele>
        <time>2011-04-20T09:00:43Z</time>
      </trkpt>
      <trkpt lat="43.82081" lon="7.06314">
        <ele>1143.14</ele>
        <time>2011-04-20T09:00:52Z</time>
      </trkpt>
      <trkpt lat="43.82087" lon="7.06312">
        <ele>1146.03</ele>
        <time>2011-04-20T09:01:01Z</time>
      </trkpt>
      <trkpt lat="43.82092" lon="7.06306">
        <ele>1145.07</ele>
        <time>2011-04-20T09:01:09Z</time>
      </trkpt>
      <trkpt lat="43.82094" lon="7.06305">
        <ele>1146.51</ele>
        <time>2011-04-20T09:01:12Z</time>
      </trkpt>
      <trkpt lat="43.82106" lon="7.0631">
        <ele>1147.47</ele>
        <time>2011-04-20T09:01:28Z</time>
      </trkpt>
      <trkpt lat="43.82114" lon="7.06326">
        <ele>1150.35</ele>
        <time>2011-04-20T09:01:48Z</time>
      </trkpt>
      <trkpt lat="43.82121" lon="7.06338">
        <ele>1151.8</ele>
        <time>2011-04-20T09:02:00Z</time>
      </trkpt>
      <trkpt lat="43.8213" lon="7.06339">
        <ele>1151.8</ele>
        <time>2011-04-20T09:02:09Z</time>
      </trkpt>
      <trkpt lat="43.82147" lon="7.06341">
        <ele>1155.16</ele>
        <time>2011-04-20T09:02:25Z</time>
      </trkpt>
      <trkpt lat="43.8216" lon="7.06341">
        <ele>1155.64</ele>
        <time>2011-04-20T09:02:39Z</time>
      </trkpt>
      <trkpt lat="43.82175" lon="7.0634">
        <ele>1159.49</ele>
        <time>2011-04-20T09:02:56Z</time>
      </trkpt>
      <trkpt lat="43.82188" lon="7.0634">
        <ele>1160.45</ele>
        <time>2011-04-20T09:03:08Z</time>
      </trkpt>
      <trkpt lat="43.822" lon="7.06339">
        <ele>1161.41</ele>
        <time>2011-04-20T09:03:25Z</time>
      </trkpt>
      <trkpt lat="43.82207" lon="7.06338">
        <ele>1164.29</ele>
        <time>2011-04-20T09:03:41Z</time>
      </trkpt>
      <trkpt lat="43.82216" lon="7.06336">
        <ele>1165.26</ele>
        <time>2011-04-20T09:03:49Z</time>
      </trkpt>
      <trkpt lat="43.82232" lon="7.06338">
        <ele>1168.14</ele>
        <time>2011-04-20T09:04:05Z</time>
      </trkpt>
      <trkpt lat="43.82247" lon="7.06338">
        <ele>1169.1</ele>
        <time>2011-04-20T09:04:21Z</time>
      </trkpt>
      <trkpt lat="43.82253" lon="7.06341">
        <ele>1170.06</ele>
        <time>2011-04-20T09:04:28Z</time>
      </trkpt>
      <trkpt lat="43.82268" lon="7.06343">
        <ele>1171.02</ele>
        <time>2011-04-20T09:04:44Z</time>
      </trkpt>
      <trkpt lat="43.82282" lon="7.06346">
        <ele>1173.43</ele>
        <time>2011-04-20T09:05:02Z</time>
      </trkpt>
      <trkpt lat="43.82292" lon="7.06348">
        <ele>1175.83</ele>
        <time>2011-04-20T09:05:19Z</time>
      </trkpt>
      <trkpt lat="43.82307" lon="7.06361">
        <ele>1176.79</ele>
        <time>2011-04-20T09:05:37Z</time>
      </trkpt>
      <trkpt lat="43.82328" lon="7.06366">
        <ele>1179.19</ele>
        <time>2011-04-20T09:05:55Z</time>
      </trkpt>
      <trkpt lat="43.82341" lon="7.06367">
        <ele>1180.64</ele>
        <time>2011-04-20T09:06:09Z</time>
      </trkpt>
      <trkpt lat="43.82356" lon="7.06368">
        <ele>1183.04</ele>
        <time>2011-04-20T09:06:25Z</time>
      </trkpt>
      <trkpt lat="43.82369" lon="7.06369">
        <ele>1184.48</ele>
        <time>2011-04-20T09:06:40Z</time>
      </trkpt>
      <trkpt lat="43.82373" lon="7.06376">
        <ele>1185.44</ele>
        <time>2011-04-20T09:06:47Z</time>
      </trkpt>
      <trkpt lat="43.82373" lon="7.0638">
        <ele>1185.92</ele>
        <time>2011-04-20T09:06:50Z</time>
      </trkpt>
      <trkpt lat="43.82385" lon="7.06397">
        <ele>1187.37</ele>
        <time>2011-04-20T09:07:08Z</time>
      </trkpt>
      <trkpt lat="43.82386" lon="7.06399">
        <ele>1187.85</ele>
        <time>2011-04-20T09:07:10Z</time>
      </trkpt>
      <trkpt lat="43.82396" lon="7.06395">
        <ele>1189.77</ele>
        <time>2011-04-20T09:07:25Z</time>
      </trkpt>
      <trkpt lat="43.82397" lon="7.06393">
        <ele>1190.73</ele>
        <time>2011-04-20T09:07:28Z</time>
      </trkpt>
      <trkpt lat="43.82405" lon="7.0639">
        <ele>1193.61</ele>
        <time>2011-04-20T09:07:39Z</time>
      </trkpt>
      <trkpt lat="43.82407" lon="7.06389">
        <ele>1193.61</ele>
        <time>2011-04-20T09:07:53Z</time>
      </trkpt>
      <trkpt lat="43.82407" lon="7.06389">
        <ele>1193.61</ele>
        <time>2011-04-20T09:07:56Z</time>
      </trkpt>
      <trkpt lat="43.82414" lon="7.06399">
        <ele>1195.06</ele>
        <time>2011-04-20T09:08:10Z</time>
      </trkpt>
      <trkpt lat="43.82414" lon="7.06402">
        <ele>1194.58</ele>
        <time>2011-04-20T09:08:12Z</time>
      </trkpt>
      <trkpt lat="43.82418" lon="7.0642">
        <ele>1197.46</ele>
        <time>2011-04-20T09:08:28Z</time>
      </trkpt>
      <trkpt lat="43.82419" lon="7.06428">
        <ele>1197.94</ele>
        <time>2011-04-20T09:08:42Z</time>
      </trkpt>
      <trkpt lat="43.82422" lon="7.06449">
        <ele>1200.82</ele>
        <time>2011-04-20T09:08:57Z</time>
      </trkpt>
      <trkpt lat="43.82429" lon="7.06459">
        <ele>1201.79</ele>
        <time>2011-04-20T09:09:14Z</time>
      </trkpt>
      <trkpt lat="43.82432" lon="7.06448">
        <ele>1203.23</ele>
        <time>2011-04-20T09:09:28Z</time>
      </trkpt>
      <trkpt lat="43.82436" lon="7.06441">
        <ele>1205.15</ele>
        <time>2011-04-20T09:09:37Z</time>
      </trkpt>
      <trkpt lat="43.82444" lon="7.06431">
        <ele>1206.11</ele>
        <time>2011-04-20T09:09:52Z</time>
      </trkpt>
      <trkpt lat="43.82449" lon="7.06425">
        <ele>1206.11</ele>
        <time>2011-04-20T09:10:01Z</time>
      </trkpt>
      <trkpt lat="43.82451" lon="7.06421">
        <ele>1207.55</ele>
        <time>2011-04-20T09:10:05Z</time>
      </trkpt>
      <trkpt lat="43.82458" lon="7.06409">
        <ele>1210.44</ele>
        <time>2011-04-20T09:10:19Z</time>
      </trkpt>
      <trkpt lat="43.82467" lon="7.06403">
        <ele>1209.96</ele>
        <time>2011-04-20T09:10:31Z</time>
      </trkpt>
      <trkpt lat="43.82478" lon="7.06396">
        <ele>1211.4</ele>
        <time>2011-04-20T09:10:47Z</time>
      </trkpt>
      <trkpt lat="43.82479" lon="7.06396">
        <ele>1211.4</ele>
        <time>2011-04-20T09:10:49Z</time>
      </trkpt>
      <trkpt lat="43.82486" lon="7.06391">
        <ele>1211.4</ele>
        <time>2011-04-20T09:10:56Z</time>
      </trkpt>
      <trkpt lat="43.82488" lon="7.06389">
        <ele>1210.44</ele>
        <time>2011-04-20T09:10:58Z</time>
      </trkpt>
      <trkpt lat="43.82499" lon="7.0638">
        <ele>1211.88</ele>
        <time>2011-04-20T09:11:08Z</time>
      </trkpt>
      <trkpt lat="43.82505" lon="7.06372">
        <ele>1210.92</ele>
        <time>2011-04-20T09:11:16Z</time>
      </trkpt>
      <trkpt lat="43.8251" lon="7.0636">
        <ele>1213.8</ele>
        <time>2011-04-20T09:11:26Z</time>
      </trkpt>
      <trkpt lat="43.82517" lon="7.06345">
        <ele>1215.24</ele>
        <time>2011-04-20T09:11:40Z</time>
      </trkpt>
      <trkpt lat="43.82519" lon="7.0634">
        <ele>1214.76</ele>
        <time>2011-04-20T09:11:45Z</time>
      </trkpt>
      <trkpt lat="43.82521" lon="7.06338">
        <ele>1216.21</ele>
        <time>2011-04-20T09:11:47Z</time>
      </trkpt>
      <trkpt lat="43.8253" lon="7.06318">
        <ele>1219.57</ele>
        <time>2011-04-20T09:12:05Z</time>
      </trkpt>
      <trkpt lat="43.82531" lon="7.06316">
        <ele>1218.13</ele>
        <time>2011-04-20T09:12:07Z</time>
      </trkpt>
      <trkpt lat="43.82533" lon="7.06314">
        <ele>1219.57</ele>
        <time>2011-04-20T09:12:09Z</time>
      </trkpt>
      <trkpt lat="43.8254" lon="7.06304">
        <ele>1221.01</ele>
        <time>2011-04-20T09:12:20Z</time>
      </trkpt>
      <trkpt lat="43.82543" lon="7.06302">
        <ele>1220.53</ele>
        <time>2011-04-20T09:12:24Z</time>
      </trkpt>
      <trkpt lat="43.82546" lon="7.06301">
        <ele>1220.53</ele>
        <time>2011-04-20T09:12:26Z</time>
      </trkpt>
      <trkpt lat="43.82553" lon="7.06295">
        <ele>1220.05</ele>
        <time>2011-04-20T09:12:43Z</time>
      </trkpt>
      <trkpt lat="43.82553" lon="7.06294">
        <ele>1219.09</ele>
        <time>2011-04-20T09:12:59Z</time>
      </trkpt>
      <trkpt lat="43.82553" lon="7.06294">
        <ele>1219.09</ele>
        <time>2011-04-20T09:13:36Z</time>
      </trkpt>
      <trkpt lat="43.82553" lon="7.06294">
        <ele>1219.09</ele>
        <time>2011-04-20T09:14:07Z</time>
      </trkpt>
      <trkpt lat="43.82553" lon="7.06294">
        <ele>1219.09</ele>
        <time>2011-04-20T09:14:40Z</time>
      </trkpt>
      <trkpt lat="43.82553" lon="7.06294">
        <ele>1219.09</ele>
        <time>2011-04-20T09:15:15Z</time>
      </trkpt>
      <trkpt lat="43.82553" lon="7.06294">
        <ele>1220.05</ele>
        <time>2011-04-20T09:15:39Z</time>
      </trkpt>
      <trkpt lat="43.82554" lon="7.06297">
        <ele>1221.01</ele>
        <time>2011-04-20T09:15:47Z</time>
      </trkpt>
      <trkpt lat="43.82554" lon="7.06299">
        <ele>1219.57</ele>
        <time>2011-04-20T09:15:53Z</time>
      </trkpt>
      <trkpt lat="43.82558" lon="7.06307">
        <ele>1219.57</ele>
        <time>2011-04-20T09:15:58Z</time>
      </trkpt>
      <trkpt lat="43.8257" lon="7.06326">
        <ele>1219.09</ele>
        <time>2011-04-20T09:16:13Z</time>
      </trkpt>
      <trkpt lat="43.82578" lon="7.06349">
        <ele>1217.17</ele>
        <time>2011-04-20T09:16:29Z</time>
      </trkpt>
      <trkpt lat="43.8258" lon="7.06355">
        <ele>1215.72</ele>
        <time>2011-04-20T09:16:34Z</time>
      </trkpt>
      <trkpt lat="43.82585" lon="7.06364">
        <ele>1216.69</ele>
        <time>2011-04-20T09:16:40Z</time>
      </trkpt>
      <trkpt lat="43.82592" lon="7.06376">
        <ele>1216.69</ele>
        <time>2011-04-20T09:16:51Z</time>
      </trkpt>
      <trkpt lat="43.82602" lon="7.06389">
        <ele>1212.84</ele>
        <time>2011-04-20T09:17:05Z</time>
      </trkpt>
      <trkpt lat="43.82608" lon="7.06411">
        <ele>1212.84</ele>
        <time>2011-04-20T09:17:20Z</time>
      </trkpt>
      <trkpt lat="43.8262" lon="7.06437">
        <ele>1212.36</ele>
        <time>2011-04-20T09:17:35Z</time>
      </trkpt>
      <trkpt lat="43.82624" lon="7.06448">
        <ele>1209.96</ele>
        <time>2011-04-20T09:17:43Z</time>
      </trkpt>
      <trkpt lat="43.82633" lon="7.0647">
        <ele>1209.48</ele>
        <time>2011-04-20T09:17:59Z</time>
      </trkpt>
      <trkpt lat="43.82639" lon="7.06494">
        <ele>1207.07</ele>
        <time>2011-04-20T09:18:15Z</time>
      </trkpt>
      <trkpt lat="43.82639" lon="7.06515">
        <ele>1207.07</ele>
        <time>2011-04-20T09:18:29Z</time>
      </trkpt>
      <trkpt lat="43.82642" lon="7.06536">
        <ele>1203.71</ele>
        <time>2011-04-20T09:18:40Z</time>
      </trkpt>
      <trkpt lat="43.82642" lon="7.06555">
        <ele>1205.15</ele>
        <time>2011-04-20T09:18:54Z</time>
      </trkpt>
      <trkpt lat="43.8264" lon="7.06579">
        <ele>1204.67</ele>
        <time>2011-04-20T09:19:09Z</time>
      </trkpt>
      <trkpt lat="43.82642" lon="7.06602">
        <ele>1202.27</ele>
        <time>2011-04-20T09:19:24Z</time>
      </trkpt>
      <trkpt lat="43.82647" lon="7.06611">
        <ele>1201.79</ele>
        <time>2011-04-20T09:19:32Z</time>
      </trkpt>
      <trkpt lat="43.82649" lon="7.0662">
        <ele>1201.79</ele>
        <time>2011-04-20T09:19:38Z</time>
      </trkpt>
      <trkpt lat="43.82653" lon="7.06643">
        <ele>1200.82</ele>
        <time>2011-04-20T09:19:53Z</time>
      </trkpt>
      <trkpt lat="43.82655" lon="7.06673">
        <ele>1199.86</ele>
        <time>2011-04-20T09:20:10Z</time>
      </trkpt>
      <trkpt lat="43.82656" lon="7.06676">
        <ele>1198.9</ele>
        <time>2011-04-20T09:20:12Z</time>
      </trkpt>
      <trkpt lat="43.82658" lon="7.06704">
        <ele>1198.9</ele>
        <time>2011-04-20T09:20:29Z</time>
      </trkpt>
      <trkpt lat="43.8266" lon="7.0673">
        <ele>1198.42</ele>
        <time>2011-04-20T09:20:46Z</time>
      </trkpt>
      <trkpt lat="43.82665" lon="7.06761">
        <ele>1197.46</ele>
        <time>2011-04-20T09:21:05Z</time>
      </trkpt>
      <trkpt lat="43.82667" lon="7.06775">
        <ele>1196.98</ele>
        <time>2011-04-20T09:21:14Z</time>
      </trkpt>
      <trkpt lat="43.82674" lon="7.06797">
        <ele>1194.58</ele>
        <time>2011-04-20T09:21:31Z</time>
      </trkpt>
      <trkpt lat="43.82675" lon="7.06799">
        <ele>1194.58</ele>
        <time>2011-04-20T09:21:32Z</time>
      </trkpt>
      <trkpt lat="43.82682" lon="7.06828">
        <ele>1190.73</ele>
        <time>2011-04-20T09:21:50Z</time>
      </trkpt>
      <trkpt lat="43.82688" lon="7.06851">
        <ele>1190.25</ele>
        <time>2011-04-20T09:22:06Z</time>
      </trkpt>
      <trkpt lat="43.82694" lon="7.06872">
        <ele>1188.33</ele>
        <time>2011-04-20T09:22:21Z</time>
      </trkpt>
      <trkpt lat="43.82703" lon="7.06895">
        <ele>1187.37</ele>
        <time>2011-04-20T09:22:36Z</time>
      </trkpt>
      <trkpt lat="43.82704" lon="7.06896">
        <ele>1186.88</ele>
        <time>2011-04-20T09:22:37Z</time>
      </trkpt>
      <trkpt lat="43.82713" lon="7.0692">
        <ele>1184</ele>
        <time>2011-04-20T09:22:55Z</time>
      </trkpt>
      <trkpt lat="43.8272" lon="7.06937">
        <ele>1180.64</ele>
        <time>2011-04-20T09:23:10Z</time>
      </trkpt>
      <trkpt lat="43.82731" lon="7.0696">
        <ele>1179.19</ele>
        <time>2011-04-20T09:23:26Z</time>
      </trkpt>
      <trkpt lat="43.82741" lon="7.06979">
        <ele>1177.75</ele>
        <time>2011-04-20T09:23:40Z</time>
      </trkpt>
      <trkpt lat="43.82747" lon="7.06988">
        <ele>1175.83</ele>
        <time>2011-04-20T09:23:47Z</time>
      </trkpt>
      <trkpt lat="43.82752" lon="7.06996">
        <ele>1175.35</ele>
        <time>2011-04-20T09:23:52Z</time>
      </trkpt>
      <trkpt lat="43.82766" lon="7.07014">
        <ele>1173.91</ele>
        <time>2011-04-20T09:24:09Z</time>
      </trkpt>
      <trkpt lat="43.82775" lon="7.07033">
        <ele>1171.02</ele>
        <time>2011-04-20T09:24:25Z</time>
      </trkpt>
      <trkpt lat="43.8278" lon="7.07046">
        <ele>1171.02</ele>
        <time>2011-04-20T09:24:31Z</time>
      </trkpt>
      <trkpt lat="43.82793" lon="7.07074">
        <ele>1171.02</ele>
        <time>2011-04-20T09:24:50Z</time>
      </trkpt>
      <trkpt lat="43.82799" lon="7.07105">
        <ele>1170.06</ele>
        <time>2011-04-20T09:25:08Z</time>
      </trkpt>
      <trkpt lat="43.82801" lon="7.07111">
        <ele>1168.14</ele>
        <time>2011-04-20T09:25:13Z</time>
      </trkpt>
      <trkpt lat="43.82806" lon="7.07125">
        <ele>1166.7</ele>
        <time>2011-04-20T09:25:22Z</time>
      </trkpt>
      <trkpt lat="43.82806" lon="7.07132">
        <ele>1167.66</ele>
        <time>2011-04-20T09:25:27Z</time>
      </trkpt>
      <trkpt lat="43.82809" lon="7.07155">
        <ele>1164.29</ele>
        <time>2011-04-20T09:25:44Z</time>
      </trkpt>
      <trkpt lat="43.82817" lon="7.07176">
        <ele>1163.33</ele>
        <time>2011-04-20T09:26:01Z</time>
      </trkpt>
      <trkpt lat="43.82821" lon="7.07188">
        <ele>1159.97</ele>
        <time>2011-04-20T09:26:10Z</time>
      </trkpt>
      <trkpt lat="43.82821" lon="7.0719">
        <ele>1159.97</ele>
        <time>2011-04-20T09:26:11Z</time>
      </trkpt>
      <trkpt lat="43.82824" lon="7.07214">
        <ele>1157.56</ele>
        <time>2011-04-20T09:26:24Z</time>
      </trkpt>
      <trkpt lat="43.82831" lon="7.07235">
        <ele>1153.72</ele>
        <time>2011-04-20T09:26:36Z</time>
      </trkpt>
      <trkpt lat="43.82834" lon="7.07247">
        <ele>1151.32</ele>
        <time>2011-04-20T09:26:44Z</time>
      </trkpt>
      <trkpt lat="43.82837" lon="7.07262">
        <ele>1150.84</ele>
        <time>2011-04-20T09:26:52Z</time>
      </trkpt>
      <trkpt lat="43.82841" lon="7.0728">
        <ele>1147.95</ele>
        <time>2011-04-20T09:27:06Z</time>
      </trkpt>
      <trkpt lat="43.82841" lon="7.07283">
        <ele>1146.99</ele>
        <time>2011-04-20T09:27:08Z</time>
      </trkpt>
      <trkpt lat="43.82847" lon="7.07303">
        <ele>1143.63</ele>
        <time>2011-04-20T09:27:21Z</time>
      </trkpt>
      <trkpt lat="43.82859" lon="7.07326">
        <ele>1140.26</ele>
        <time>2011-04-20T09:27:39Z</time>
      </trkpt>
      <trkpt lat="43.82861" lon="7.07335">
        <ele>1138.34</ele>
        <time>2011-04-20T09:27:46Z</time>
      </trkpt>
      <trkpt lat="43.82865" lon="7.07361">
        <ele>1137.38</ele>
        <time>2011-04-20T09:28:01Z</time>
      </trkpt>
      <trkpt lat="43.82875" lon="7.07392">
        <ele>1134.97</ele>
        <time>2011-04-20T09:28:20Z</time>
      </trkpt>
      <trkpt lat="43.82874" lon="7.07398">
        <ele>1134.97</ele>
        <time>2011-04-20T09:28:24Z</time>
      </trkpt>
      <trkpt lat="43.82874" lon="7.07425">
        <ele>1132.09</ele>
        <time>2011-04-20T09:28:40Z</time>
      </trkpt>
      <trkpt lat="43.82875" lon="7.07434">
        <ele>1129.69</ele>
        <time>2011-04-20T09:28:48Z</time>
      </trkpt>
      <trkpt lat="43.82875" lon="7.07441">
        <ele>1127.76</ele>
        <time>2011-04-20T09:28:53Z</time>
      </trkpt>
      <trkpt lat="43.82875" lon="7.07455">
        <ele>1124.88</ele>
        <time>2011-04-20T09:29:05Z</time>
      </trkpt>
      <trkpt lat="43.82875" lon="7.07457">
        <ele>1124.4</ele>
        <time>2011-04-20T09:29:06Z</time>
      </trkpt>
      <trkpt lat="43.82876" lon="7.07462">
        <ele>1122.48</ele>
        <time>2011-04-20T09:29:12Z</time>
      </trkpt>
      <trkpt lat="43.82881" lon="7.07476">
        <ele>1119.11</ele>
        <time>2011-04-20T09:29:24Z</time>
      </trkpt>
      <trkpt lat="43.82882" lon="7.0748">
        <ele>1118.15</ele>
        <time>2011-04-20T09:29:27Z</time>
      </trkpt>
      <trkpt lat="43.82882" lon="7.07481">
        <ele>1118.15</ele>
        <time>2011-04-20T09:29:29Z</time>
      </trkpt>
      <trkpt lat="43.82883" lon="7.07499">
        <ele>1116.71</ele>
        <time>2011-04-20T09:29:39Z</time>
      </trkpt>
      <trkpt lat="43.82882" lon="7.07503">
        <ele>1116.71</ele>
        <time>2011-04-20T09:29:43Z</time>
      </trkpt>
      <trkpt lat="43.82883" lon="7.07514">
        <ele>1117.19</ele>
        <time>2011-04-20T09:29:47Z</time>
      </trkpt>
      <trkpt lat="43.82885" lon="7.07523">
        <ele>1116.71</ele>
        <time>2011-04-20T09:29:52Z</time>
      </trkpt>
      <trkpt lat="43.82885" lon="7.07527">
        <ele>1116.23</ele>
        <time>2011-04-20T09:29:54Z</time>
      </trkpt>
      <trkpt lat="43.82883" lon="7.07548">
        <ele>1114.31</ele>
        <time>2011-04-20T09:30:08Z</time>
      </trkpt>
      <trkpt lat="43.82883" lon="7.07551">
        <ele>1113.34</ele>
        <time>2011-04-20T09:30:10Z</time>
      </trkpt>
      <trkpt lat="43.82888" lon="7.07574">
        <ele>1112.38</ele>
        <time>2011-04-20T09:30:25Z</time>
      </trkpt>
      <trkpt lat="43.82886" lon="7.07591">
        <ele>1109.98</ele>
        <time>2011-04-20T09:30:37Z</time>
      </trkpt>
      <trkpt lat="43.82881" lon="7.07614">
        <ele>1108.06</ele>
        <time>2011-04-20T09:30:51Z</time>
      </trkpt>
      <trkpt lat="43.82875" lon="7.07636">
        <ele>1106.61</ele>
        <time>2011-04-20T09:31:05Z</time>
      </trkpt>
      <trkpt lat="43.82873" lon="7.07645">
        <ele>1104.69</ele>
        <time>2011-04-20T09:31:11Z</time>
      </trkpt>
      <trkpt lat="43.82873" lon="7.07651">
        <ele>1104.21</ele>
        <time>2011-04-20T09:31:15Z</time>
      </trkpt>
      <trkpt lat="43.82873" lon="7.07663">
        <ele>1102.29</ele>
        <time>2011-04-20T09:31:25Z</time>
      </trkpt>
      <trkpt lat="43.82872" lon="7.07666">
        <ele>1101.33</ele>
        <time>2011-04-20T09:31:27Z</time>
      </trkpt>
      <trkpt lat="43.82871" lon="7.07669">
        <ele>1100.85</ele>
        <time>2011-04-20T09:31:29Z</time>
      </trkpt>
      <trkpt lat="43.82866" lon="7.0768">
        <ele>1099.4</ele>
        <time>2011-04-20T09:31:39Z</time>
      </trkpt>
      <trkpt lat="43.82861" lon="7.07699">
        <ele>1098.92</ele>
        <time>2011-04-20T09:31:53Z</time>
      </trkpt>
      <trkpt lat="43.82862" lon="7.07717">
        <ele>1097.96</ele>
        <time>2011-04-20T09:32:04Z</time>
      </trkpt>
      <trkpt lat="43.82863" lon="7.07727">
        <ele>1096.04</ele>
        <time>2011-04-20T09:32:10Z</time>
      </trkpt>
      <trkpt lat="43.82862" lon="7.07738">
        <ele>1097</ele>
        <time>2011-04-20T09:32:16Z</time>
      </trkpt>
      <trkpt lat="43.82862" lon="7.07749">
        <ele>1096.52</ele>
        <time>2011-04-20T09:32:24Z</time>
      </trkpt>
      <trkpt lat="43.82863" lon="7.07757">
        <ele>1095.56</ele>
        <time>2011-04-20T09:32:30Z</time>
      </trkpt>
      <trkpt lat="43.82868" lon="7.07776">
        <ele>1094.6</ele>
        <time>2011-04-20T09:32:44Z</time>
      </trkpt>
      <trkpt lat="43.82875" lon="7.07785">
        <ele>1091.23</ele>
        <time>2011-04-20T09:32:55Z</time>
      </trkpt>
      <trkpt lat="43.82884" lon="7.07791">
        <ele>1087.39</ele>
        <time>2011-04-20T09:33:05Z</time>
      </trkpt>
      <trkpt lat="43.82896" lon="7.07804">
        <ele>1084.99</ele>
        <time>2011-04-20T09:33:23Z</time>
      </trkpt>
      <trkpt lat="43.82905" lon="7.07816">
        <ele>1082.1</ele>
        <time>2011-04-20T09:33:37Z</time>
      </trkpt>
      <trkpt lat="43.82917" lon="7.07826">
        <ele>1080.66</ele>
        <time>2011-04-20T09:33:52Z</time>
      </trkpt>
      <trkpt lat="43.82923" lon="7.07826">
        <ele>1080.18</ele>
        <time>2011-04-20T09:33:55Z</time>
      </trkpt>
      <trkpt lat="43.82927" lon="7.07824">
        <ele>1080.18</ele>
        <time>2011-04-20T09:33:58Z</time>
      </trkpt>
      <trkpt lat="43.8293" lon="7.07825">
        <ele>1079.7</ele>
        <time>2011-04-20T09:34:04Z</time>
      </trkpt>
      <trkpt lat="43.82946" lon="7.07839">
        <ele>1078.74</ele>
        <time>2011-04-20T09:34:18Z</time>
      </trkpt>
      <trkpt lat="43.82947" lon="7.0784">
        <ele>1079.22</ele>
        <time>2011-04-20T09:34:19Z</time>
      </trkpt>
      <trkpt lat="43.82952" lon="7.07863">
        <ele>1077.78</ele>
        <time>2011-04-20T09:34:35Z</time>
      </trkpt>
      <trkpt lat="43.82953" lon="7.07868">
        <ele>1077.29</ele>
        <time>2011-04-20T09:34:39Z</time>
      </trkpt>
      <trkpt lat="43.82954" lon="7.07879">
        <ele>1077.29</ele>
        <time>2011-04-20T09:34:55Z</time>
      </trkpt>
      <trkpt lat="43.82954" lon="7.07884">
        <ele>1077.29</ele>
        <time>2011-04-20T09:35:03Z</time>
      </trkpt>
      <trkpt lat="43.82961" lon="7.07903">
        <ele>1078.26</ele>
        <time>2011-04-20T09:35:14Z</time>
      </trkpt>
      <trkpt lat="43.82959" lon="7.07932">
        <ele>1080.18</ele>
        <time>2011-04-20T09:35:31Z</time>
      </trkpt>
      <trkpt lat="43.82958" lon="7.07935">
        <ele>1079.7</ele>
        <time>2011-04-20T09:35:33Z</time>
      </trkpt>
      <trkpt lat="43.8296" lon="7.07962">
        <ele>1081.14</ele>
        <time>2011-04-20T09:35:49Z</time>
      </trkpt>
      <trkpt lat="43.82958" lon="7.07989">
        <ele>1081.14</ele>
        <time>2011-04-20T09:36:05Z</time>
      </trkpt>
      <trkpt lat="43.82957" lon="7.08013">
        <ele>1081.14</ele>
        <time>2011-04-20T09:36:20Z</time>
      </trkpt>
      <trkpt lat="43.82959" lon="7.08034">
        <ele>1078.74</ele>
        <time>2011-04-20T09:36:36Z</time>
      </trkpt>
      <trkpt lat="43.8296" lon="7.08041">
        <ele>1078.26</ele>
        <time>2011-04-20T09:36:40Z</time>
      </trkpt>
      <trkpt lat="43.82964" lon="7.08059">
        <ele>1074.89</ele>
        <time>2011-04-20T09:36:52Z</time>
      </trkpt>
      <trkpt lat="43.82968" lon="7.08072">
        <ele>1072.97</ele>
        <time>2011-04-20T09:37:03Z</time>
      </trkpt>
      <trkpt lat="43.82972" lon="7.08093">
        <ele>1071.05</ele>
        <time>2011-04-20T09:37:20Z</time>
      </trkpt>
      <trkpt lat="43.82975" lon="7.08107">
        <ele>1069.6</ele>
        <time>2011-04-20T09:37:27Z</time>
      </trkpt>
      <trkpt lat="43.8298" lon="7.08132">
        <ele>1069.6</ele>
        <time>2011-04-20T09:37:40Z</time>
      </trkpt>
      <trkpt lat="43.82988" lon="7.08146">
        <ele>1070.08</ele>
        <time>2011-04-20T09:37:49Z</time>
      </trkpt>
      <trkpt lat="43.82988" lon="7.08149">
        <ele>1069.12</ele>
        <time>2011-04-20T09:37:51Z</time>
      </trkpt>
      <trkpt lat="43.82996" lon="7.08168">
        <ele>1066.24</ele>
        <time>2011-04-20T09:38:08Z</time>
      </trkpt>
      <trkpt lat="43.83001" lon="7.08179">
        <ele>1065.28</ele>
        <time>2011-04-20T09:38:16Z</time>
      </trkpt>
      <trkpt lat="43.83004" lon="7.08204">
        <ele>1064.32</ele>
        <time>2011-04-20T09:38:29Z</time>
      </trkpt>
      <trkpt lat="43.83006" lon="7.0823">
        <ele>1062.87</ele>
        <time>2011-04-20T09:38:44Z</time>
      </trkpt>
      <trkpt lat="43.83008" lon="7.08244">
        <ele>1061.43</ele>
        <time>2011-04-20T09:38:53Z</time>
      </trkpt>
      <trkpt lat="43.83013" lon="7.08268">
        <ele>1060.47</ele>
        <time>2011-04-20T09:39:08Z</time>
      </trkpt>
      <trkpt lat="43.83015" lon="7.08291">
        <ele>1059.51</ele>
        <time>2011-04-20T09:39:19Z</time>
      </trkpt>
      <trkpt lat="43.83016" lon="7.08298">
        <ele>1059.03</ele>
        <time>2011-04-20T09:39:23Z</time>
      </trkpt>
      <trkpt lat="43.83025" lon="7.08317">
        <ele>1056.63</ele>
        <time>2011-04-20T09:39:39Z</time>
      </trkpt>
      <trkpt lat="43.8303" lon="7.08345">
        <ele>1055.18</ele>
        <time>2011-04-20T09:39:55Z</time>
      </trkpt>
      <trkpt lat="43.83031" lon="7.08374">
        <ele>1054.22</ele>
        <time>2011-04-20T09:40:13Z</time>
      </trkpt>
      <trkpt lat="43.83028" lon="7.08397">
        <ele>1055.18</ele>
        <time>2011-04-20T09:40:27Z</time>
      </trkpt>
      <trkpt lat="43.83029" lon="7.08424">
        <ele>1054.22</ele>
        <time>2011-04-20T09:40:43Z</time>
      </trkpt>
      <trkpt lat="43.83036" lon="7.08433">
        <ele>1051.82</ele>
        <time>2011-04-20T09:40:53Z</time>
      </trkpt>
      <trkpt lat="43.83042" lon="7.08439">
        <ele>1051.34</ele>
        <time>2011-04-20T09:41:11Z</time>
      </trkpt>
      <trkpt lat="43.83049" lon="7.08437">
        <ele>1050.38</ele>
        <time>2011-04-20T09:41:28Z</time>
      </trkpt>
      <trkpt lat="43.83059" lon="7.08437">
        <ele>1047.97</ele>
        <time>2011-04-20T09:41:39Z</time>
      </trkpt>
      <trkpt lat="43.83069" lon="7.08446">
        <ele>1045.57</ele>
        <time>2011-04-20T09:41:51Z</time>
      </trkpt>
      <trkpt lat="43.83089" lon="7.08458">
        <ele>1041.73</ele>
        <time>2011-04-20T09:42:07Z</time>
      </trkpt>
      <trkpt lat="43.83097" lon="7.0847">
        <ele>1038.84</ele>
        <time>2011-04-20T09:42:17Z</time>
      </trkpt>
      <trkpt lat="43.83101" lon="7.08477">
        <ele>1037.88</ele>
        <time>2011-04-20T09:42:26Z</time>
      </trkpt>
      <trkpt lat="43.83116" lon="7.08475">
        <ele>1035.48</ele>
        <time>2011-04-20T09:42:41Z</time>
      </trkpt>
      <trkpt lat="43.83121" lon="7.0847">
        <ele>1034.04</ele>
        <time>2011-04-20T09:42:48Z</time>
      </trkpt>
      <trkpt lat="43.83127" lon="7.08462">
        <ele>1034.52</ele>
        <time>2011-04-20T09:42:56Z</time>
      </trkpt>
      <trkpt lat="43.83133" lon="7.08462">
        <ele>1033.07</ele>
        <time>2011-04-20T09:43:02Z</time>
      </trkpt>
      <trkpt lat="43.83134" lon="7.08465">
        <ele>1032.59</ele>
        <time>2011-04-20T09:43:04Z</time>
      </trkpt>
      <trkpt lat="43.8315" lon="7.08479">
        <ele>1028.75</ele>
        <time>2011-04-20T09:43:20Z</time>
      </trkpt>
      <trkpt lat="43.83159" lon="7.08496">
        <ele>1027.31</ele>
        <time>2011-04-20T09:43:34Z</time>
      </trkpt>
      <trkpt lat="43.83161" lon="7.08499">
        <ele>1026.83</ele>
        <time>2011-04-20T09:43:37Z</time>
      </trkpt>
      <trkpt lat="43.8317" lon="7.08525">
        <ele>1024.42</ele>
        <time>2011-04-20T09:43:55Z</time>
      </trkpt>
      <trkpt lat="43.83174" lon="7.08533">
        <ele>1022.5</ele>
        <time>2011-04-20T09:44:02Z</time>
      </trkpt>
      <trkpt lat="43.83184" lon="7.08552">
        <ele>1020.1</ele>
        <time>2011-04-20T09:44:16Z</time>
      </trkpt>
      <trkpt lat="43.83189" lon="7.0857">
        <ele>1016.73</ele>
        <time>2011-04-20T09:44:29Z</time>
      </trkpt>
      <trkpt lat="43.83194" lon="7.08577">
        <ele>1015.29</ele>
        <time>2011-04-20T09:44:37Z</time>
      </trkpt>
      <trkpt lat="43.83196" lon="7.08588">
        <ele>1012.41</ele>
        <time>2011-04-20T09:44:46Z</time>
      </trkpt>
      <trkpt lat="43.83197" lon="7.08592">
        <ele>1012.41</ele>
        <time>2011-04-20T09:44:48Z</time>
      </trkpt>
      <trkpt lat="43.83195" lon="7.08603">
        <ele>1010.96</ele>
        <time>2011-04-20T09:45:02Z</time>
      </trkpt>
      <trkpt lat="43.83197" lon="7.08605">
        <ele>1010</ele>
        <time>2011-04-20T09:45:18Z</time>
      </trkpt>
      <trkpt lat="43.83197" lon="7.08611">
        <ele>1007.6</ele>
        <time>2011-04-20T09:45:35Z</time>
      </trkpt>
      <trkpt lat="43.83196" lon="7.08614">
        <ele>1006.64</ele>
        <time>2011-04-20T09:45:40Z</time>
      </trkpt>
      <trkpt lat="43.83197" lon="7.08619">
        <ele>1005.68</ele>
        <time>2011-04-20T09:45:44Z</time>
      </trkpt>
      <trkpt lat="43.83198" lon="7.08631">
        <ele>1003.27</ele>
        <time>2011-04-20T09:45:54Z</time>
      </trkpt>
      <trkpt lat="43.83198" lon="7.08651">
        <ele>1000.39</ele>
        <time>2011-04-20T09:46:07Z</time>
      </trkpt>
      <trkpt lat="43.83193" lon="7.08663">
        <ele>997.99</ele>
        <time>2011-04-20T09:46:21Z</time>
      </trkpt>
      <trkpt lat="43.83193" lon="7.08663">
        <ele>998.47</ele>
        <time>2011-04-20T09:46:30Z</time>
      </trkpt>
      <trkpt lat="43.83192" lon="7.08665">
        <ele>996.54</ele>
        <time>2011-04-20T09:46:44Z</time>
      </trkpt>
      <trkpt lat="43.83191" lon="7.08671">
        <ele>995.1</ele>
        <time>2011-04-20T09:46:49Z</time>
      </trkpt>
      <trkpt lat="43.83206" lon="7.08692">
        <ele>992.22</ele>
        <time>2011-04-20T09:47:04Z</time>
      </trkpt>
      <trkpt lat="43.8322" lon="7.08719">
        <ele>991.26</ele>
        <time>2011-04-20T09:47:20Z</time>
      </trkpt>
      <trkpt lat="43.83228" lon="7.08741">
        <ele>989.33</ele>
        <time>2011-04-20T09:47:35Z</time>
      </trkpt>
      <trkpt lat="43.83234" lon="7.08772">
        <ele>988.37</ele>
        <time>2011-04-20T09:47:52Z</time>
      </trkpt>
      <trkpt lat="43.83241" lon="7.08795">
        <ele>987.41</ele>
        <time>2011-04-20T09:48:07Z</time>
      </trkpt>
      <trkpt lat="43.83254" lon="7.08823">
        <ele>985.01</ele>
        <time>2011-04-20T09:48:24Z</time>
      </trkpt>
      <trkpt lat="43.83258" lon="7.08842">
        <ele>983.57</ele>
        <time>2011-04-20T09:48:35Z</time>
      </trkpt>
      <trkpt lat="43.83265" lon="7.08861">
        <ele>980.68</ele>
        <time>2011-04-20T09:48:49Z</time>
      </trkpt>
      <trkpt lat="43.83271" lon="7.0887">
        <ele>978.76</ele>
        <time>2011-04-20T09:48:57Z</time>
      </trkpt>
      <trkpt lat="43.83276" lon="7.08883">
        <ele>975.39</ele>
        <time>2011-04-20T09:49:07Z</time>
      </trkpt>
      <trkpt lat="43.83278" lon="7.08891">
        <ele>974.43</ele>
        <time>2011-04-20T09:49:13Z</time>
      </trkpt>
      <trkpt lat="43.83281" lon="7.08903">
        <ele>972.51</ele>
        <time>2011-04-20T09:49:21Z</time>
      </trkpt>
      <trkpt lat="43.83282" lon="7.08909">
        <ele>971.07</ele>
        <time>2011-04-20T09:49:24Z</time>
      </trkpt>
      <trkpt lat="43.83287" lon="7.08918">
        <ele>969.63</ele>
        <time>2011-04-20T09:49:31Z</time>
      </trkpt>
      <trkpt lat="43.83293" lon="7.08926">
        <ele>967.7</ele>
        <time>2011-04-20T09:49:38Z</time>
      </trkpt>
      <trkpt lat="43.833" lon="7.08942">
        <ele>965.78</ele>
        <time>2011-04-20T09:49:52Z</time>
      </trkpt>
      <trkpt lat="43.833" lon="7.08942">
        <ele>965.3</ele>
        <time>2011-04-20T09:50:11Z</time>
      </trkpt>
      <trkpt lat="43.833" lon="7.08942">
        <ele>965.78</ele>
        <time>2011-04-20T09:50:38Z</time>
      </trkpt>
      <trkpt lat="43.833" lon="7.08942">
        <ele>966.26</ele>
        <time>2011-04-20T09:51:03Z</time>
      </trkpt>
      <trkpt lat="43.83299" lon="7.08943">
        <ele>967.22</ele>
        <time>2011-04-20T09:51:16Z</time>
      </trkpt>
      <trkpt lat="43.83295" lon="7.08948">
        <ele>965.3</ele>
        <time>2011-04-20T09:51:31Z</time>
      </trkpt>
      <trkpt lat="43.83294" lon="7.08952">
        <ele>965.3</ele>
        <time>2011-04-20T09:51:33Z</time>
      </trkpt>
      <trkpt lat="43.83299" lon="7.08975">
        <ele>962.42</ele>
        <time>2011-04-20T09:51:49Z</time>
      </trkpt>
      <trkpt lat="43.83309" lon="7.08992">
        <ele>960.98</ele>
        <time>2011-04-20T09:52:03Z</time>
      </trkpt>
      <trkpt lat="43.83313" lon="7.09008">
        <ele>957.61</ele>
        <time>2011-04-20T09:52:20Z</time>
      </trkpt>
      <trkpt lat="43.83314" lon="7.09011">
        <ele>957.13</ele>
        <time>2011-04-20T09:52:23Z</time>
      </trkpt>
      <trkpt lat="43.8332" lon="7.09032">
        <ele>954.25</ele>
        <time>2011-04-20T09:52:41Z</time>
      </trkpt>
      <trkpt lat="43.8333" lon="7.09051">
        <ele>951.36</ele>
        <time>2011-04-20T09:52:58Z</time>
      </trkpt>
      <trkpt lat="43.83337" lon="7.09068">
        <ele>949.44</ele>
        <time>2011-04-20T09:53:13Z</time>
      </trkpt>
      <trkpt lat="43.83345" lon="7.09087">
        <ele>947.04</ele>
        <time>2011-04-20T09:53:27Z</time>
      </trkpt>
      <trkpt lat="43.83346" lon="7.09093">
        <ele>946.56</ele>
        <time>2011-04-20T09:53:31Z</time>
      </trkpt>
      <trkpt lat="43.83348" lon="7.09117">
        <ele>944.63</ele>
        <time>2011-04-20T09:53:48Z</time>
      </trkpt>
      <trkpt lat="43.83352" lon="7.09132">
        <ele>941.75</ele>
        <time>2011-04-20T09:54:02Z</time>
      </trkpt>
      <trkpt lat="43.83359" lon="7.0915">
        <ele>938.86</ele>
        <time>2011-04-20T09:54:19Z</time>
      </trkpt>
      <trkpt lat="43.83359" lon="7.09151">
        <ele>939.83</ele>
        <time>2011-04-20T09:54:20Z</time>
      </trkpt>
      <trkpt lat="43.83362" lon="7.09156">
        <ele>939.35</ele>
        <time>2011-04-20T09:54:24Z</time>
      </trkpt>
      <trkpt lat="43.83377" lon="7.09173">
        <ele>935.98</ele>
        <time>2011-04-20T09:54:41Z</time>
      </trkpt>
      <trkpt lat="43.83381" lon="7.09176">
        <ele>934.54</ele>
        <time>2011-04-20T09:54:46Z</time>
      </trkpt>
      <trkpt lat="43.83383" lon="7.09178">
        <ele>935.02</ele>
        <time>2011-04-20T09:54:48Z</time>
      </trkpt>
      <trkpt lat="43.83384" lon="7.0918">
        <ele>933.58</ele>
        <time>2011-04-20T09:54:51Z</time>
      </trkpt>
      <trkpt lat="43.8339" lon="7.09188">
        <ele>932.62</ele>
        <time>2011-04-20T09:55:00Z</time>
      </trkpt>
      <trkpt lat="43.83393" lon="7.09189">
        <ele>931.17</ele>
        <time>2011-04-20T09:55:02Z</time>
      </trkpt>
      <trkpt lat="43.83396" lon="7.09189">
        <ele>931.65</ele>
        <time>2011-04-20T09:55:06Z</time>
      </trkpt>
      <trkpt lat="43.83404" lon="7.09181">
        <ele>929.73</ele>
        <time>2011-04-20T09:55:17Z</time>
      </trkpt>
      <trkpt lat="43.8341" lon="7.09178">
        <ele>927.81</ele>
        <time>2011-04-20T09:55:24Z</time>
      </trkpt>
      <trkpt lat="43.83412" lon="7.09179">
        <ele>927.81</ele>
        <time>2011-04-20T09:55:26Z</time>
      </trkpt>
      <trkpt lat="43.83417" lon="7.09187">
        <ele>926.37</ele>
        <time>2011-04-20T09:55:35Z</time>
      </trkpt>
      <trkpt lat="43.83429" lon="7.09202">
        <ele>923.96</ele>
        <time>2011-04-20T09:55:50Z</time>
      </trkpt>
      <trkpt lat="43.83432" lon="7.09206">
        <ele>923</ele>
        <time>2011-04-20T09:55:53Z</time>
      </trkpt>
      <trkpt lat="43.83439" lon="7.09211">
        <ele>921.56</ele>
        <time>2011-04-20T09:56:00Z</time>
      </trkpt>
      <trkpt lat="43.83447" lon="7.09217">
        <ele>918.68</ele>
        <time>2011-04-20T09:56:08Z</time>
      </trkpt>
      <trkpt lat="43.83447" lon="7.09216">
        <ele>920.12</ele>
        <time>2011-04-20T09:56:09Z</time>
      </trkpt>
      <trkpt lat="43.83454" lon="7.09217">
        <ele>918.68</ele>
        <time>2011-04-20T09:56:17Z</time>
      </trkpt>
      <trkpt lat="43.83456" lon="7.09218">
        <ele>918.2</ele>
        <time>2011-04-20T09:56:19Z</time>
      </trkpt>
      <trkpt lat="43.83461" lon="7.09227">
        <ele>916.75</ele>
        <time>2011-04-20T09:56:25Z</time>
      </trkpt>
      <trkpt lat="43.83472" lon="7.09249">
        <ele>914.83</ele>
        <time>2011-04-20T09:56:41Z</time>
      </trkpt>
      <trkpt lat="43.83477" lon="7.09261">
        <ele>912.91</ele>
        <time>2011-04-20T09:56:52Z</time>
      </trkpt>
      <trkpt lat="43.8348" lon="7.09268">
        <ele>910.99</ele>
        <time>2011-04-20T09:57:00Z</time>
      </trkpt>
      <trkpt lat="43.83485" lon="7.09275">
        <ele>908.58</ele>
        <time>2011-04-20T09:57:10Z</time>
      </trkpt>
      <trkpt lat="43.8349" lon="7.09286">
        <ele>906.66</ele>
        <time>2011-04-20T09:57:18Z</time>
      </trkpt>
      <trkpt lat="43.83489" lon="7.09305">
        <ele>903.3</ele>
        <time>2011-04-20T09:57:32Z</time>
      </trkpt>
      <trkpt lat="43.83493" lon="7.09315">
        <ele>901.37</ele>
        <time>2011-04-20T09:57:45Z</time>
      </trkpt>
      <trkpt lat="43.83501" lon="7.0931">
        <ele>900.89</ele>
        <time>2011-04-20T09:57:53Z</time>
      </trkpt>
      <trkpt lat="43.83512" lon="7.09306">
        <ele>900.41</ele>
        <time>2011-04-20T09:58:05Z</time>
      </trkpt>
      <trkpt lat="43.83511" lon="7.0931">
        <ele>898.97</ele>
        <time>2011-04-20T09:58:09Z</time>
      </trkpt>
      <trkpt lat="43.83506" lon="7.09322">
        <ele>897.05</ele>
        <time>2011-04-20T09:58:23Z</time>
      </trkpt>
      <trkpt lat="43.83506" lon="7.09323">
        <ele>897.05</ele>
        <time>2011-04-20T09:58:25Z</time>
      </trkpt>
      <trkpt lat="43.83506" lon="7.09326">
        <ele>897.05</ele>
        <time>2011-04-20T09:58:28Z</time>
      </trkpt>
      <trkpt lat="43.835" lon="7.09347">
        <ele>894.16</ele>
        <time>2011-04-20T09:58:43Z</time>
      </trkpt>
      <trkpt lat="43.83499" lon="7.09351">
        <ele>893.68</ele>
        <time>2011-04-20T09:58:46Z</time>
      </trkpt>
      <trkpt lat="43.83499" lon="7.09354">
        <ele>892.72</ele>
        <time>2011-04-20T09:58:48Z</time>
      </trkpt>
      <trkpt lat="43.83497" lon="7.09377">
        <ele>891.28</ele>
        <time>2011-04-20T09:59:02Z</time>
      </trkpt>
      <trkpt lat="43.83497" lon="7.0939">
        <ele>890.32</ele>
        <time>2011-04-20T09:59:16Z</time>
      </trkpt>
      <trkpt lat="43.83496" lon="7.09407">
        <ele>889.36</ele>
        <time>2011-04-20T09:59:24Z</time>
      </trkpt>
      <trkpt lat="43.83495" lon="7.09414">
        <ele>887.91</ele>
        <time>2011-04-20T09:59:28Z</time>
      </trkpt>
      <trkpt lat="43.835" lon="7.09442">
        <ele>886.47</ele>
        <time>2011-04-20T09:59:45Z</time>
      </trkpt>
      <trkpt lat="43.83507" lon="7.09465">
        <ele>885.03</ele>
        <time>2011-04-20T10:00:00Z</time>
      </trkpt>
      <trkpt lat="43.83517" lon="7.09467">
        <ele>882.63</ele>
        <time>2011-04-20T10:00:15Z</time>
      </trkpt>
      <trkpt lat="43.83518" lon="7.09465">
        <ele>882.63</ele>
        <time>2011-04-20T10:00:32Z</time>
      </trkpt>
      <trkpt lat="43.83525" lon="7.09458">
        <ele>881.67</ele>
        <time>2011-04-20T10:00:52Z</time>
      </trkpt>
      <trkpt lat="43.83527" lon="7.09457">
        <ele>879.26</ele>
        <time>2011-04-20T10:00:56Z</time>
      </trkpt>
      <trkpt lat="43.83538" lon="7.09461">
        <ele>878.3</ele>
        <time>2011-04-20T10:01:06Z</time>
      </trkpt>
      <trkpt lat="43.83542" lon="7.09465">
        <ele>877.34</ele>
        <time>2011-04-20T10:01:11Z</time>
      </trkpt>
      <trkpt lat="43.83552" lon="7.09478">
        <ele>875.9</ele>
        <time>2011-04-20T10:01:26Z</time>
      </trkpt>
      <trkpt lat="43.83555" lon="7.09478">
        <ele>875.9</ele>
        <time>2011-04-20T10:01:29Z</time>
      </trkpt>
      <trkpt lat="43.83568" lon="7.09471">
        <ele>873.98</ele>
        <time>2011-04-20T10:01:42Z</time>
      </trkpt>
      <trkpt lat="43.8357" lon="7.09462">
        <ele>873.01</ele>
        <time>2011-04-20T10:01:48Z</time>
      </trkpt>
      <trkpt lat="43.83577" lon="7.09454">
        <ele>871.09</ele>
        <time>2011-04-20T10:01:57Z</time>
      </trkpt>
      <trkpt lat="43.83592" lon="7.09444">
        <ele>867.73</ele>
        <time>2011-04-20T10:02:13Z</time>
      </trkpt>
      <trkpt lat="43.83601" lon="7.09436">
        <ele>866.29</ele>
        <time>2011-04-20T10:02:24Z</time>
      </trkpt>
      <trkpt lat="43.83604" lon="7.09432">
        <ele>864.84</ele>
        <time>2011-04-20T10:02:29Z</time>
      </trkpt>
      <trkpt lat="43.83607" lon="7.0943">
        <ele>864.84</ele>
        <time>2011-04-20T10:02:32Z</time>
      </trkpt>
      <trkpt lat="43.83622" lon="7.0942">
        <ele>861.48</ele>
        <time>2011-04-20T10:02:49Z</time>
      </trkpt>
      <trkpt lat="43.83635" lon="7.09411">
        <ele>858.59</ele>
        <time>2011-04-20T10:03:03Z</time>
      </trkpt>
      <trkpt lat="43.83641" lon="7.09404">
        <ele>857.15</ele>
        <time>2011-04-20T10:03:19Z</time>
      </trkpt>
      <trkpt lat="43.83641" lon="7.09403">
        <ele>857.15</ele>
        <time>2011-04-20T10:03:48Z</time>
      </trkpt>
      <trkpt lat="43.8365" lon="7.09393">
        <ele>854.75</ele>
        <time>2011-04-20T10:04:02Z</time>
      </trkpt>
      <trkpt lat="43.83663" lon="7.09376">
        <ele>853.31</ele>
        <time>2011-04-20T10:04:17Z</time>
      </trkpt>
      <trkpt lat="43.83675" lon="7.09361">
        <ele>850.9</ele>
        <time>2011-04-20T10:04:32Z</time>
      </trkpt>
      <trkpt lat="43.83683" lon="7.09356">
        <ele>850.9</ele>
        <time>2011-04-20T10:04:39Z</time>
      </trkpt>
      <trkpt lat="43.83696" lon="7.09348">
        <ele>849.46</ele>
        <time>2011-04-20T10:04:54Z</time>
      </trkpt>
      <trkpt lat="43.83707" lon="7.09344">
        <ele>846.58</ele>
        <time>2011-04-20T10:05:09Z</time>
      </trkpt>
      <trkpt lat="43.83718" lon="7.09339">
        <ele>843.69</ele>
        <time>2011-04-20T10:05:24Z</time>
      </trkpt>
      <trkpt lat="43.83722" lon="7.09338">
        <ele>842.73</ele>
        <time>2011-04-20T10:05:39Z</time>
      </trkpt>
      <trkpt lat="43.83722" lon="7.09338">
        <ele>842.25</ele>
        <time>2011-04-20T10:06:00Z</time>
      </trkpt>
      <trkpt lat="43.83722" lon="7.09338">
        <ele>842.73</ele>
        <time>2011-04-20T10:06:23Z</time>
      </trkpt>
      <trkpt lat="43.83722" lon="7.09338">
        <ele>842.25</ele>
        <time>2011-04-20T10:06:51Z</time>
      </trkpt>
      <trkpt lat="43.83722" lon="7.09338">
        <ele>841.77</ele>
        <time>2011-04-20T10:07:17Z</time>
      </trkpt>
      <trkpt lat="43.83723" lon="7.09336">
        <ele>842.25</ele>
        <time>2011-04-20T10:07:46Z</time>
      </trkpt>
      <trkpt lat="43.83723" lon="7.09336">
        <ele>842.25</ele>
        <time>2011-04-20T10:08:22Z</time>
      </trkpt>
      <trkpt lat="43.83724" lon="7.09335">
        <ele>841.29</ele>
        <time>2011-04-20T10:08:53Z</time>
      </trkpt>
      <trkpt lat="43.83724" lon="7.09335">
        <ele>841.29</ele>
        <time>2011-04-20T10:09:17Z</time>
      </trkpt>
      <trkpt lat="43.83725" lon="7.09335">
        <ele>841.77</ele>
        <time>2011-04-20T10:09:37Z</time>
      </trkpt>
      <trkpt lat="43.83725" lon="7.09335">
        <ele>840.81</ele>
        <time>2011-04-20T10:10:02Z</time>
      </trkpt>
      <trkpt lat="43.83725" lon="7.09335">
        <ele>840.81</ele>
        <time>2011-04-20T10:10:26Z</time>
      </trkpt>
      <trkpt lat="43.83725" lon="7.09335">
        <ele>841.77</ele>
        <time>2011-04-20T10:10:53Z</time>
      </trkpt>
      <trkpt lat="43.83725" lon="7.09335">
        <ele>841.29</ele>
        <time>2011-04-20T10:11:26Z</time>
      </trkpt>
      <trkpt lat="43.83728" lon="7.09337">
        <ele>840.81</ele>
        <time>2011-04-20T10:11:43Z</time>
      </trkpt>
      <trkpt lat="43.83745" lon="7.09348">
        <ele>841.29</ele>
        <time>2011-04-20T10:12:01Z</time>
      </trkpt>
      <trkpt lat="43.83757" lon="7.09367">
        <ele>840.81</ele>
        <time>2011-04-20T10:12:18Z</time>
      </trkpt>
      <trkpt lat="43.83765" lon="7.09389">
        <ele>841.29</ele>
        <time>2011-04-20T10:12:34Z</time>
      </trkpt>
      <trkpt lat="43.83769" lon="7.09415">
        <ele>841.29</ele>
        <time>2011-04-20T10:12:50Z</time>
      </trkpt>
      <trkpt lat="43.83773" lon="7.09435">
        <ele>840.81</ele>
        <time>2011-04-20T10:13:04Z</time>
      </trkpt>
      <trkpt lat="43.83781" lon="7.09459">
        <ele>840.81</ele>
        <time>2011-04-20T10:13:20Z</time>
      </trkpt>
      <trkpt lat="43.83788" lon="7.09482">
        <ele>840.81</ele>
        <time>2011-04-20T10:13:35Z</time>
      </trkpt>
      <trkpt lat="43.83796" lon="7.09508">
        <ele>841.29</ele>
        <time>2011-04-20T10:13:51Z</time>
      </trkpt>
      <trkpt lat="43.83798" lon="7.0953">
        <ele>841.29</ele>
        <time>2011-04-20T10:14:05Z</time>
      </trkpt>
      <trkpt lat="43.83801" lon="7.09549">
        <ele>840.81</ele>
        <time>2011-04-20T10:14:17Z</time>
      </trkpt>
      <trkpt lat="43.83807" lon="7.09573">
        <ele>840.81</ele>
        <time>2011-04-20T10:14:32Z</time>
      </trkpt>
      <trkpt lat="43.83808" lon="7.09574">
        <ele>841.29</ele>
        <time>2011-04-20T10:14:33Z</time>
      </trkpt>
      <trkpt lat="43.8381" lon="7.09582">
        <ele>840.81</ele>
        <time>2011-04-20T10:14:38Z</time>
      </trkpt>
      <trkpt lat="43.83815" lon="7.09609">
        <ele>841.29</ele>
        <time>2011-04-20T10:14:55Z</time>
      </trkpt>
      <trkpt lat="43.8382" lon="7.09632">
        <ele>841.29</ele>
        <time>2011-04-20T10:15:09Z</time>
      </trkpt>
      <trkpt lat="43.83825" lon="7.09659">
        <ele>840.81</ele>
        <time>2011-04-20T10:15:25Z</time>
      </trkpt>
      <trkpt lat="43.8383" lon="7.09682">
        <ele>840.81</ele>
        <time>2011-04-20T10:15:39Z</time>
      </trkpt>
      <trkpt lat="43.83835" lon="7.09707">
        <ele>840.81</ele>
        <time>2011-04-20T10:15:54Z</time>
      </trkpt>
      <trkpt lat="43.83837" lon="7.09734">
        <ele>841.29</ele>
        <time>2011-04-20T10:16:10Z</time>
      </trkpt>
      <trkpt lat="43.83836" lon="7.09755">
        <ele>839.85</ele>
        <time>2011-04-20T10:16:24Z</time>
      </trkpt>
      <trkpt lat="43.83837" lon="7.09782">
        <ele>839.85</ele>
        <time>2011-04-20T10:16:40Z</time>
      </trkpt>
      <trkpt lat="43.83844" lon="7.09806">
        <ele>839.85</ele>
        <time>2011-04-20T10:16:55Z</time>
      </trkpt>
      <trkpt lat="43.83852" lon="7.0983">
        <ele>839.37</ele>
        <time>2011-04-20T10:17:11Z</time>
      </trkpt>
      <trkpt lat="43.83859" lon="7.09851">
        <ele>839.85</ele>
        <time>2011-04-20T10:17:25Z</time>
      </trkpt>
      <trkpt lat="43.83868" lon="7.09872">
        <ele>840.33</ele>
        <time>2011-04-20T10:17:40Z</time>
      </trkpt>
      <trkpt lat="43.83881" lon="7.09898">
        <ele>840.33</ele>
        <time>2011-04-20T10:17:58Z</time>
      </trkpt>
      <trkpt lat="43.83891" lon="7.09921">
        <ele>840.81</ele>
        <time>2011-04-20T10:18:14Z</time>
      </trkpt>
      <trkpt lat="43.83902" lon="7.09943">
        <ele>840.33</ele>
        <time>2011-04-20T10:18:30Z</time>
      </trkpt>
      <trkpt lat="43.83911" lon="7.09967">
        <ele>840.81</ele>
        <time>2011-04-20T10:18:47Z</time>
      </trkpt>
      <trkpt lat="43.83911" lon="7.0997">
        <ele>840.81</ele>
        <time>2011-04-20T10:18:49Z</time>
      </trkpt>
      <trkpt lat="43.83917" lon="7.09994">
        <ele>840.33</ele>
        <time>2011-04-20T10:19:05Z</time>
      </trkpt>
      <trkpt lat="43.83921" lon="7.1002">
        <ele>840.81</ele>
        <time>2011-04-20T10:19:21Z</time>
      </trkpt>
      <trkpt lat="43.83926" lon="7.10045">
        <ele>840.81</ele>
        <time>2011-04-20T10:19:37Z</time>
      </trkpt>
      <trkpt lat="43.83931" lon="7.10068">
        <ele>840.33</ele>
        <time>2011-04-20T10:19:52Z</time>
      </trkpt>
      <trkpt lat="43.83932" lon="7.10095">
        <ele>840.33</ele>
        <time>2011-04-20T10:20:08Z</time>
      </trkpt>
      <trkpt lat="43.83931" lon="7.10102">
        <ele>839.85</ele>
        <time>2011-04-20T10:20:12Z</time>
      </trkpt>
      <trkpt lat="43.83933" lon="7.10129">
        <ele>840.81</ele>
        <time>2011-04-20T10:20:29Z</time>
      </trkpt>
      <trkpt lat="43.83936" lon="7.10152">
        <ele>839.85</ele>
        <time>2011-04-20T10:20:44Z</time>
      </trkpt>
      <trkpt lat="43.83939" lon="7.1018">
        <ele>839.37</ele>
        <time>2011-04-20T10:21:01Z</time>
      </trkpt>
      <trkpt lat="43.8394" lon="7.10204">
        <ele>839.37</ele>
        <time>2011-04-20T10:21:16Z</time>
      </trkpt>
      <trkpt lat="43.83947" lon="7.10227">
        <ele>839.37</ele>
        <time>2011-04-20T10:21:31Z</time>
      </trkpt>
      <trkpt lat="43.83955" lon="7.1025">
        <ele>838.89</ele>
        <time>2011-04-20T10:21:47Z</time>
      </trkpt>
      <trkpt lat="43.83963" lon="7.10271">
        <ele>838.89</ele>
        <time>2011-04-20T10:22:02Z</time>
      </trkpt>
      <trkpt lat="43.8397" lon="7.10287">
        <ele>838.89</ele>
        <time>2011-04-20T10:22:14Z</time>
      </trkpt>
      <trkpt lat="43.83975" lon="7.10297">
        <ele>838.41</ele>
        <time>2011-04-20T10:22:21Z</time>
      </trkpt>
      <trkpt lat="43.83986" lon="7.1032">
        <ele>837.93</ele>
        <time>2011-04-20T10:22:37Z</time>
      </trkpt>
      <trkpt lat="43.83996" lon="7.10343">
        <ele>838.41</ele>
        <time>2011-04-20T10:22:53Z</time>
      </trkpt>
      <trkpt lat="43.84004" lon="7.10361">
        <ele>838.41</ele>
        <time>2011-04-20T10:23:08Z</time>
      </trkpt>
      <trkpt lat="43.84004" lon="7.10361">
        <ele>837.45</ele>
        <time>2011-04-20T10:23:23Z</time>
      </trkpt>
      <trkpt lat="43.84004" lon="7.10361">
        <ele>837.93</ele>
        <time>2011-04-20T10:23:27Z</time>
      </trkpt>
      <trkpt lat="43.84006" lon="7.10373">
        <ele>837.93</ele>
        <time>2011-04-20T10:23:34Z</time>
      </trkpt>
      <trkpt lat="43.84007" lon="7.10386">
        <ele>838.89</ele>
        <time>2011-04-20T10:23:41Z</time>
      </trkpt>
      <trkpt lat="43.84008" lon="7.10402">
        <ele>838.41</ele>
        <time>2011-04-20T10:23:49Z</time>
      </trkpt>
      <trkpt lat="43.84009" lon="7.10424">
        <ele>837.93</ele>
        <time>2011-04-20T10:24:01Z</time>
      </trkpt>
      <trkpt lat="43.8401" lon="7.10442">
        <ele>838.41</ele>
        <time>2011-04-20T10:24:11Z</time>
      </trkpt>
      <trkpt lat="43.84016" lon="7.10469">
        <ele>838.41</ele>
        <time>2011-04-20T10:24:27Z</time>
      </trkpt>
      <trkpt lat="43.84021" lon="7.10497">
        <ele>838.41</ele>
        <time>2011-04-20T10:24:43Z</time>
      </trkpt>
      <trkpt lat="43.84022" lon="7.10507">
        <ele>837.93</ele>
        <time>2011-04-20T10:24:49Z</time>
      </trkpt>
      <trkpt lat="43.84019" lon="7.10535">
        <ele>837.45</ele>
        <time>2011-04-20T10:25:06Z</time>
      </trkpt>
      <trkpt lat="43.84019" lon="7.10561">
        <ele>838.41</ele>
        <time>2011-04-20T10:25:20Z</time>
      </trkpt>
      <trkpt lat="43.8402" lon="7.10587">
        <ele>838.41</ele>
        <time>2011-04-20T10:25:35Z</time>
      </trkpt>
      <trkpt lat="43.84023" lon="7.10612">
        <ele>838.89</ele>
        <time>2011-04-20T10:25:50Z</time>
      </trkpt>
      <trkpt lat="43.84023" lon="7.10614">
        <ele>838.41</ele>
        <time>2011-04-20T10:26:06Z</time>
      </trkpt>
      <trkpt lat="43.84023" lon="7.10614">
        <ele>838.41</ele>
        <time>2011-04-20T10:26:39Z</time>
      </trkpt>
      <trkpt lat="43.84023" lon="7.10614">
        <ele>837.45</ele>
        <time>2011-04-20T10:27:02Z</time>
      </trkpt>
      <trkpt lat="43.84021" lon="7.1062">
        <ele>838.89</ele>
        <time>2011-04-20T10:27:28Z</time>
      </trkpt>
      <trkpt lat="43.84015" lon="7.10613">
        <ele>841.29</ele>
        <time>2011-04-20T10:27:41Z</time>
      </trkpt>
      <trkpt lat="43.84013" lon="7.10612">
        <ele>842.25</ele>
        <time>2011-04-20T10:27:43Z</time>
      </trkpt>
      <trkpt lat="43.84012" lon="7.10609">
        <ele>842.73</ele>
        <time>2011-04-20T10:27:47Z</time>
      </trkpt>
      <trkpt lat="43.84011" lon="7.10605">
        <ele>842.73</ele>
        <time>2011-04-20T10:27:51Z</time>
      </trkpt>
      <trkpt lat="43.8401" lon="7.10603">
        <ele>843.69</ele>
        <time>2011-04-20T10:27:57Z</time>
      </trkpt>
      <trkpt lat="43.84003" lon="7.10615">
        <ele>844.66</ele>
        <time>2011-04-20T10:28:12Z</time>
      </trkpt>
      <trkpt lat="43.83998" lon="7.1062">
        <ele>844.66</ele>
        <time>2011-04-20T10:28:21Z</time>
      </trkpt>
      <trkpt lat="43.83995" lon="7.10628">
        <ele>843.21</ele>
        <time>2011-04-20T10:28:28Z</time>
      </trkpt>
      <trkpt lat="43.83993" lon="7.10635">
        <ele>842.73</ele>
        <time>2011-04-20T10:28:32Z</time>
      </trkpt>
      <trkpt lat="43.83987" lon="7.10647">
        <ele>844.18</ele>
        <time>2011-04-20T10:28:44Z</time>
      </trkpt>
      <trkpt lat="43.83985" lon="7.10654">
        <ele>845.14</ele>
        <time>2011-04-20T10:28:52Z</time>
      </trkpt>
      <trkpt lat="43.83985" lon="7.10659">
        <ele>845.14</ele>
        <time>2011-04-20T10:28:55Z</time>
      </trkpt>
      <trkpt lat="43.83981" lon="7.10667">
        <ele>847.06</ele>
        <time>2011-04-20T10:29:04Z</time>
      </trkpt>
      <trkpt lat="43.8398" lon="7.10672">
        <ele>847.54</ele>
        <time>2011-04-20T10:29:09Z</time>
      </trkpt>
      <trkpt lat="43.83978" lon="7.10689">
        <ele>849.46</ele>
        <time>2011-04-20T10:29:23Z</time>
      </trkpt>
      <trkpt lat="43.83976" lon="7.10703">
        <ele>852.83</ele>
        <time>2011-04-20T10:29:36Z</time>
      </trkpt>
      <trkpt lat="43.83973" lon="7.10714">
        <ele>853.79</ele>
        <time>2011-04-20T10:29:51Z</time>
      </trkpt>
      <trkpt lat="43.83974" lon="7.1072">
        <ele>853.79</ele>
        <time>2011-04-20T10:29:59Z</time>
      </trkpt>
      <trkpt lat="43.83973" lon="7.10727">
        <ele>854.75</ele>
        <time>2011-04-20T10:30:04Z</time>
      </trkpt>
      <trkpt lat="43.83966" lon="7.10735">
        <ele>857.15</ele>
        <time>2011-04-20T10:30:19Z</time>
      </trkpt>
      <trkpt lat="43.83962" lon="7.10744">
        <ele>860.04</ele>
        <time>2011-04-20T10:30:31Z</time>
      </trkpt>
      <trkpt lat="43.8396" lon="7.10753">
        <ele>861</ele>
        <time>2011-04-20T10:30:45Z</time>
      </trkpt>
      <trkpt lat="43.8396" lon="7.10761">
        <ele>862.44</ele>
        <time>2011-04-20T10:30:58Z</time>
      </trkpt>
      <trkpt lat="43.83962" lon="7.10779">
        <ele>864.36</ele>
        <time>2011-04-20T10:31:12Z</time>
      </trkpt>
      <trkpt lat="43.83959" lon="7.10792">
        <ele>866.29</ele>
        <time>2011-04-20T10:31:27Z</time>
      </trkpt>
      <trkpt lat="43.83958" lon="7.10794">
        <ele>869.17</ele>
        <time>2011-04-20T10:31:32Z</time>
      </trkpt>
      <trkpt lat="43.83959" lon="7.10807">
        <ele>870.61</ele>
        <time>2011-04-20T10:31:49Z</time>
      </trkpt>
      <trkpt lat="43.83959" lon="7.10821">
        <ele>872.53</ele>
        <time>2011-04-20T10:32:09Z</time>
      </trkpt>
      <trkpt lat="43.83961" lon="7.10836">
        <ele>874.46</ele>
        <time>2011-04-20T10:32:23Z</time>
      </trkpt>
      <trkpt lat="43.8396" lon="7.10841">
        <ele>875.9</ele>
        <time>2011-04-20T10:32:35Z</time>
      </trkpt>
      <trkpt lat="43.8396" lon="7.10844">
        <ele>876.38</ele>
        <time>2011-04-20T10:32:48Z</time>
      </trkpt>
      <trkpt lat="43.83961" lon="7.10854">
        <ele>878.3</ele>
        <time>2011-04-20T10:32:57Z</time>
      </trkpt>
      <trkpt lat="43.83961" lon="7.10874">
        <ele>879.26</ele>
        <time>2011-04-20T10:33:12Z</time>
      </trkpt>
      <trkpt lat="43.83956" lon="7.10886">
        <ele>882.63</ele>
        <time>2011-04-20T10:33:27Z</time>
      </trkpt>
      <trkpt lat="43.83954" lon="7.10903">
        <ele>883.59</ele>
        <time>2011-04-20T10:33:42Z</time>
      </trkpt>
      <trkpt lat="43.83952" lon="7.10905">
        <ele>885.51</ele>
        <time>2011-04-20T10:33:57Z</time>
      </trkpt>
      <trkpt lat="43.83952" lon="7.10905">
        <ele>885.99</ele>
        <time>2011-04-20T10:34:13Z</time>
      </trkpt>
      <trkpt lat="43.83948" lon="7.10914">
        <ele>887.43</ele>
        <time>2011-04-20T10:34:22Z</time>
      </trkpt>
      <trkpt lat="43.83943" lon="7.10933">
        <ele>891.28</ele>
        <time>2011-04-20T10:34:39Z</time>
      </trkpt>
      <trkpt lat="43.83941" lon="7.10941">
        <ele>894.16</ele>
        <time>2011-04-20T10:34:48Z</time>
      </trkpt>
      <trkpt lat="43.83944" lon="7.10951">
        <ele>893.2</ele>
        <time>2011-04-20T10:34:55Z</time>
      </trkpt>
      <trkpt lat="43.83946" lon="7.10963">
        <ele>892.72</ele>
        <time>2011-04-20T10:35:11Z</time>
      </trkpt>
      <trkpt lat="43.83946" lon="7.10963">
        <ele>892.72</ele>
        <time>2011-04-20T10:35:36Z</time>
      </trkpt>
      <trkpt lat="43.83946" lon="7.10963">
        <ele>892.24</ele>
        <time>2011-04-20T10:36:09Z</time>
      </trkpt>
      <trkpt lat="43.83946" lon="7.10963">
        <ele>893.2</ele>
        <time>2011-04-20T10:36:42Z</time>
      </trkpt>
      <trkpt lat="43.83945" lon="7.1097">
        <ele>894.16</ele>
        <time>2011-04-20T10:36:46Z</time>
      </trkpt>
      <trkpt lat="43.83944" lon="7.10973">
        <ele>893.68</ele>
        <time>2011-04-20T10:36:48Z</time>
      </trkpt>
      <trkpt lat="43.83947" lon="7.10997">
        <ele>892.72</ele>
        <time>2011-04-20T10:37:03Z</time>
      </trkpt>
      <trkpt lat="43.83947" lon="7.11007">
        <ele>893.2</ele>
        <time>2011-04-20T10:37:09Z</time>
      </trkpt>
      <trkpt lat="43.83944" lon="7.1102">
        <ele>893.68</ele>
        <time>2011-04-20T10:37:18Z</time>
      </trkpt>
      <trkpt lat="43.83944" lon="7.11039">
        <ele>894.64</ele>
        <time>2011-04-20T10:37:33Z</time>
      </trkpt>
      <trkpt lat="43.83941" lon="7.11049">
        <ele>896.57</ele>
        <time>2011-04-20T10:37:47Z</time>
      </trkpt>
      <trkpt lat="43.83943" lon="7.11053">
        <ele>897.05</ele>
        <time>2011-04-20T10:37:51Z</time>
      </trkpt>
      <trkpt lat="43.83944" lon="7.11056">
        <ele>897.05</ele>
        <time>2011-04-20T10:37:54Z</time>
      </trkpt>
      <trkpt lat="43.83944" lon="7.11076">
        <ele>899.93</ele>
        <time>2011-04-20T10:38:09Z</time>
      </trkpt>
      <trkpt lat="43.83944" lon="7.1108">
        <ele>899.45</ele>
        <time>2011-04-20T10:38:12Z</time>
      </trkpt>
      <trkpt lat="43.83943" lon="7.11093">
        <ele>900.41</ele>
        <time>2011-04-20T10:38:22Z</time>
      </trkpt>
      <trkpt lat="43.83942" lon="7.11112">
        <ele>901.37</ele>
        <time>2011-04-20T10:38:38Z</time>
      </trkpt>
      <trkpt lat="43.83941" lon="7.11113">
        <ele>900.89</ele>
        <time>2011-04-20T10:38:39Z</time>
      </trkpt>
      <trkpt lat="43.83942" lon="7.11123">
        <ele>901.85</ele>
        <time>2011-04-20T10:38:46Z</time>
      </trkpt>
      <trkpt lat="43.83941" lon="7.11139">
        <ele>902.33</ele>
        <time>2011-04-20T10:39:00Z</time>
      </trkpt>
      <trkpt lat="43.83941" lon="7.1114">
        <ele>902.33</ele>
        <time>2011-04-20T10:39:01Z</time>
      </trkpt>
      <trkpt lat="43.83939" lon="7.11151">
        <ele>903.78</ele>
        <time>2011-04-20T10:39:14Z</time>
      </trkpt>
      <trkpt lat="43.83938" lon="7.11164">
        <ele>905.22</ele>
        <time>2011-04-20T10:39:28Z</time>
      </trkpt>
      <trkpt lat="43.83938" lon="7.11178">
        <ele>907.14</ele>
        <time>2011-04-20T10:39:42Z</time>
      </trkpt>
      <trkpt lat="43.83938" lon="7.1118">
        <ele>907.14</ele>
        <time>2011-04-20T10:39:44Z</time>
      </trkpt>
      <trkpt lat="43.8394" lon="7.11191">
        <ele>907.62</ele>
        <time>2011-04-20T10:39:55Z</time>
      </trkpt>
      <trkpt lat="43.83941" lon="7.11194">
        <ele>908.1</ele>
        <time>2011-04-20T10:39:57Z</time>
      </trkpt>
      <trkpt lat="43.83944" lon="7.112">
        <ele>907.14</ele>
        <time>2011-04-20T10:40:02Z</time>
      </trkpt>
      <trkpt lat="43.83944" lon="7.11216">
        <ele>907.62</ele>
        <time>2011-04-20T10:40:17Z</time>
      </trkpt>
      <trkpt lat="43.83944" lon="7.11229">
        <ele>909.06</ele>
        <time>2011-04-20T10:40:31Z</time>
      </trkpt>
      <trkpt lat="43.83943" lon="7.11239">
        <ele>910.03</ele>
        <time>2011-04-20T10:40:44Z</time>
      </trkpt>
      <trkpt lat="43.83942" lon="7.11254">
        <ele>911.47</ele>
        <time>2011-04-20T10:41:00Z</time>
      </trkpt>
      <trkpt lat="43.83942" lon="7.11255">
        <ele>910.51</ele>
        <time>2011-04-20T10:41:06Z</time>
      </trkpt>
      <trkpt lat="43.83944" lon="7.11266">
        <ele>910.03</ele>
        <time>2011-04-20T10:41:13Z</time>
      </trkpt>
      <trkpt lat="43.83946" lon="7.11285">
        <ele>910.51</ele>
        <time>2011-04-20T10:41:28Z</time>
      </trkpt>
      <trkpt lat="43.83946" lon="7.11303">
        <ele>911.95</ele>
        <time>2011-04-20T10:41:41Z</time>
      </trkpt>
      <trkpt lat="43.83946" lon="7.11317">
        <ele>912.91</ele>
        <time>2011-04-20T10:41:55Z</time>
      </trkpt>
      <trkpt lat="43.83948" lon="7.11336">
        <ele>911.95</ele>
        <time>2011-04-20T10:42:09Z</time>
      </trkpt>
      <trkpt lat="43.83947" lon="7.11346">
        <ele>914.83</ele>
        <time>2011-04-20T10:42:19Z</time>
      </trkpt>
      <trkpt lat="43.83947" lon="7.11362">
        <ele>914.83</ele>
        <time>2011-04-20T10:42:32Z</time>
      </trkpt>
      <trkpt lat="43.83946" lon="7.11378">
        <ele>915.31</ele>
        <time>2011-04-20T10:42:45Z</time>
      </trkpt>
      <trkpt lat="43.83944" lon="7.11382">
        <ele>916.75</ele>
        <time>2011-04-20T10:42:59Z</time>
      </trkpt>
      <trkpt lat="43.83942" lon="7.11385">
        <ele>918.68</ele>
        <time>2011-04-20T10:43:08Z</time>
      </trkpt>
      <trkpt lat="43.83939" lon="7.1139">
        <ele>919.16</ele>
        <time>2011-04-20T10:43:22Z</time>
      </trkpt>
      <trkpt lat="43.83939" lon="7.11395">
        <ele>919.64</ele>
        <time>2011-04-20T10:43:35Z</time>
      </trkpt>
      <trkpt lat="43.83934" lon="7.11413">
        <ele>920.6</ele>
        <time>2011-04-20T10:43:52Z</time>
      </trkpt>
      <trkpt lat="43.83931" lon="7.11417">
        <ele>922.52</ele>
        <time>2011-04-20T10:44:04Z</time>
      </trkpt>
      <trkpt lat="43.83924" lon="7.11416">
        <ele>925.41</ele>
        <time>2011-04-20T10:44:18Z</time>
      </trkpt>
      <trkpt lat="43.83921" lon="7.11423">
        <ele>925.41</ele>
        <time>2011-04-20T10:44:32Z</time>
      </trkpt>
      <trkpt lat="43.83922" lon="7.11432">
        <ele>925.41</ele>
        <time>2011-04-20T10:44:44Z</time>
      </trkpt>
      <trkpt lat="43.83922" lon="7.11433">
        <ele>924.93</ele>
        <time>2011-04-20T10:44:52Z</time>
      </trkpt>
      <trkpt lat="43.83924" lon="7.1144">
        <ele>924.45</ele>
        <time>2011-04-20T10:44:56Z</time>
      </trkpt>
      <trkpt lat="43.83928" lon="7.1145">
        <ele>924.45</ele>
        <time>2011-04-20T10:45:03Z</time>
      </trkpt>
      <trkpt lat="43.83935" lon="7.1147">
        <ele>923.96</ele>
        <time>2011-04-20T10:45:17Z</time>
      </trkpt>
      <trkpt lat="43.83935" lon="7.11473">
        <ele>923.48</ele>
        <time>2011-04-20T10:45:19Z</time>
      </trkpt>
      <trkpt lat="43.83938" lon="7.11495">
        <ele>923</ele>
        <time>2011-04-20T10:45:32Z</time>
      </trkpt>
      <trkpt lat="43.83941" lon="7.11507">
        <ele>921.56</ele>
        <time>2011-04-20T10:45:40Z</time>
      </trkpt>
      <trkpt lat="43.83941" lon="7.11517">
        <ele>920.12</ele>
        <time>2011-04-20T10:45:45Z</time>
      </trkpt>
      <trkpt lat="43.83941" lon="7.11527">
        <ele>919.64</ele>
        <time>2011-04-20T10:45:54Z</time>
      </trkpt>
      <trkpt lat="43.83942" lon="7.11535">
        <ele>919.16</ele>
        <time>2011-04-20T10:45:59Z</time>
      </trkpt>
      <trkpt lat="43.83941" lon="7.11558">
        <ele>919.16</ele>
        <time>2011-04-20T10:46:13Z</time>
      </trkpt>
      <trkpt lat="43.83942" lon="7.11585">
        <ele>919.64</ele>
        <time>2011-04-20T10:46:28Z</time>
      </trkpt>
      <trkpt lat="43.8394" lon="7.11599">
        <ele>922.52</ele>
        <time>2011-04-20T10:46:42Z</time>
      </trkpt>
      <trkpt lat="43.83937" lon="7.11616">
        <ele>925.41</ele>
        <time>2011-04-20T10:46:55Z</time>
      </trkpt>
      <trkpt lat="43.83935" lon="7.11622">
        <ele>927.81</ele>
        <time>2011-04-20T10:47:10Z</time>
      </trkpt>
      <trkpt lat="43.8393" lon="7.11619">
        <ele>929.25</ele>
        <time>2011-04-20T10:47:25Z</time>
      </trkpt>
      <trkpt lat="43.83925" lon="7.11614">
        <ele>931.17</ele>
        <time>2011-04-20T10:47:37Z</time>
      </trkpt>
      <trkpt lat="43.83918" lon="7.11611">
        <ele>933.58</ele>
        <time>2011-04-20T10:47:52Z</time>
      </trkpt>
      <trkpt lat="43.83913" lon="7.11618">
        <ele>936.46</ele>
        <time>2011-04-20T10:48:06Z</time>
      </trkpt>
      <trkpt lat="43.83912" lon="7.11621">
        <ele>936.46</ele>
        <time>2011-04-20T10:48:13Z</time>
      </trkpt>
      <trkpt lat="43.8391" lon="7.11632">
        <ele>938.86</ele>
        <time>2011-04-20T10:48:27Z</time>
      </trkpt>
      <trkpt lat="43.83904" lon="7.11627">
        <ele>940.79</ele>
        <time>2011-04-20T10:48:40Z</time>
      </trkpt>
      <trkpt lat="43.83899" lon="7.11628">
        <ele>941.75</ele>
        <time>2011-04-20T10:48:53Z</time>
      </trkpt>
      <trkpt lat="43.83894" lon="7.11637">
        <ele>945.11</ele>
        <time>2011-04-20T10:49:06Z</time>
      </trkpt>
      <trkpt lat="43.83889" lon="7.11629">
        <ele>946.56</ele>
        <time>2011-04-20T10:49:21Z</time>
      </trkpt>
      <trkpt lat="43.83887" lon="7.11628">
        <ele>948</ele>
        <time>2011-04-20T10:49:24Z</time>
      </trkpt>
      <trkpt lat="43.83879" lon="7.11632">
        <ele>950.4</ele>
        <time>2011-04-20T10:49:42Z</time>
      </trkpt>
      <trkpt lat="43.83871" lon="7.1163">
        <ele>953.28</ele>
        <time>2011-04-20T10:49:56Z</time>
      </trkpt>
      <trkpt lat="43.83866" lon="7.11627">
        <ele>955.21</ele>
        <time>2011-04-20T10:50:11Z</time>
      </trkpt>
      <trkpt lat="43.83862" lon="7.11622">
        <ele>957.61</ele>
        <time>2011-04-20T10:50:26Z</time>
      </trkpt>
      <trkpt lat="43.83855" lon="7.11621">
        <ele>960.49</ele>
        <time>2011-04-20T10:50:41Z</time>
      </trkpt>
      <trkpt lat="43.83848" lon="7.11628">
        <ele>963.38</ele>
        <time>2011-04-20T10:50:53Z</time>
      </trkpt>
      <trkpt lat="43.83843" lon="7.1163">
        <ele>964.82</ele>
        <time>2011-04-20T10:51:10Z</time>
      </trkpt>
      <trkpt lat="43.8384" lon="7.11628">
        <ele>964.82</ele>
        <time>2011-04-20T10:51:30Z</time>
      </trkpt>
      <trkpt lat="43.83833" lon="7.11624">
        <ele>967.7</ele>
        <time>2011-04-20T10:51:46Z</time>
      </trkpt>
      <trkpt lat="43.83826" lon="7.11619">
        <ele>969.63</ele>
        <time>2011-04-20T10:52:01Z</time>
      </trkpt>
      <trkpt lat="43.83821" lon="7.11614">
        <ele>972.03</ele>
        <time>2011-04-20T10:52:18Z</time>
      </trkpt>
      <trkpt lat="43.83817" lon="7.11606">
        <ele>974.43</ele>
        <time>2011-04-20T10:52:31Z</time>
      </trkpt>
      <trkpt lat="43.83812" lon="7.11608">
        <ele>975.88</ele>
        <time>2011-04-20T10:52:46Z</time>
      </trkpt>
      <trkpt lat="43.83809" lon="7.11614">
        <ele>975.88</ele>
        <time>2011-04-20T10:53:06Z</time>
      </trkpt>
      <trkpt lat="43.83804" lon="7.11621">
        <ele>978.28</ele>
        <time>2011-04-20T10:53:18Z</time>
      </trkpt>
      <trkpt lat="43.83802" lon="7.11619">
        <ele>979.24</ele>
        <time>2011-04-20T10:53:32Z</time>
      </trkpt>
      <trkpt lat="43.83797" lon="7.1162">
        <ele>981.16</ele>
        <time>2011-04-20T10:53:45Z</time>
      </trkpt>
      <trkpt lat="43.8379" lon="7.11622">
        <ele>984.05</ele>
        <time>2011-04-20T10:53:58Z</time>
      </trkpt>
      <trkpt lat="43.83788" lon="7.11618">
        <ele>985.97</ele>
        <time>2011-04-20T10:54:19Z</time>
      </trkpt>
      <trkpt lat="43.83782" lon="7.11615">
        <ele>988.85</ele>
        <time>2011-04-20T10:54:32Z</time>
      </trkpt>
      <trkpt lat="43.83776" lon="7.11605">
        <ele>992.22</ele>
        <time>2011-04-20T10:54:46Z</time>
      </trkpt>
      <trkpt lat="43.8377" lon="7.11598">
        <ele>992.7</ele>
        <time>2011-04-20T10:55:02Z</time>
      </trkpt>
      <trkpt lat="43.83763" lon="7.11592">
        <ele>995.58</ele>
        <time>2011-04-20T10:55:17Z</time>
      </trkpt>
      <trkpt lat="43.83756" lon="7.11589">
        <ele>998.47</ele>
        <time>2011-04-20T10:55:32Z</time>
      </trkpt>
      <trkpt lat="43.83754" lon="7.11583">
        <ele>999.43</ele>
        <time>2011-04-20T10:55:48Z</time>
      </trkpt>
      <trkpt lat="43.83748" lon="7.11579">
        <ele>1001.35</ele>
        <time>2011-04-20T10:56:02Z</time>
      </trkpt>
      <trkpt lat="43.83744" lon="7.11574">
        <ele>1003.27</ele>
        <time>2011-04-20T10:56:13Z</time>
      </trkpt>
      <trkpt lat="43.83738" lon="7.11567">
        <ele>1004.72</ele>
        <time>2011-04-20T10:56:27Z</time>
      </trkpt>
      <trkpt lat="43.83733" lon="7.11565">
        <ele>1006.64</ele>
        <time>2011-04-20T10:56:40Z</time>
      </trkpt>
      <trkpt lat="43.83728" lon="7.11561">
        <ele>1008.08</ele>
        <time>2011-04-20T10:56:55Z</time>
      </trkpt>
      <trkpt lat="43.83727" lon="7.11561">
        <ele>1008.08</ele>
        <time>2011-04-20T10:56:56Z</time>
      </trkpt>
      <trkpt lat="43.83717" lon="7.11553">
        <ele>1010.96</ele>
        <time>2011-04-20T10:57:12Z</time>
      </trkpt>
      <trkpt lat="43.83709" lon="7.11546">
        <ele>1014.33</ele>
        <time>2011-04-20T10:57:25Z</time>
      </trkpt>
      <trkpt lat="43.83706" lon="7.11542">
        <ele>1013.85</ele>
        <time>2011-04-20T10:57:42Z</time>
      </trkpt>
      <trkpt lat="43.83706" lon="7.11543">
        <ele>1013.37</ele>
        <time>2011-04-20T10:57:56Z</time>
      </trkpt>
      <trkpt lat="43.83705" lon="7.11543">
        <ele>1012.89</ele>
        <time>2011-04-20T10:58:09Z</time>
      </trkpt>
      <trkpt lat="43.83704" lon="7.11543">
        <ele>1013.37</ele>
        <time>2011-04-20T10:58:49Z</time>
      </trkpt>
      <trkpt lat="43.83704" lon="7.11543">
        <ele>1012.41</ele>
        <time>2011-04-20T10:59:25Z</time>
      </trkpt>
      <trkpt lat="43.83704" lon="7.11541">
        <ele>1012.41</ele>
        <time>2011-04-20T11:00:02Z</time>
      </trkpt>
      <trkpt lat="43.83707" lon="7.11529">
        <ele>1014.33</ele>
        <time>2011-04-20T11:00:15Z</time>
      </trkpt>
      <trkpt lat="43.83708" lon="7.1152">
        <ele>1014.33</ele>
        <time>2011-04-20T11:00:22Z</time>
      </trkpt>
      <trkpt lat="43.83711" lon="7.11501">
        <ele>1014.81</ele>
        <time>2011-04-20T11:00:39Z</time>
      </trkpt>
      <trkpt lat="43.8371" lon="7.115">
        <ele>1014.33</ele>
        <time>2011-04-20T11:00:55Z</time>
      </trkpt>
      <trkpt lat="43.8371" lon="7.115">
        <ele>1013.37</ele>
        <time>2011-04-20T11:01:28Z</time>
      </trkpt>
      <trkpt lat="43.8371" lon="7.115">
        <ele>1012.41</ele>
        <time>2011-04-20T11:02:05Z</time>
      </trkpt>
      <trkpt lat="43.83711" lon="7.115">
        <ele>1014.81</ele>
        <time>2011-04-20T11:02:26Z</time>
      </trkpt>
      <trkpt lat="43.83711" lon="7.115">
        <ele>1012.89</ele>
        <time>2011-04-20T11:02:29Z</time>
      </trkpt>
      <trkpt lat="43.8371" lon="7.115">
        <ele>1011.44</ele>
        <time>2011-04-20T11:03:05Z</time>
      </trkpt>
      <trkpt lat="43.8371" lon="7.115">
        <ele>1011.44</ele>
        <time>2011-04-20T11:03:23Z</time>
      </trkpt>
      <trkpt lat="43.8371" lon="7.115">
        <ele>1011.93</ele>
        <time>2011-04-20T11:03:54Z</time>
      </trkpt>
      <trkpt lat="43.8371" lon="7.115">
        <ele>1012.89</ele>
        <time>2011-04-20T11:03:58Z</time>
      </trkpt>
      <trkpt lat="43.8371" lon="7.115">
        <ele>1011.93</ele>
        <time>2011-04-20T11:04:29Z</time>
      </trkpt>
      <trkpt lat="43.8371" lon="7.115">
        <ele>1011.93</ele>
        <time>2011-04-20T11:04:54Z</time>
      </trkpt>
      <trkpt lat="43.8371" lon="7.115">
        <ele>1011.93</ele>
        <time>2011-04-20T11:05:25Z</time>
      </trkpt>
      <trkpt lat="43.83711" lon="7.115">
        <ele>1012.89</ele>
        <time>2011-04-20T11:05:59Z</time>
      </trkpt>
      <trkpt lat="43.83711" lon="7.115">
        <ele>1012.41</ele>
        <time>2011-04-20T11:06:36Z</time>
      </trkpt>
      <trkpt lat="43.83711" lon="7.115">
        <ele>1012.41</ele>
        <time>2011-04-20T11:07:15Z</time>
      </trkpt>
      <trkpt lat="43.83711" lon="7.115">
        <ele>1012.41</ele>
        <time>2011-04-20T11:07:48Z</time>
      </trkpt>
      <trkpt lat="43.83711" lon="7.115">
        <ele>1011.93</ele>
        <time>2011-04-20T11:08:18Z</time>
      </trkpt>
      <trkpt lat="43.83711" lon="7.115">
        <ele>1010.48</ele>
        <time>2011-04-20T11:08:48Z</time>
      </trkpt>
      <trkpt lat="43.83711" lon="7.11499">
        <ele>1011.44</ele>
        <time>2011-04-20T11:09:18Z</time>
      </trkpt>
      <trkpt lat="43.83711" lon="7.11499">
        <ele>1010.48</ele>
        <time>2011-04-20T11:09:34Z</time>
      </trkpt>
      <trkpt lat="43.83711" lon="7.11499">
        <ele>1013.37</ele>
        <time>2011-04-20T11:09:49Z</time>
      </trkpt>
      <trkpt lat="43.83711" lon="7.11499">
        <ele>1010.48</ele>
        <time>2011-04-20T11:09:57Z</time>
      </trkpt>
      <trkpt lat="43.83711" lon="7.11499">
        <ele>1010.96</ele>
        <time>2011-04-20T11:10:15Z</time>
      </trkpt>
      <trkpt lat="43.83711" lon="7.11499">
        <ele>1010.96</ele>
        <time>2011-04-20T11:10:50Z</time>
      </trkpt>
      <trkpt lat="43.83711" lon="7.11499">
        <ele>1010.48</ele>
        <time>2011-04-20T11:11:23Z</time>
      </trkpt>
      <trkpt lat="43.83711" lon="7.115">
        <ele>1010.48</ele>
        <time>2011-04-20T11:11:46Z</time>
      </trkpt>
      <trkpt lat="43.83711" lon="7.11499">
        <ele>1011.93</ele>
        <time>2011-04-20T11:12:10Z</time>
      </trkpt>
      <trkpt lat="43.83711" lon="7.11499">
        <ele>1010.96</ele>
        <time>2011-04-20T11:12:35Z</time>
      </trkpt>
      <trkpt lat="43.8371" lon="7.11499">
        <ele>1010.96</ele>
        <time>2011-04-20T11:13:14Z</time>
      </trkpt>
      <trkpt lat="43.83711" lon="7.115">
        <ele>1011.44</ele>
        <time>2011-04-20T11:13:37Z</time>
      </trkpt>
      <trkpt lat="43.8371" lon="7.115">
        <ele>1010</ele>
        <time>2011-04-20T11:14:18Z</time>
      </trkpt>
      <trkpt lat="43.8371" lon="7.11501">
        <ele>1011.44</ele>
        <time>2011-04-20T11:14:56Z</time>
      </trkpt>
      <trkpt lat="43.8371" lon="7.11501">
        <ele>1010</ele>
        <time>2011-04-20T11:15:05Z</time>
      </trkpt>
      <trkpt lat="43.8371" lon="7.11501">
        <ele>1005.68</ele>
        <time>2011-04-20T11:15:15Z</time>
      </trkpt>
      <trkpt lat="43.8371" lon="7.11501">
        <ele>1011.44</ele>
        <time>2011-04-20T11:15:16Z</time>
      </trkpt>
      <trkpt lat="43.8371" lon="7.11501">
        <ele>1011.44</ele>
        <time>2011-04-20T11:15:22Z</time>
      </trkpt>
      <trkpt lat="43.83711" lon="7.115">
        <ele>1002.79</ele>
        <time>2011-04-20T11:15:45Z</time>
      </trkpt>
      <trkpt lat="43.83711" lon="7.115">
        <ele>1012.89</ele>
        <time>2011-04-20T11:15:46Z</time>
      </trkpt>
      <trkpt lat="43.83711" lon="7.115">
        <ele>1010</ele>
        <time>2011-04-20T11:16:11Z</time>
      </trkpt>
      <trkpt lat="43.83711" lon="7.11501">
        <ele>1010.96</ele>
        <time>2011-04-20T11:16:51Z</time>
      </trkpt>
      <trkpt lat="43.83711" lon="7.11501">
        <ele>1011.44</ele>
        <time>2011-04-20T11:17:24Z</time>
      </trkpt>
      <trkpt lat="43.83711" lon="7.11501">
        <ele>1010</ele>
        <time>2011-04-20T11:18:03Z</time>
      </trkpt>
      <trkpt lat="43.83711" lon="7.11501">
        <ele>1010.48</ele>
        <time>2011-04-20T11:18:43Z</time>
      </trkpt>
      <trkpt lat="43.8371" lon="7.11501">
        <ele>1009.52</ele>
        <time>2011-04-20T11:19:19Z</time>
      </trkpt>
      <trkpt lat="43.83711" lon="7.11501">
        <ele>1010</ele>
        <time>2011-04-20T11:19:55Z</time>
      </trkpt>
      <trkpt lat="43.83711" lon="7.11501">
        <ele>1010.96</ele>
        <time>2011-04-20T11:20:21Z</time>
      </trkpt>
      <trkpt lat="43.83711" lon="7.11501">
        <ele>1010</ele>
        <time>2011-04-20T11:20:57Z</time>
      </trkpt>
      <trkpt lat="43.8371" lon="7.11501">
        <ele>1010</ele>
        <time>2011-04-20T11:21:32Z</time>
      </trkpt>
      <trkpt lat="43.8371" lon="7.115">
        <ele>1010.48</ele>
        <time>2011-04-20T11:22:08Z</time>
      </trkpt>
      <trkpt lat="43.83711" lon="7.11501">
        <ele>1010.48</ele>
        <time>2011-04-20T11:22:47Z</time>
      </trkpt>
      <trkpt lat="43.83711" lon="7.11501">
        <ele>1008.56</ele>
        <time>2011-04-20T11:23:18Z</time>
      </trkpt>
      <trkpt lat="43.83711" lon="7.11501">
        <ele>1011.44</ele>
        <time>2011-04-20T11:23:30Z</time>
      </trkpt>
      <trkpt lat="43.8371" lon="7.11501">
        <ele>1010.96</ele>
        <time>2011-04-20T11:24:05Z</time>
      </trkpt>
      <trkpt lat="43.83711" lon="7.11501">
        <ele>1010</ele>
        <time>2011-04-20T11:24:39Z</time>
      </trkpt>
      <trkpt lat="43.83711" lon="7.11501">
        <ele>1009.52</ele>
        <time>2011-04-20T11:25:11Z</time>
      </trkpt>
      <trkpt lat="43.83711" lon="7.115">
        <ele>1009.52</ele>
        <time>2011-04-20T11:25:46Z</time>
      </trkpt>
      <trkpt lat="43.83711" lon="7.115">
        <ele>1012.89</ele>
        <time>2011-04-20T11:26:13Z</time>
      </trkpt>
      <trkpt lat="43.83711" lon="7.115">
        <ele>1010</ele>
        <time>2011-04-20T11:26:20Z</time>
      </trkpt>
      <trkpt lat="43.83711" lon="7.115">
        <ele>1009.52</ele>
        <time>2011-04-20T11:27:00Z</time>
      </trkpt>
      <trkpt lat="43.83711" lon="7.115">
        <ele>1010.48</ele>
        <time>2011-04-20T11:27:16Z</time>
      </trkpt>
      <trkpt lat="43.83711" lon="7.115">
        <ele>1009.52</ele>
        <time>2011-04-20T11:27:32Z</time>
      </trkpt>
      <trkpt lat="43.83711" lon="7.115">
        <ele>1010</ele>
        <time>2011-04-20T11:28:02Z</time>
      </trkpt>
      <trkpt lat="43.83711" lon="7.115">
        <ele>1008.56</ele>
        <time>2011-04-20T11:28:28Z</time>
      </trkpt>
      <trkpt lat="43.83711" lon="7.115">
        <ele>1008.08</ele>
        <time>2011-04-20T11:28:36Z</time>
      </trkpt>
      <trkpt lat="43.83711" lon="7.115">
        <ele>1010.48</ele>
        <time>2011-04-20T11:28:44Z</time>
      </trkpt>
      <trkpt lat="43.83711" lon="7.115">
        <ele>1008.56</ele>
        <time>2011-04-20T11:29:10Z</time>
      </trkpt>
      <trkpt lat="43.83711" lon="7.115">
        <ele>1010</ele>
        <time>2011-04-20T11:29:14Z</time>
      </trkpt>
      <trkpt lat="43.83711" lon="7.115">
        <ele>1008.56</ele>
        <time>2011-04-20T11:29:40Z</time>
      </trkpt>
      <trkpt lat="43.83711" lon="7.115">
        <ele>1009.04</ele>
        <time>2011-04-20T11:30:07Z</time>
      </trkpt>
      <trkpt lat="43.83711" lon="7.11499">
        <ele>1008.56</ele>
        <time>2011-04-20T11:30:38Z</time>
      </trkpt>
      <trkpt lat="43.83711" lon="7.115">
        <ele>1009.04</ele>
        <time>2011-04-20T11:31:06Z</time>
      </trkpt>
      <trkpt lat="43.83711" lon="7.115">
        <ele>1009.52</ele>
        <time>2011-04-20T11:31:33Z</time>
      </trkpt>
      <trkpt lat="43.83711" lon="7.115">
        <ele>1010</ele>
        <time>2011-04-20T11:32:03Z</time>
      </trkpt>
      <trkpt lat="43.83711" lon="7.11499">
        <ele>1009.52</ele>
        <time>2011-04-20T11:32:37Z</time>
      </trkpt>
      <trkpt lat="43.83711" lon="7.11499">
        <ele>1009.04</ele>
        <time>2011-04-20T11:33:06Z</time>
      </trkpt>
      <trkpt lat="43.83711" lon="7.11499">
        <ele>1009.52</ele>
        <time>2011-04-20T11:33:39Z</time>
      </trkpt>
      <trkpt lat="43.83711" lon="7.11499">
        <ele>1009.52</ele>
        <time>2011-04-20T11:34:10Z</time>
      </trkpt>
      <trkpt lat="43.83711" lon="7.11499">
        <ele>1009.04</ele>
        <time>2011-04-20T11:34:42Z</time>
      </trkpt>
      <trkpt lat="43.83712" lon="7.11498">
        <ele>1005.2</ele>
        <time>2011-04-20T11:35:09Z</time>
      </trkpt>
      <trkpt lat="43.83712" lon="7.11498">
        <ele>1009.52</ele>
        <time>2011-04-20T11:35:10Z</time>
      </trkpt>
      <trkpt lat="43.83712" lon="7.11498">
        <ele>1008.56</ele>
        <time>2011-04-20T11:35:37Z</time>
      </trkpt>
      <trkpt lat="43.83712" lon="7.11497">
        <ele>1008.56</ele>
        <time>2011-04-20T11:36:05Z</time>
      </trkpt>
      <trkpt lat="43.83712" lon="7.11497">
        <ele>1008.56</ele>
        <time>2011-04-20T11:36:32Z</time>
      </trkpt>
      <trkpt lat="43.83712" lon="7.11497">
        <ele>1009.04</ele>
        <time>2011-04-20T11:37:08Z</time>
      </trkpt>
      <trkpt lat="43.83712" lon="7.11497">
        <ele>1008.56</ele>
        <time>2011-04-20T11:37:44Z</time>
      </trkpt>
      <trkpt lat="43.83712" lon="7.11498">
        <ele>1009.04</ele>
        <time>2011-04-20T11:38:20Z</time>
      </trkpt>
      <trkpt lat="43.83712" lon="7.11498">
        <ele>1008.56</ele>
        <time>2011-04-20T11:38:55Z</time>
      </trkpt>
      <trkpt lat="43.83712" lon="7.11497">
        <ele>1008.56</ele>
        <time>2011-04-20T11:39:38Z</time>
      </trkpt>
      <trkpt lat="43.83712" lon="7.11497">
        <ele>1009.04</ele>
        <time>2011-04-20T11:40:17Z</time>
      </trkpt>
      <trkpt lat="43.83712" lon="7.11497">
        <ele>1008.56</ele>
        <time>2011-04-20T11:40:52Z</time>
      </trkpt>
      <trkpt lat="43.83712" lon="7.11497">
        <ele>1007.12</ele>
        <time>2011-04-20T11:41:28Z</time>
      </trkpt>
      <trkpt lat="43.83712" lon="7.11498">
        <ele>1007.6</ele>
        <time>2011-04-20T11:42:06Z</time>
      </trkpt>
      <trkpt lat="43.83712" lon="7.11498">
        <ele>1009.04</ele>
        <time>2011-04-20T11:42:44Z</time>
      </trkpt>
      <trkpt lat="43.83712" lon="7.11499">
        <ele>1008.08</ele>
        <time>2011-04-20T11:43:20Z</time>
      </trkpt>
      <trkpt lat="43.83712" lon="7.11499">
        <ele>1009.04</ele>
        <time>2011-04-20T11:43:55Z</time>
      </trkpt>
      <trkpt lat="43.83712" lon="7.11499">
        <ele>1006.64</ele>
        <time>2011-04-20T11:44:31Z</time>
      </trkpt>
      <trkpt lat="43.83712" lon="7.11499">
        <ele>1009.04</ele>
        <time>2011-04-20T11:45:07Z</time>
      </trkpt>
      <trkpt lat="43.83711" lon="7.11498">
        <ele>1008.56</ele>
        <time>2011-04-20T11:45:43Z</time>
      </trkpt>
      <trkpt lat="43.83711" lon="7.11498">
        <ele>1007.12</ele>
        <time>2011-04-20T11:46:17Z</time>
      </trkpt>
      <trkpt lat="43.83711" lon="7.11498">
        <ele>1007.6</ele>
        <time>2011-04-20T11:46:55Z</time>
      </trkpt>
      <trkpt lat="43.83711" lon="7.11498">
        <ele>1008.56</ele>
        <time>2011-04-20T11:47:21Z</time>
      </trkpt>
      <trkpt lat="43.83711" lon="7.11498">
        <ele>1007.6</ele>
        <time>2011-04-20T11:47:56Z</time>
      </trkpt>
      <trkpt lat="43.83711" lon="7.11498">
        <ele>1007.12</ele>
        <time>2011-04-20T11:48:35Z</time>
      </trkpt>
      <trkpt lat="43.83711" lon="7.11498">
        <ele>1006.64</ele>
        <time>2011-04-20T11:49:07Z</time>
      </trkpt>
      <trkpt lat="43.83711" lon="7.11498">
        <ele>1007.12</ele>
        <time>2011-04-20T11:49:42Z</time>
      </trkpt>
      <trkpt lat="43.83711" lon="7.11498">
        <ele>1006.16</ele>
        <time>2011-04-20T11:50:15Z</time>
      </trkpt>
      <trkpt lat="43.83711" lon="7.11498">
        <ele>1006.64</ele>
        <time>2011-04-20T11:50:53Z</time>
      </trkpt>
      <trkpt lat="43.83711" lon="7.11497">
        <ele>1006.64</ele>
        <time>2011-04-20T11:51:29Z</time>
      </trkpt>
      <trkpt lat="43.83711" lon="7.11497">
        <ele>1006.16</ele>
        <time>2011-04-20T11:52:07Z</time>
      </trkpt>
      <trkpt lat="43.83711" lon="7.11497">
        <ele>1006.16</ele>
        <time>2011-04-20T11:52:43Z</time>
      </trkpt>
      <trkpt lat="43.83711" lon="7.11497">
        <ele>1006.64</ele>
        <time>2011-04-20T11:53:25Z</time>
      </trkpt>
      <trkpt lat="43.83711" lon="7.11497">
        <ele>1004.72</ele>
        <time>2011-04-20T11:54:02Z</time>
      </trkpt>
      <trkpt lat="43.83711" lon="7.11497">
        <ele>1006.16</ele>
        <time>2011-04-20T11:54:44Z</time>
      </trkpt>
      <trkpt lat="43.83711" lon="7.11497">
        <ele>1006.16</ele>
        <time>2011-04-20T11:55:26Z</time>
      </trkpt>
      <trkpt lat="43.83711" lon="7.11497">
        <ele>1005.68</ele>
        <time>2011-04-20T11:56:05Z</time>
      </trkpt>
      <trkpt lat="43.83711" lon="7.11497">
        <ele>1007.6</ele>
        <time>2011-04-20T11:56:45Z</time>
      </trkpt>
      <trkpt lat="43.83711" lon="7.11497">
        <ele>1005.68</ele>
        <time>2011-04-20T11:57:24Z</time>
      </trkpt>
      <trkpt lat="43.83711" lon="7.11497">
        <ele>1005.2</ele>
        <time>2011-04-20T11:58:13Z</time>
      </trkpt>
      <trkpt lat="43.83711" lon="7.11497">
        <ele>1007.6</ele>
        <time>2011-04-20T11:58:21Z</time>
      </trkpt>
      <trkpt lat="43.83711" lon="7.11498">
        <ele>1005.2</ele>
        <time>2011-04-20T11:58:57Z</time>
      </trkpt>
      <trkpt lat="43.83711" lon="7.11498">
        <ele>1005.68</ele>
        <time>2011-04-20T11:59:35Z</time>
      </trkpt>
      <trkpt lat="43.8371" lon="7.11498">
        <ele>1005.2</ele>
        <time>2011-04-20T12:00:12Z</time>
      </trkpt>
      <trkpt lat="43.8371" lon="7.11498">
        <ele>1004.23</ele>
        <time>2011-04-20T12:00:48Z</time>
      </trkpt>
      <trkpt lat="43.8371" lon="7.11498">
        <ele>1004.72</ele>
        <time>2011-04-20T12:01:24Z</time>
      </trkpt>
      <trkpt lat="43.8371" lon="7.11498">
        <ele>1006.16</ele>
        <time>2011-04-20T12:01:59Z</time>
      </trkpt>
      <trkpt lat="43.8371" lon="7.11497">
        <ele>1004.72</ele>
        <time>2011-04-20T12:02:36Z</time>
      </trkpt>
      <trkpt lat="43.8371" lon="7.11497">
        <ele>1005.2</ele>
        <time>2011-04-20T12:03:10Z</time>
      </trkpt>
      <trkpt lat="43.8371" lon="7.11497">
        <ele>1006.16</ele>
        <time>2011-04-20T12:03:44Z</time>
      </trkpt>
      <trkpt lat="43.83709" lon="7.11497">
        <ele>1005.68</ele>
        <time>2011-04-20T12:04:19Z</time>
      </trkpt>
      <trkpt lat="43.8371" lon="7.11497">
        <ele>1004.72</ele>
        <time>2011-04-20T12:04:53Z</time>
      </trkpt>
      <trkpt lat="43.8371" lon="7.11497">
        <ele>1004.23</ele>
        <time>2011-04-20T12:05:24Z</time>
      </trkpt>
      <trkpt lat="43.8371" lon="7.11497">
        <ele>1005.2</ele>
        <time>2011-04-20T12:05:58Z</time>
      </trkpt>
      <trkpt lat="43.8371" lon="7.11497">
        <ele>1005.2</ele>
        <time>2011-04-20T12:06:34Z</time>
      </trkpt>
      <trkpt lat="43.8371" lon="7.11498">
        <ele>1006.16</ele>
        <time>2011-04-20T12:07:09Z</time>
      </trkpt>
      <trkpt lat="43.83709" lon="7.11498">
        <ele>1005.2</ele>
        <time>2011-04-20T12:07:50Z</time>
      </trkpt>
      <trkpt lat="43.83709" lon="7.11498">
        <ele>1004.23</ele>
        <time>2011-04-20T12:08:29Z</time>
      </trkpt>
      <trkpt lat="43.83709" lon="7.11498">
        <ele>1005.68</ele>
        <time>2011-04-20T12:09:06Z</time>
      </trkpt>
      <trkpt lat="43.83709" lon="7.11498">
        <ele>1004.23</ele>
        <time>2011-04-20T12:09:39Z</time>
      </trkpt>
      <trkpt lat="43.83709" lon="7.11498">
        <ele>1004.23</ele>
        <time>2011-04-20T12:10:13Z</time>
      </trkpt>
      <trkpt lat="43.83709" lon="7.11498">
        <ele>1004.23</ele>
        <time>2011-04-20T12:10:50Z</time>
      </trkpt>
      <trkpt lat="43.83709" lon="7.11498">
        <ele>1004.72</ele>
        <time>2011-04-20T12:11:22Z</time>
      </trkpt>
      <trkpt lat="43.83709" lon="7.11498">
        <ele>1005.2</ele>
        <time>2011-04-20T12:11:53Z</time>
      </trkpt>
      <trkpt lat="43.8371" lon="7.11498">
        <ele>1005.2</ele>
        <time>2011-04-20T12:12:33Z</time>
      </trkpt>
      <trkpt lat="43.8371" lon="7.11498">
        <ele>1005.2</ele>
        <time>2011-04-20T12:13:11Z</time>
      </trkpt>
      <trkpt lat="43.83709" lon="7.11498">
        <ele>1005.2</ele>
        <time>2011-04-20T12:13:52Z</time>
      </trkpt>
      <trkpt lat="43.83709" lon="7.11498">
        <ele>1004.72</ele>
        <time>2011-04-20T12:14:28Z</time>
      </trkpt>
      <trkpt lat="43.83709" lon="7.11498">
        <ele>1006.16</ele>
        <time>2011-04-20T12:14:56Z</time>
      </trkpt>
      <trkpt lat="43.83709" lon="7.11498">
        <ele>1005.68</ele>
        <time>2011-04-20T12:15:26Z</time>
      </trkpt>
      <trkpt lat="43.83709" lon="7.11498">
        <ele>1006.64</ele>
        <time>2011-04-20T12:15:52Z</time>
      </trkpt>
      <trkpt lat="43.83707" lon="7.11502">
        <ele>1006.16</ele>
        <time>2011-04-20T12:16:10Z</time>
      </trkpt>
      <trkpt lat="43.83707" lon="7.1151">
        <ele>1006.64</ele>
        <time>2011-04-20T12:16:24Z</time>
      </trkpt>
      <trkpt lat="43.83707" lon="7.11516">
        <ele>1006.64</ele>
        <time>2011-04-20T12:16:41Z</time>
      </trkpt>
      <trkpt lat="43.83707" lon="7.11517">
        <ele>1006.16</ele>
        <time>2011-04-20T12:17:21Z</time>
      </trkpt>
      <trkpt lat="43.83706" lon="7.11519">
        <ele>1006.64</ele>
        <time>2011-04-20T12:17:49Z</time>
      </trkpt>
      <trkpt lat="43.83705" lon="7.11534">
        <ele>1005.68</ele>
        <time>2011-04-20T12:18:02Z</time>
      </trkpt>
      <trkpt lat="43.83702" lon="7.11534">
        <ele>1004.23</ele>
        <time>2011-04-20T12:18:06Z</time>
      </trkpt>
      <trkpt lat="43.83698" lon="7.11528">
        <ele>1003.75</ele>
        <time>2011-04-20T12:18:15Z</time>
      </trkpt>
      <trkpt lat="43.83689" lon="7.11504">
        <ele>1001.83</ele>
        <time>2011-04-20T12:18:34Z</time>
      </trkpt>
      <trkpt lat="43.83681" lon="7.11493">
        <ele>998.95</ele>
        <time>2011-04-20T12:18:47Z</time>
      </trkpt>
      <trkpt lat="43.8367" lon="7.11484">
        <ele>997.51</ele>
        <time>2011-04-20T12:19:04Z</time>
      </trkpt>
      <trkpt lat="43.83664" lon="7.11482">
        <ele>995.58</ele>
        <time>2011-04-20T12:19:17Z</time>
      </trkpt>
      <trkpt lat="43.83664" lon="7.11498">
        <ele>992.7</ele>
        <time>2011-04-20T12:19:32Z</time>
      </trkpt>
      <trkpt lat="43.8366" lon="7.11493">
        <ele>991.26</ele>
        <time>2011-04-20T12:19:43Z</time>
      </trkpt>
      <trkpt lat="43.83652" lon="7.11491">
        <ele>989.81</ele>
        <time>2011-04-20T12:19:52Z</time>
      </trkpt>
      <trkpt lat="43.83646" lon="7.11492">
        <ele>986.45</ele>
        <time>2011-04-20T12:20:05Z</time>
      </trkpt>
      <trkpt lat="43.83642" lon="7.11491">
        <ele>983.57</ele>
        <time>2011-04-20T12:20:10Z</time>
      </trkpt>
      <trkpt lat="43.83636" lon="7.11492">
        <ele>980.68</ele>
        <time>2011-04-20T12:20:17Z</time>
      </trkpt>
      <trkpt lat="43.83637" lon="7.11493">
        <ele>981.64</ele>
        <time>2011-04-20T12:20:18Z</time>
      </trkpt>
      <trkpt lat="43.8364" lon="7.11502">
        <ele>980.68</ele>
        <time>2011-04-20T12:20:24Z</time>
      </trkpt>
      <trkpt lat="43.83637" lon="7.11503">
        <ele>979.24</ele>
        <time>2011-04-20T12:20:35Z</time>
      </trkpt>
      <trkpt lat="43.83625" lon="7.11497">
        <ele>975.88</ele>
        <time>2011-04-20T12:20:48Z</time>
      </trkpt>
      <trkpt lat="43.83617" lon="7.11497">
        <ele>972.51</ele>
        <time>2011-04-20T12:20:58Z</time>
      </trkpt>
      <trkpt lat="43.83611" lon="7.11497">
        <ele>971.55</ele>
        <time>2011-04-20T12:21:11Z</time>
      </trkpt>
      <trkpt lat="43.83604" lon="7.11496">
        <ele>969.15</ele>
        <time>2011-04-20T12:21:18Z</time>
      </trkpt>
      <trkpt lat="43.83588" lon="7.11497">
        <ele>966.26</ele>
        <time>2011-04-20T12:21:34Z</time>
      </trkpt>
      <trkpt lat="43.83584" lon="7.11499">
        <ele>963.38</ele>
        <time>2011-04-20T12:21:45Z</time>
      </trkpt>
      <trkpt lat="43.83582" lon="7.11499">
        <ele>963.38</ele>
        <time>2011-04-20T12:21:48Z</time>
      </trkpt>
      <trkpt lat="43.83565" lon="7.11489">
        <ele>961.46</ele>
        <time>2011-04-20T12:22:05Z</time>
      </trkpt>
      <trkpt lat="43.83563" lon="7.11488">
        <ele>960.01</ele>
        <time>2011-04-20T12:22:07Z</time>
      </trkpt>
      <trkpt lat="43.83555" lon="7.11483">
        <ele>957.61</ele>
        <time>2011-04-20T12:22:19Z</time>
      </trkpt>
      <trkpt lat="43.83548" lon="7.1148">
        <ele>956.17</ele>
        <time>2011-04-20T12:22:26Z</time>
      </trkpt>
      <trkpt lat="43.83536" lon="7.11474">
        <ele>953.77</ele>
        <time>2011-04-20T12:22:39Z</time>
      </trkpt>
      <trkpt lat="43.8353" lon="7.11473">
        <ele>953.28</ele>
        <time>2011-04-20T12:22:44Z</time>
      </trkpt>
      <trkpt lat="43.83519" lon="7.11471">
        <ele>950.88</ele>
        <time>2011-04-20T12:22:54Z</time>
      </trkpt>
      <trkpt lat="43.83511" lon="7.11466">
        <ele>948</ele>
        <time>2011-04-20T12:23:04Z</time>
      </trkpt>
      <trkpt lat="43.83492" lon="7.11453">
        <ele>947.04</ele>
        <time>2011-04-20T12:23:20Z</time>
      </trkpt>
      <trkpt lat="43.83483" lon="7.11447">
        <ele>945.11</ele>
        <time>2011-04-20T12:23:31Z</time>
      </trkpt>
      <trkpt lat="43.83467" lon="7.11436">
        <ele>944.15</ele>
        <time>2011-04-20T12:23:45Z</time>
      </trkpt>
      <trkpt lat="43.83462" lon="7.11433">
        <ele>943.67</ele>
        <time>2011-04-20T12:23:49Z</time>
      </trkpt>
      <trkpt lat="43.83453" lon="7.11428">
        <ele>943.19</ele>
        <time>2011-04-20T12:23:59Z</time>
      </trkpt>
      <trkpt lat="43.8345" lon="7.11425">
        <ele>943.19</ele>
        <time>2011-04-20T12:24:02Z</time>
      </trkpt>
      <trkpt lat="43.8343" lon="7.11414">
        <ele>942.23</ele>
        <time>2011-04-20T12:24:17Z</time>
      </trkpt>
      <trkpt lat="43.83415" lon="7.11409">
        <ele>940.79</ele>
        <time>2011-04-20T12:24:31Z</time>
      </trkpt>
      <trkpt lat="43.83399" lon="7.11399">
        <ele>940.31</ele>
        <time>2011-04-20T12:24:44Z</time>
      </trkpt>
      <trkpt lat="43.83388" lon="7.11392">
        <ele>937.42</ele>
        <time>2011-04-20T12:24:54Z</time>
      </trkpt>
      <trkpt lat="43.83371" lon="7.11382">
        <ele>935.98</ele>
        <time>2011-04-20T12:25:10Z</time>
      </trkpt>
      <trkpt lat="43.83356" lon="7.11375">
        <ele>933.1</ele>
        <time>2011-04-20T12:25:23Z</time>
      </trkpt>
      <trkpt lat="43.83353" lon="7.11375">
        <ele>933.1</ele>
        <time>2011-04-20T12:25:27Z</time>
      </trkpt>
      <trkpt lat="43.83344" lon="7.11371">
        <ele>932.14</ele>
        <time>2011-04-20T12:25:36Z</time>
      </trkpt>
      <trkpt lat="43.8333" lon="7.11366">
        <ele>929.25</ele>
        <time>2011-04-20T12:25:46Z</time>
      </trkpt>
      <trkpt lat="43.83325" lon="7.11362">
        <ele>929.25</ele>
        <time>2011-04-20T12:25:51Z</time>
      </trkpt>
      <trkpt lat="43.83321" lon="7.11362">
        <ele>929.25</ele>
        <time>2011-04-20T12:25:54Z</time>
      </trkpt>
      <trkpt lat="43.8332" lon="7.11367">
        <ele>930.21</ele>
        <time>2011-04-20T12:25:58Z</time>
      </trkpt>
      <trkpt lat="43.83321" lon="7.11393">
        <ele>930.21</ele>
        <time>2011-04-20T12:26:14Z</time>
      </trkpt>
      <trkpt lat="43.83321" lon="7.11396">
        <ele>930.21</ele>
        <time>2011-04-20T12:26:16Z</time>
      </trkpt>
      <trkpt lat="43.83318" lon="7.11404">
        <ele>931.65</ele>
        <time>2011-04-20T12:26:22Z</time>
      </trkpt>
      <trkpt lat="43.83315" lon="7.11419">
        <ele>933.58</ele>
        <time>2011-04-20T12:26:33Z</time>
      </trkpt>
      <trkpt lat="43.83312" lon="7.1144">
        <ele>935.02</ele>
        <time>2011-04-20T12:26:49Z</time>
      </trkpt>
      <trkpt lat="43.83309" lon="7.11461">
        <ele>935.5</ele>
        <time>2011-04-20T12:27:05Z</time>
      </trkpt>
      <trkpt lat="43.83309" lon="7.11461">
        <ele>935.98</ele>
        <time>2011-04-20T12:27:25Z</time>
      </trkpt>
      <trkpt lat="43.83309" lon="7.11462">
        <ele>935.5</ele>
        <time>2011-04-20T12:27:49Z</time>
      </trkpt>
      <trkpt lat="43.8331" lon="7.11462">
        <ele>935.98</ele>
        <time>2011-04-20T12:28:16Z</time>
      </trkpt>
      <trkpt lat="43.8331" lon="7.11462">
        <ele>936.46</ele>
        <time>2011-04-20T12:28:35Z</time>
      </trkpt>
      <trkpt lat="43.8331" lon="7.11464">
        <ele>936.94</ele>
        <time>2011-04-20T12:28:43Z</time>
      </trkpt>
      <trkpt lat="43.83312" lon="7.11467">
        <ele>935.98</ele>
        <time>2011-04-20T12:28:45Z</time>
      </trkpt>
      <trkpt lat="43.83312" lon="7.11496">
        <ele>934.54</ele>
        <time>2011-04-20T12:29:02Z</time>
      </trkpt>
      <trkpt lat="43.83312" lon="7.11522">
        <ele>934.54</ele>
        <time>2011-04-20T12:29:17Z</time>
      </trkpt>
      <trkpt lat="43.83312" lon="7.11524">
        <ele>935.5</ele>
        <time>2011-04-20T12:29:18Z</time>
      </trkpt>
      <trkpt lat="43.83311" lon="7.11531">
        <ele>935.02</ele>
        <time>2011-04-20T12:29:23Z</time>
      </trkpt>
      <trkpt lat="43.83306" lon="7.11537">
        <ele>934.54</ele>
        <time>2011-04-20T12:29:32Z</time>
      </trkpt>
      <trkpt lat="43.83295" lon="7.11554">
        <ele>932.62</ele>
        <time>2011-04-20T12:29:48Z</time>
      </trkpt>
      <trkpt lat="43.83298" lon="7.11567">
        <ele>932.62</ele>
        <time>2011-04-20T12:29:54Z</time>
      </trkpt>
      <trkpt lat="43.83288" lon="7.11582">
        <ele>931.17</ele>
        <time>2011-04-20T12:30:10Z</time>
      </trkpt>
      <trkpt lat="43.83281" lon="7.11587">
        <ele>929.73</ele>
        <time>2011-04-20T12:30:17Z</time>
      </trkpt>
      <trkpt lat="43.83277" lon="7.11587">
        <ele>928.77</ele>
        <time>2011-04-20T12:30:22Z</time>
      </trkpt>
      <trkpt lat="43.83262" lon="7.11588">
        <ele>926.37</ele>
        <time>2011-04-20T12:30:35Z</time>
      </trkpt>
      <trkpt lat="43.83258" lon="7.11587">
        <ele>925.41</ele>
        <time>2011-04-20T12:30:38Z</time>
      </trkpt>
      <trkpt lat="43.83246" lon="7.11582">
        <ele>923</ele>
        <time>2011-04-20T12:30:51Z</time>
      </trkpt>
      <trkpt lat="43.83232" lon="7.11581">
        <ele>920.12</ele>
        <time>2011-04-20T12:31:06Z</time>
      </trkpt>
      <trkpt lat="43.83227" lon="7.11584">
        <ele>917.72</ele>
        <time>2011-04-20T12:31:18Z</time>
      </trkpt>
      <trkpt lat="43.83229" lon="7.11588">
        <ele>917.72</ele>
        <time>2011-04-20T12:31:22Z</time>
      </trkpt>
      <trkpt lat="43.83238" lon="7.11603">
        <ele>915.31</ele>
        <time>2011-04-20T12:31:38Z</time>
      </trkpt>
      <trkpt lat="43.83236" lon="7.11604">
        <ele>914.35</ele>
        <time>2011-04-20T12:31:42Z</time>
      </trkpt>
      <trkpt lat="43.83223" lon="7.11595">
        <ele>911.47</ele>
        <time>2011-04-20T12:31:57Z</time>
      </trkpt>
      <trkpt lat="43.83213" lon="7.11588">
        <ele>910.03</ele>
        <time>2011-04-20T12:32:08Z</time>
      </trkpt>
      <trkpt lat="43.8321" lon="7.11585">
        <ele>909.06</ele>
        <time>2011-04-20T12:32:12Z</time>
      </trkpt>
      <trkpt lat="43.83205" lon="7.11585">
        <ele>908.1</ele>
        <time>2011-04-20T12:32:18Z</time>
      </trkpt>
      <trkpt lat="43.83203" lon="7.11593">
        <ele>906.66</ele>
        <time>2011-04-20T12:32:26Z</time>
      </trkpt>
      <trkpt lat="43.83205" lon="7.116">
        <ele>905.22</ele>
        <time>2011-04-20T12:32:30Z</time>
      </trkpt>
      <trkpt lat="43.83213" lon="7.11613">
        <ele>903.78</ele>
        <time>2011-04-20T12:32:41Z</time>
      </trkpt>
      <trkpt lat="43.8321" lon="7.11615">
        <ele>900.89</ele>
        <time>2011-04-20T12:32:49Z</time>
      </trkpt>
      <trkpt lat="43.83203" lon="7.11616">
        <ele>900.89</ele>
        <time>2011-04-20T12:32:56Z</time>
      </trkpt>
      <trkpt lat="43.83196" lon="7.11619">
        <ele>898.49</ele>
        <time>2011-04-20T12:33:04Z</time>
      </trkpt>
      <trkpt lat="43.83194" lon="7.11619">
        <ele>898.01</ele>
        <time>2011-04-20T12:33:06Z</time>
      </trkpt>
      <trkpt lat="43.83188" lon="7.11623">
        <ele>896.09</ele>
        <time>2011-04-20T12:33:12Z</time>
      </trkpt>
      <trkpt lat="43.83175" lon="7.11623">
        <ele>893.2</ele>
        <time>2011-04-20T12:33:25Z</time>
      </trkpt>
      <trkpt lat="43.83162" lon="7.11629">
        <ele>890.8</ele>
        <time>2011-04-20T12:33:38Z</time>
      </trkpt>
      <trkpt lat="43.83153" lon="7.11635">
        <ele>887.43</ele>
        <time>2011-04-20T12:33:48Z</time>
      </trkpt>
      <trkpt lat="43.83141" lon="7.11642">
        <ele>884.07</ele>
        <time>2011-04-20T12:34:00Z</time>
      </trkpt>
      <trkpt lat="43.83133" lon="7.1165">
        <ele>880.71</ele>
        <time>2011-04-20T12:34:12Z</time>
      </trkpt>
      <trkpt lat="43.83123" lon="7.11658">
        <ele>876.86</ele>
        <time>2011-04-20T12:34:25Z</time>
      </trkpt>
      <trkpt lat="43.8311" lon="7.11667">
        <ele>873.5</ele>
        <time>2011-04-20T12:34:39Z</time>
      </trkpt>
      <trkpt lat="43.83103" lon="7.11672">
        <ele>872.53</ele>
        <time>2011-04-20T12:34:45Z</time>
      </trkpt>
      <trkpt lat="43.8309" lon="7.11679">
        <ele>869.17</ele>
        <time>2011-04-20T12:34:58Z</time>
      </trkpt>
      <trkpt lat="43.83073" lon="7.11688">
        <ele>866.29</ele>
        <time>2011-04-20T12:35:14Z</time>
      </trkpt>
      <trkpt lat="43.83066" lon="7.1169">
        <ele>864.84</ele>
        <time>2011-04-20T12:35:22Z</time>
      </trkpt>
      <trkpt lat="43.83051" lon="7.11689">
        <ele>862.44</ele>
        <time>2011-04-20T12:35:36Z</time>
      </trkpt>
      <trkpt lat="43.83048" lon="7.1169">
        <ele>861.96</ele>
        <time>2011-04-20T12:35:40Z</time>
      </trkpt>
      <trkpt lat="43.83035" lon="7.11697">
        <ele>858.59</ele>
        <time>2011-04-20T12:35:53Z</time>
      </trkpt>
      <trkpt lat="43.83033" lon="7.11697">
        <ele>858.59</ele>
        <time>2011-04-20T12:35:55Z</time>
      </trkpt>
      <trkpt lat="43.8302" lon="7.11703">
        <ele>856.19</ele>
        <time>2011-04-20T12:36:10Z</time>
      </trkpt>
      <trkpt lat="43.83019" lon="7.11703">
        <ele>855.71</ele>
        <time>2011-04-20T12:36:11Z</time>
      </trkpt>
      <trkpt lat="43.83012" lon="7.11703">
        <ele>854.75</ele>
        <time>2011-04-20T12:36:16Z</time>
      </trkpt>
      <trkpt lat="43.83006" lon="7.11702">
        <ele>852.83</ele>
        <time>2011-04-20T12:36:23Z</time>
      </trkpt>
      <trkpt lat="43.82991" lon="7.11698">
        <ele>849.46</ele>
        <time>2011-04-20T12:36:35Z</time>
      </trkpt>
      <trkpt lat="43.82977" lon="7.11693">
        <ele>846.58</ele>
        <time>2011-04-20T12:36:49Z</time>
      </trkpt>
      <trkpt lat="43.82972" lon="7.11691">
        <ele>846.1</ele>
        <time>2011-04-20T12:36:55Z</time>
      </trkpt>
      <trkpt lat="43.82968" lon="7.11689">
        <ele>845.14</ele>
        <time>2011-04-20T12:36:59Z</time>
      </trkpt>
      <trkpt lat="43.82949" lon="7.11681">
        <ele>842.73</ele>
        <time>2011-04-20T12:37:16Z</time>
      </trkpt>
      <trkpt lat="43.82935" lon="7.11677">
        <ele>840.33</ele>
        <time>2011-04-20T12:37:30Z</time>
      </trkpt>
      <trkpt lat="43.82927" lon="7.1168">
        <ele>838.89</ele>
        <time>2011-04-20T12:37:40Z</time>
      </trkpt>
      <trkpt lat="43.82925" lon="7.1168">
        <ele>838.41</ele>
        <time>2011-04-20T12:37:42Z</time>
      </trkpt>
      <trkpt lat="43.82916" lon="7.11679">
        <ele>836.96</ele>
        <time>2011-04-20T12:37:48Z</time>
      </trkpt>
      <trkpt lat="43.82902" lon="7.1168">
        <ele>834.08</ele>
        <time>2011-04-20T12:37:59Z</time>
      </trkpt>
      <trkpt lat="43.8289" lon="7.11681">
        <ele>831.2</ele>
        <time>2011-04-20T12:38:11Z</time>
      </trkpt>
      <trkpt lat="43.82878" lon="7.11684">
        <ele>827.35</ele>
        <time>2011-04-20T12:38:23Z</time>
      </trkpt>
      <trkpt lat="43.82862" lon="7.11682">
        <ele>824.47</ele>
        <time>2011-04-20T12:38:38Z</time>
      </trkpt>
      <trkpt lat="43.82854" lon="7.11679">
        <ele>824.47</ele>
        <time>2011-04-20T12:38:55Z</time>
      </trkpt>
      <trkpt lat="43.82854" lon="7.11679">
        <ele>824.47</ele>
        <time>2011-04-20T12:39:12Z</time>
      </trkpt>
      <trkpt lat="43.82853" lon="7.11677">
        <ele>824.47</ele>
        <time>2011-04-20T12:39:37Z</time>
      </trkpt>
      <trkpt lat="43.82853" lon="7.11677">
        <ele>824.47</ele>
        <time>2011-04-20T12:40:02Z</time>
      </trkpt>
      <trkpt lat="43.8285" lon="7.11681">
        <ele>821.58</ele>
        <time>2011-04-20T12:40:19Z</time>
      </trkpt>
      <trkpt lat="43.82845" lon="7.11683">
        <ele>819.66</ele>
        <time>2011-04-20T12:40:24Z</time>
      </trkpt>
      <trkpt lat="43.82832" lon="7.11682">
        <ele>816.78</ele>
        <time>2011-04-20T12:40:38Z</time>
      </trkpt>
      <trkpt lat="43.82831" lon="7.11682">
        <ele>816.78</ele>
        <time>2011-04-20T12:40:39Z</time>
      </trkpt>
      <trkpt lat="43.82832" lon="7.11697">
        <ele>812.93</ele>
        <time>2011-04-20T12:40:54Z</time>
      </trkpt>
      <trkpt lat="43.82839" lon="7.11713">
        <ele>811.01</ele>
        <time>2011-04-20T12:41:10Z</time>
      </trkpt>
      <trkpt lat="43.82839" lon="7.11714">
        <ele>810.05</ele>
        <time>2011-04-20T12:41:13Z</time>
      </trkpt>
      <trkpt lat="43.82836" lon="7.11716">
        <ele>809.09</ele>
        <time>2011-04-20T12:41:19Z</time>
      </trkpt>
      <trkpt lat="43.82834" lon="7.11725">
        <ele>806.2</ele>
        <time>2011-04-20T12:41:34Z</time>
      </trkpt>
      <trkpt lat="43.82834" lon="7.11731">
        <ele>803.32</ele>
        <time>2011-04-20T12:41:48Z</time>
      </trkpt>
      <trkpt lat="43.82831" lon="7.1173">
        <ele>803.32</ele>
        <time>2011-04-20T12:41:51Z</time>
      </trkpt>
      <trkpt lat="43.82831" lon="7.11735">
        <ele>801.88</ele>
        <time>2011-04-20T12:41:58Z</time>
      </trkpt>
      <trkpt lat="43.82834" lon="7.11738">
        <ele>801.4</ele>
        <time>2011-04-20T12:42:02Z</time>
      </trkpt>
      <trkpt lat="43.82836" lon="7.11754">
        <ele>798.51</ele>
        <time>2011-04-20T12:42:15Z</time>
      </trkpt>
      <trkpt lat="43.82845" lon="7.11771">
        <ele>796.11</ele>
        <time>2011-04-20T12:42:32Z</time>
      </trkpt>
      <trkpt lat="43.82844" lon="7.11772">
        <ele>793.22</ele>
        <time>2011-04-20T12:42:43Z</time>
      </trkpt>
      <trkpt lat="43.82837" lon="7.11776">
        <ele>790.34</ele>
        <time>2011-04-20T12:42:55Z</time>
      </trkpt>
      <trkpt lat="43.82838" lon="7.1178">
        <ele>790.34</ele>
        <time>2011-04-20T12:42:59Z</time>
      </trkpt>
      <trkpt lat="43.82834" lon="7.11784">
        <ele>786.98</ele>
        <time>2011-04-20T12:43:11Z</time>
      </trkpt>
      <trkpt lat="43.82824" lon="7.11782">
        <ele>783.13</ele>
        <time>2011-04-20T12:43:25Z</time>
      </trkpt>
      <trkpt lat="43.82813" lon="7.11785">
        <ele>780.25</ele>
        <time>2011-04-20T12:43:39Z</time>
      </trkpt>
      <trkpt lat="43.82806" lon="7.11782">
        <ele>779.29</ele>
        <time>2011-04-20T12:43:47Z</time>
      </trkpt>
      <trkpt lat="43.82792" lon="7.11785">
        <ele>774.96</ele>
        <time>2011-04-20T12:44:01Z</time>
      </trkpt>
      <trkpt lat="43.8279" lon="7.11794">
        <ele>773.52</ele>
        <time>2011-04-20T12:44:14Z</time>
      </trkpt>
      <trkpt lat="43.82788" lon="7.11807">
        <ele>770.15</ele>
        <time>2011-04-20T12:44:26Z</time>
      </trkpt>
      <trkpt lat="43.82785" lon="7.11819">
        <ele>766.79</ele>
        <time>2011-04-20T12:44:35Z</time>
      </trkpt>
      <trkpt lat="43.82794" lon="7.11839">
        <ele>764.39</ele>
        <time>2011-04-20T12:44:46Z</time>
      </trkpt>
      <trkpt lat="43.82793" lon="7.11844">
        <ele>761.98</ele>
        <time>2011-04-20T12:44:59Z</time>
      </trkpt>
      <trkpt lat="43.8279" lon="7.11843">
        <ele>761.02</ele>
        <time>2011-04-20T12:45:02Z</time>
      </trkpt>
      <trkpt lat="43.82788" lon="7.11844">
        <ele>761.02</ele>
        <time>2011-04-20T12:45:11Z</time>
      </trkpt>
      <trkpt lat="43.82787" lon="7.11845">
        <ele>761.02</ele>
        <time>2011-04-20T12:45:35Z</time>
      </trkpt>
      <trkpt lat="43.82787" lon="7.11845">
        <ele>761.02</ele>
        <time>2011-04-20T12:46:03Z</time>
      </trkpt>
      <trkpt lat="43.8279" lon="7.11852">
        <ele>759.58</ele>
        <time>2011-04-20T12:46:18Z</time>
      </trkpt>
      <trkpt lat="43.8279" lon="7.1186">
        <ele>756.69</ele>
        <time>2011-04-20T12:46:27Z</time>
      </trkpt>
      <trkpt lat="43.82787" lon="7.11861">
        <ele>756.69</ele>
        <time>2011-04-20T12:46:30Z</time>
      </trkpt>
      <trkpt lat="43.82784" lon="7.1186">
        <ele>755.73</ele>
        <time>2011-04-20T12:46:32Z</time>
      </trkpt>
      <trkpt lat="43.82773" lon="7.11859">
        <ele>751.89</ele>
        <time>2011-04-20T12:46:42Z</time>
      </trkpt>
      <trkpt lat="43.82772" lon="7.1186">
        <ele>751.41</ele>
        <time>2011-04-20T12:46:43Z</time>
      </trkpt>
      <trkpt lat="43.82769" lon="7.11861">
        <ele>750.93</ele>
        <time>2011-04-20T12:46:46Z</time>
      </trkpt>
      <trkpt lat="43.82758" lon="7.11862">
        <ele>748.52</ele>
        <time>2011-04-20T12:46:54Z</time>
      </trkpt>
      <trkpt lat="43.82756" lon="7.11862">
        <ele>748.52</ele>
        <time>2011-04-20T12:46:55Z</time>
      </trkpt>
      <trkpt lat="43.8275" lon="7.11865">
        <ele>746.12</ele>
        <time>2011-04-20T12:47:01Z</time>
      </trkpt>
      <trkpt lat="43.82746" lon="7.11867">
        <ele>744.68</ele>
        <time>2011-04-20T12:47:06Z</time>
      </trkpt>
      <trkpt lat="43.82737" lon="7.11875">
        <ele>741.31</ele>
        <time>2011-04-20T12:47:18Z</time>
      </trkpt>
      <trkpt lat="43.82736" lon="7.11884">
        <ele>738.43</ele>
        <time>2011-04-20T12:47:26Z</time>
      </trkpt>
      <trkpt lat="43.82735" lon="7.11887">
        <ele>737.47</ele>
        <time>2011-04-20T12:47:30Z</time>
      </trkpt>
      <trkpt lat="43.82734" lon="7.11892">
        <ele>736.99</ele>
        <time>2011-04-20T12:47:34Z</time>
      </trkpt>
      <trkpt lat="43.82725" lon="7.11908">
        <ele>733.62</ele>
        <time>2011-04-20T12:47:50Z</time>
      </trkpt>
      <trkpt lat="43.82723" lon="7.11916">
        <ele>730.74</ele>
        <time>2011-04-20T12:47:59Z</time>
      </trkpt>
      <trkpt lat="43.82721" lon="7.11933">
        <ele>729.3</ele>
        <time>2011-04-20T12:48:13Z</time>
      </trkpt>
      <trkpt lat="43.82727" lon="7.11952">
        <ele>727.86</ele>
        <time>2011-04-20T12:48:24Z</time>
      </trkpt>
      <trkpt lat="43.82739" lon="7.11966">
        <ele>725.93</ele>
        <time>2011-04-20T12:48:41Z</time>
      </trkpt>
      <trkpt lat="43.82741" lon="7.11969">
        <ele>725.93</ele>
        <time>2011-04-20T12:48:54Z</time>
      </trkpt>
      <trkpt lat="43.82731" lon="7.11967">
        <ele>725.93</ele>
        <time>2011-04-20T12:49:07Z</time>
      </trkpt>
      <trkpt lat="43.82723" lon="7.11963">
        <ele>725.45</ele>
        <time>2011-04-20T12:49:16Z</time>
      </trkpt>
      <trkpt lat="43.82718" lon="7.11963">
        <ele>724.97</ele>
        <time>2011-04-20T12:49:20Z</time>
      </trkpt>
      <trkpt lat="43.82714" lon="7.11964">
        <ele>724.49</ele>
        <time>2011-04-20T12:49:24Z</time>
      </trkpt>
      <trkpt lat="43.82698" lon="7.11972">
        <ele>723.05</ele>
        <time>2011-04-20T12:49:39Z</time>
      </trkpt>
      <trkpt lat="43.82693" lon="7.11973">
        <ele>722.09</ele>
        <time>2011-04-20T12:49:43Z</time>
      </trkpt>
      <trkpt lat="43.82674" lon="7.11967">
        <ele>721.13</ele>
        <time>2011-04-20T12:49:56Z</time>
      </trkpt>
      <trkpt lat="43.82663" lon="7.11956">
        <ele>718.72</ele>
        <time>2011-04-20T12:50:05Z</time>
      </trkpt>
      <trkpt lat="43.82652" lon="7.1195">
        <ele>715.36</ele>
        <time>2011-04-20T12:50:18Z</time>
      </trkpt>
      <trkpt lat="43.82645" lon="7.11948">
        <ele>716.32</ele>
        <time>2011-04-20T12:50:24Z</time>
      </trkpt>
      <trkpt lat="43.82625" lon="7.11955">
        <ele>713.92</ele>
        <time>2011-04-20T12:50:41Z</time>
      </trkpt>
      <trkpt lat="43.82621" lon="7.11956">
        <ele>712.47</ele>
        <time>2011-04-20T12:50:46Z</time>
      </trkpt>
      <trkpt lat="43.82619" lon="7.11959">
        <ele>710.55</ele>
        <time>2011-04-20T12:50:49Z</time>
      </trkpt>
      <trkpt lat="43.82609" lon="7.11969">
        <ele>707.67</ele>
        <time>2011-04-20T12:50:58Z</time>
      </trkpt>
      <trkpt lat="43.82603" lon="7.11972">
        <ele>707.19</ele>
        <time>2011-04-20T12:51:01Z</time>
      </trkpt>
      <trkpt lat="43.826" lon="7.11973">
        <ele>707.67</ele>
        <time>2011-04-20T12:51:22Z</time>
      </trkpt>
      <trkpt lat="43.82598" lon="7.11974">
        <ele>707.19</ele>
        <time>2011-04-20T12:51:27Z</time>
      </trkpt>
      <trkpt lat="43.82591" lon="7.11976">
        <ele>705.26</ele>
        <time>2011-04-20T12:51:31Z</time>
      </trkpt>
      <trkpt lat="43.82582" lon="7.11982">
        <ele>702.38</ele>
        <time>2011-04-20T12:51:38Z</time>
      </trkpt>
      <trkpt lat="43.8258" lon="7.11986">
        <ele>700.94</ele>
        <time>2011-04-20T12:51:41Z</time>
      </trkpt>
      <trkpt lat="43.82576" lon="7.11987">
        <ele>699.98</ele>
        <time>2011-04-20T12:51:45Z</time>
      </trkpt>
      <trkpt lat="43.8257" lon="7.11998">
        <ele>697.57</ele>
        <time>2011-04-20T12:51:52Z</time>
      </trkpt>
      <trkpt lat="43.82555" lon="7.12007">
        <ele>695.65</ele>
        <time>2011-04-20T12:52:06Z</time>
      </trkpt>
      <trkpt lat="43.82545" lon="7.12013">
        <ele>694.69</ele>
        <time>2011-04-20T12:52:18Z</time>
      </trkpt>
      <trkpt lat="43.82538" lon="7.12014">
        <ele>694.69</ele>
        <time>2011-04-20T12:52:29Z</time>
      </trkpt>
      <trkpt lat="43.82535" lon="7.12013">
        <ele>694.69</ele>
        <time>2011-04-20T12:52:32Z</time>
      </trkpt>
      <trkpt lat="43.82515" lon="7.12012">
        <ele>692.77</ele>
        <time>2011-04-20T12:52:50Z</time>
      </trkpt>
      <trkpt lat="43.82507" lon="7.12011">
        <ele>692.77</ele>
        <time>2011-04-20T12:52:55Z</time>
      </trkpt>
      <trkpt lat="43.82501" lon="7.12007">
        <ele>692.77</ele>
        <time>2011-04-20T12:53:11Z</time>
      </trkpt>
      <trkpt lat="43.825" lon="7.12006">
        <ele>693.25</ele>
        <time>2011-04-20T12:53:32Z</time>
      </trkpt>
      <trkpt lat="43.825" lon="7.12006">
        <ele>692.77</ele>
        <time>2011-04-20T12:53:52Z</time>
      </trkpt>
      <trkpt lat="43.825" lon="7.12006">
        <ele>693.73</ele>
        <time>2011-04-20T12:54:25Z</time>
      </trkpt>
      <trkpt lat="43.825" lon="7.12006">
        <ele>693.25</ele>
        <time>2011-04-20T12:54:54Z</time>
      </trkpt>
      <trkpt lat="43.825" lon="7.12007">
        <ele>692.77</ele>
        <time>2011-04-20T12:55:18Z</time>
      </trkpt>
      <trkpt lat="43.82497" lon="7.12015">
        <ele>689.88</ele>
        <time>2011-04-20T12:55:25Z</time>
      </trkpt>
      <trkpt lat="43.82494" lon="7.1202">
        <ele>688.92</ele>
        <time>2011-04-20T12:55:30Z</time>
      </trkpt>
      <trkpt lat="43.82491" lon="7.12022">
        <ele>688.44</ele>
        <time>2011-04-20T12:55:32Z</time>
      </trkpt>
      <trkpt lat="43.82485" lon="7.12032">
        <ele>686.52</ele>
        <time>2011-04-20T12:55:40Z</time>
      </trkpt>
      <trkpt lat="43.82472" lon="7.12046">
        <ele>682.67</ele>
        <time>2011-04-20T12:55:52Z</time>
      </trkpt>
      <trkpt lat="43.82464" lon="7.12064">
        <ele>680.75</ele>
        <time>2011-04-20T12:56:05Z</time>
      </trkpt>
      <trkpt lat="43.82466" lon="7.12072">
        <ele>679.31</ele>
        <time>2011-04-20T12:56:09Z</time>
      </trkpt>
      <trkpt lat="43.82467" lon="7.12078">
        <ele>679.31</ele>
        <time>2011-04-20T12:56:13Z</time>
      </trkpt>
      <trkpt lat="43.82467" lon="7.1209">
        <ele>677.87</ele>
        <time>2011-04-20T12:56:28Z</time>
      </trkpt>
      <trkpt lat="43.82466" lon="7.1209">
        <ele>676.91</ele>
        <time>2011-04-20T12:56:43Z</time>
      </trkpt>
      <trkpt lat="43.82464" lon="7.12088">
        <ele>677.39</ele>
        <time>2011-04-20T12:56:47Z</time>
      </trkpt>
      <trkpt lat="43.82444" lon="7.12076">
        <ele>677.87</ele>
        <time>2011-04-20T12:57:05Z</time>
      </trkpt>
      <trkpt lat="43.82423" lon="7.12067">
        <ele>678.35</ele>
        <time>2011-04-20T12:57:22Z</time>
      </trkpt>
      <trkpt lat="43.82407" lon="7.12057">
        <ele>678.83</ele>
        <time>2011-04-20T12:57:37Z</time>
      </trkpt>
      <trkpt lat="43.82394" lon="7.12048">
        <ele>679.79</ele>
        <time>2011-04-20T12:57:52Z</time>
      </trkpt>
      <trkpt lat="43.82375" lon="7.12038">
        <ele>680.27</ele>
        <time>2011-04-20T12:58:08Z</time>
      </trkpt>
      <trkpt lat="43.82355" lon="7.12029">
        <ele>681.71</ele>
        <time>2011-04-20T12:58:24Z</time>
      </trkpt>
      <trkpt lat="43.82352" lon="7.12028">
        <ele>681.71</ele>
        <time>2011-04-20T12:58:26Z</time>
      </trkpt>
      <trkpt lat="43.82331" lon="7.1202">
        <ele>682.67</ele>
        <time>2011-04-20T12:58:42Z</time>
      </trkpt>
      <trkpt lat="43.82315" lon="7.12006">
        <ele>683.15</ele>
        <time>2011-04-20T12:58:56Z</time>
      </trkpt>
      <trkpt lat="43.82298" lon="7.11986">
        <ele>683.63</ele>
        <time>2011-04-20T12:59:12Z</time>
      </trkpt>
      <trkpt lat="43.82291" lon="7.11971">
        <ele>682.67</ele>
        <time>2011-04-20T12:59:21Z</time>
      </trkpt>
      <trkpt lat="43.8228" lon="7.11946">
        <ele>682.19</ele>
        <time>2011-04-20T12:59:38Z</time>
      </trkpt>
      <trkpt lat="43.82279" lon="7.11944">
        <ele>682.19</ele>
        <time>2011-04-20T12:59:40Z</time>
      </trkpt>
      <trkpt lat="43.82268" lon="7.11922">
        <ele>682.67</ele>
        <time>2011-04-20T12:59:56Z</time>
      </trkpt>
      <trkpt lat="43.82257" lon="7.119">
        <ele>682.19</ele>
        <time>2011-04-20T13:00:11Z</time>
      </trkpt>
      <trkpt lat="43.82244" lon="7.11883">
        <ele>682.67</ele>
        <time>2011-04-20T13:00:26Z</time>
      </trkpt>
      <trkpt lat="43.82242" lon="7.1188">
        <ele>682.67</ele>
        <time>2011-04-20T13:00:29Z</time>
      </trkpt>
      <trkpt lat="43.82237" lon="7.11875">
        <ele>683.15</ele>
        <time>2011-04-20T13:00:34Z</time>
      </trkpt>
      <trkpt lat="43.82227" lon="7.11855">
        <ele>686.04</ele>
        <time>2011-04-20T13:00:51Z</time>
      </trkpt>
      <trkpt lat="43.82223" lon="7.11849">
        <ele>687</ele>
        <time>2011-04-20T13:00:57Z</time>
      </trkpt>
      <trkpt lat="43.82209" lon="7.11835">
        <ele>688.44</ele>
        <time>2011-04-20T13:01:12Z</time>
      </trkpt>
      <trkpt lat="43.82204" lon="7.11829">
        <ele>689.4</ele>
        <time>2011-04-20T13:01:18Z</time>
      </trkpt>
      <trkpt lat="43.82203" lon="7.11827">
        <ele>689.4</ele>
        <time>2011-04-20T13:01:20Z</time>
      </trkpt>
      <trkpt lat="43.82199" lon="7.11824">
        <ele>689.4</ele>
        <time>2011-04-20T13:01:34Z</time>
      </trkpt>
      <trkpt lat="43.82196" lon="7.11819">
        <ele>690.36</ele>
        <time>2011-04-20T13:01:49Z</time>
      </trkpt>
      <trkpt lat="43.82191" lon="7.11813">
        <ele>690.36</ele>
        <time>2011-04-20T13:01:55Z</time>
      </trkpt>
      <trkpt lat="43.82185" lon="7.1181">
        <ele>689.88</ele>
        <time>2011-04-20T13:02:11Z</time>
      </trkpt>
      <trkpt lat="43.82185" lon="7.1181">
        <ele>689.4</ele>
        <time>2011-04-20T13:02:41Z</time>
      </trkpt>
      <trkpt lat="43.82186" lon="7.11808">
        <ele>689.88</ele>
        <time>2011-04-20T13:03:20Z</time>
      </trkpt>
      <trkpt lat="43.82185" lon="7.11808">
        <ele>690.36</ele>
        <time>2011-04-20T13:03:30Z</time>
      </trkpt>
      <trkpt lat="43.82194" lon="7.1182">
        <ele>689.4</ele>
        <time>2011-04-20T13:03:47Z</time>
      </trkpt>
      <trkpt lat="43.82196" lon="7.11825">
        <ele>689.88</ele>
        <time>2011-04-20T13:03:52Z</time>
      </trkpt>
      <trkpt lat="43.82197" lon="7.11826">
        <ele>689.4</ele>
        <time>2011-04-20T13:03:54Z</time>
      </trkpt>
      <trkpt lat="43.82204" lon="7.11832">
        <ele>687.96</ele>
        <time>2011-04-20T13:04:02Z</time>
      </trkpt>
      <trkpt lat="43.82207" lon="7.11835">
        <ele>687.48</ele>
        <time>2011-04-20T13:04:05Z</time>
      </trkpt>
      <trkpt lat="43.82225" lon="7.11852">
        <ele>684.6</ele>
        <time>2011-04-20T13:04:20Z</time>
      </trkpt>
      <trkpt lat="43.82232" lon="7.11866">
        <ele>683.63</ele>
        <time>2011-04-20T13:04:34Z</time>
      </trkpt>
      <trkpt lat="43.82233" lon="7.11869">
        <ele>683.15</ele>
        <time>2011-04-20T13:04:50Z</time>
      </trkpt>
      <trkpt lat="43.82234" lon="7.1187">
        <ele>682.67</ele>
        <time>2011-04-20T13:05:15Z</time>
      </trkpt>
      <trkpt lat="43.82232" lon="7.11872">
        <ele>682.67</ele>
        <time>2011-04-20T13:05:28Z</time>
      </trkpt>
      <trkpt lat="43.82227" lon="7.11874">
        <ele>683.15</ele>
        <time>2011-04-20T13:05:33Z</time>
      </trkpt>
      <trkpt lat="43.82209" lon="7.11877">
        <ele>683.63</ele>
        <time>2011-04-20T13:05:48Z</time>
      </trkpt>
      <trkpt lat="43.82204" lon="7.11877">
        <ele>684.12</ele>
        <time>2011-04-20T13:06:06Z</time>
      </trkpt>
      <trkpt lat="43.82195" lon="7.11873">
        <ele>684.12</ele>
        <time>2011-04-20T13:06:13Z</time>
      </trkpt>
      <trkpt lat="43.82183" lon="7.11851">
        <ele>684.12</ele>
        <time>2011-04-20T13:06:29Z</time>
      </trkpt>
      <trkpt lat="43.82175" lon="7.11837">
        <ele>684.6</ele>
        <time>2011-04-20T13:06:39Z</time>
      </trkpt>
      <trkpt lat="43.82167" lon="7.11829">
        <ele>684.6</ele>
        <time>2011-04-20T13:06:48Z</time>
      </trkpt>
      <trkpt lat="43.82152" lon="7.11812">
        <ele>685.08</ele>
        <time>2011-04-20T13:07:04Z</time>
      </trkpt>
      <trkpt lat="43.82141" lon="7.1179">
        <ele>686.04</ele>
        <time>2011-04-20T13:07:21Z</time>
      </trkpt>
      <trkpt lat="43.82138" lon="7.11785">
        <ele>686.52</ele>
        <time>2011-04-20T13:07:25Z</time>
      </trkpt>
      <trkpt lat="43.8213" lon="7.11766">
        <ele>688.44</ele>
        <time>2011-04-20T13:07:41Z</time>
      </trkpt>
      <trkpt lat="43.82121" lon="7.11747">
        <ele>689.4</ele>
        <time>2011-04-20T13:07:56Z</time>
      </trkpt>
      <trkpt lat="43.8212" lon="7.11745">
        <ele>689.88</ele>
        <time>2011-04-20T13:08:10Z</time>
      </trkpt>
      <trkpt lat="43.82119" lon="7.11744">
        <ele>689.4</ele>
        <time>2011-04-20T13:08:24Z</time>
      </trkpt>
      <trkpt lat="43.82114" lon="7.11738">
        <ele>690.84</ele>
        <time>2011-04-20T13:08:29Z</time>
      </trkpt>
      <trkpt lat="43.82106" lon="7.11732">
        <ele>689.88</ele>
        <time>2011-04-20T13:08:39Z</time>
      </trkpt>
      <trkpt lat="43.821" lon="7.1173">
        <ele>688.92</ele>
        <time>2011-04-20T13:08:45Z</time>
      </trkpt>
      <trkpt lat="43.82082" lon="7.11717">
        <ele>689.4</ele>
        <time>2011-04-20T13:09:00Z</time>
      </trkpt>
      <trkpt lat="43.8208" lon="7.11716">
        <ele>689.4</ele>
        <time>2011-04-20T13:09:02Z</time>
      </trkpt>
      <trkpt lat="43.82066" lon="7.11701">
        <ele>692.29</ele>
        <time>2011-04-20T13:09:19Z</time>
      </trkpt>
      <trkpt lat="43.82053" lon="7.11685">
        <ele>693.25</ele>
        <time>2011-04-20T13:09:35Z</time>
      </trkpt>
      <trkpt lat="43.82053" lon="7.11684">
        <ele>692.77</ele>
        <time>2011-04-20T13:09:36Z</time>
      </trkpt>
      <trkpt lat="43.82039" lon="7.11676">
        <ele>694.69</ele>
        <time>2011-04-20T13:09:53Z</time>
      </trkpt>
      <trkpt lat="43.82027" lon="7.11669">
        <ele>697.09</ele>
        <time>2011-04-20T13:10:09Z</time>
      </trkpt>
      <trkpt lat="43.8202" lon="7.11658">
        <ele>699.02</ele>
        <time>2011-04-20T13:10:22Z</time>
      </trkpt>
      <trkpt lat="43.8201" lon="7.11645">
        <ele>700.46</ele>
        <time>2011-04-20T13:10:36Z</time>
      </trkpt>
      <trkpt lat="43.82" lon="7.11629">
        <ele>702.38</ele>
        <time>2011-04-20T13:10:52Z</time>
      </trkpt>
      <trkpt lat="43.81998" lon="7.11621">
        <ele>703.82</ele>
        <time>2011-04-20T13:10:58Z</time>
      </trkpt>
      <trkpt lat="43.81987" lon="7.11604">
        <ele>705.26</ele>
        <time>2011-04-20T13:11:14Z</time>
      </trkpt>
      <trkpt lat="43.81978" lon="7.11587">
        <ele>707.19</ele>
        <time>2011-04-20T13:11:29Z</time>
      </trkpt>
      <trkpt lat="43.81968" lon="7.11579">
        <ele>709.11</ele>
        <time>2011-04-20T13:11:44Z</time>
      </trkpt>
      <trkpt lat="43.81965" lon="7.11577">
        <ele>709.59</ele>
        <time>2011-04-20T13:11:48Z</time>
      </trkpt>
      <trkpt lat="43.81953" lon="7.1157">
        <ele>711.03</ele>
        <time>2011-04-20T13:12:02Z</time>
      </trkpt>
      <trkpt lat="43.81947" lon="7.1156">
        <ele>712.47</ele>
        <time>2011-04-20T13:12:12Z</time>
      </trkpt>
      <trkpt lat="43.81937" lon="7.11546">
        <ele>714.4</ele>
        <time>2011-04-20T13:12:27Z</time>
      </trkpt>
      <trkpt lat="43.81923" lon="7.11535">
        <ele>716.32</ele>
        <time>2011-04-20T13:12:44Z</time>
      </trkpt>
      <trkpt lat="43.81917" lon="7.11527">
        <ele>717.28</ele>
        <time>2011-04-20T13:12:54Z</time>
      </trkpt>
      <trkpt lat="43.81913" lon="7.11509">
        <ele>720.65</ele>
        <time>2011-04-20T13:13:11Z</time>
      </trkpt>
      <trkpt lat="43.81918" lon="7.11491">
        <ele>723.53</ele>
        <time>2011-04-20T13:13:27Z</time>
      </trkpt>
      <trkpt lat="43.81917" lon="7.11484">
        <ele>725.45</ele>
        <time>2011-04-20T13:13:35Z</time>
      </trkpt>
      <trkpt lat="43.81912" lon="7.1147">
        <ele>727.86</ele>
        <time>2011-04-20T13:13:50Z</time>
      </trkpt>
      <trkpt lat="43.81905" lon="7.11456">
        <ele>729.78</ele>
        <time>2011-04-20T13:14:06Z</time>
      </trkpt>
      <trkpt lat="43.81904" lon="7.11448">
        <ele>731.7</ele>
        <time>2011-04-20T13:14:22Z</time>
      </trkpt>
      <trkpt lat="43.81904" lon="7.11436">
        <ele>733.14</ele>
        <time>2011-04-20T13:14:37Z</time>
      </trkpt>
      <trkpt lat="43.81904" lon="7.11424">
        <ele>734.58</ele>
        <time>2011-04-20T13:14:46Z</time>
      </trkpt>
      <trkpt lat="43.81902" lon="7.11406">
        <ele>737.47</ele>
        <time>2011-04-20T13:15:03Z</time>
      </trkpt>
      <trkpt lat="43.81899" lon="7.11397">
        <ele>738.43</ele>
        <time>2011-04-20T13:15:10Z</time>
      </trkpt>
      <trkpt lat="43.81888" lon="7.11385">
        <ele>741.31</ele>
        <time>2011-04-20T13:15:27Z</time>
      </trkpt>
      <trkpt lat="43.81878" lon="7.11369">
        <ele>743.72</ele>
        <time>2011-04-20T13:15:44Z</time>
      </trkpt>
      <trkpt lat="43.81876" lon="7.11358">
        <ele>746.12</ele>
        <time>2011-04-20T13:15:58Z</time>
      </trkpt>
      <trkpt lat="43.81876" lon="7.1135">
        <ele>749</ele>
        <time>2011-04-20T13:16:12Z</time>
      </trkpt>
      <trkpt lat="43.81875" lon="7.11335">
        <ele>751.41</ele>
        <time>2011-04-20T13:16:28Z</time>
      </trkpt>
      <trkpt lat="43.81871" lon="7.11326">
        <ele>752.85</ele>
        <time>2011-04-20T13:16:44Z</time>
      </trkpt>
      <trkpt lat="43.81865" lon="7.11318">
        <ele>755.73</ele>
        <time>2011-04-20T13:16:57Z</time>
      </trkpt>
      <trkpt lat="43.81862" lon="7.11314">
        <ele>756.69</ele>
        <time>2011-04-20T13:17:02Z</time>
      </trkpt>
      <trkpt lat="43.81853" lon="7.11312">
        <ele>758.62</ele>
        <time>2011-04-20T13:17:17Z</time>
      </trkpt>
      <trkpt lat="43.81841" lon="7.11317">
        <ele>760.54</ele>
        <time>2011-04-20T13:17:35Z</time>
      </trkpt>
      <trkpt lat="43.81838" lon="7.11323">
        <ele>761.02</ele>
        <time>2011-04-20T13:17:43Z</time>
      </trkpt>
      <trkpt lat="43.81834" lon="7.11323">
        <ele>761.98</ele>
        <time>2011-04-20T13:17:57Z</time>
      </trkpt>
      <trkpt lat="43.81833" lon="7.11324">
        <ele>761.98</ele>
        <time>2011-04-20T13:18:23Z</time>
      </trkpt>
      <trkpt lat="43.8183" lon="7.11315">
        <ele>763.42</ele>
        <time>2011-04-20T13:18:37Z</time>
      </trkpt>
      <trkpt lat="43.81826" lon="7.11295">
        <ele>765.35</ele>
        <time>2011-04-20T13:18:53Z</time>
      </trkpt>
      <trkpt lat="43.81825" lon="7.11276">
        <ele>769.19</ele>
        <time>2011-04-20T13:19:09Z</time>
      </trkpt>
      <trkpt lat="43.81823" lon="7.1126">
        <ele>770.63</ele>
        <time>2011-04-20T13:19:24Z</time>
      </trkpt>
      <trkpt lat="43.81822" lon="7.11245">
        <ele>773.04</ele>
        <time>2011-04-20T13:19:38Z</time>
      </trkpt>
      <trkpt lat="43.8182" lon="7.1123">
        <ele>776.4</ele>
        <time>2011-04-20T13:19:52Z</time>
      </trkpt>
      <trkpt lat="43.81816" lon="7.11219">
        <ele>777.36</ele>
        <time>2011-04-20T13:20:04Z</time>
      </trkpt>
      <trkpt lat="43.8182" lon="7.11215">
        <ele>778.81</ele>
        <time>2011-04-20T13:20:18Z</time>
      </trkpt>
      <trkpt lat="43.81826" lon="7.11224">
        <ele>779.29</ele>
        <time>2011-04-20T13:20:28Z</time>
      </trkpt>
      <trkpt lat="43.81831" lon="7.11228">
        <ele>779.77</ele>
        <time>2011-04-20T13:20:33Z</time>
      </trkpt>
      <trkpt lat="43.81836" lon="7.1123">
        <ele>781.21</ele>
        <time>2011-04-20T13:20:38Z</time>
      </trkpt>
      <trkpt lat="43.81843" lon="7.11226">
        <ele>781.69</ele>
        <time>2011-04-20T13:20:48Z</time>
      </trkpt>
      <trkpt lat="43.81847" lon="7.11223">
        <ele>782.65</ele>
        <time>2011-04-20T13:20:53Z</time>
      </trkpt>
      <trkpt lat="43.81852" lon="7.11211">
        <ele>784.09</ele>
        <time>2011-04-20T13:21:08Z</time>
      </trkpt>
      <trkpt lat="43.81841" lon="7.11203">
        <ele>785.53</ele>
        <time>2011-04-20T13:21:23Z</time>
      </trkpt>
      <trkpt lat="43.81831" lon="7.11193">
        <ele>786.98</ele>
        <time>2011-04-20T13:21:36Z</time>
      </trkpt>
      <trkpt lat="43.81828" lon="7.11171">
        <ele>787.94</ele>
        <time>2011-04-20T13:21:53Z</time>
      </trkpt>
      <trkpt lat="43.81828" lon="7.11163">
        <ele>788.42</ele>
        <time>2011-04-20T13:21:59Z</time>
      </trkpt>
      <trkpt lat="43.81826" lon="7.11155">
        <ele>788.9</ele>
        <time>2011-04-20T13:22:04Z</time>
      </trkpt>
      <trkpt lat="43.81827" lon="7.11133">
        <ele>791.78</ele>
        <time>2011-04-20T13:22:20Z</time>
      </trkpt>
      <trkpt lat="43.81826" lon="7.11118">
        <ele>794.19</ele>
        <time>2011-04-20T13:22:37Z</time>
      </trkpt>
      <trkpt lat="43.81826" lon="7.11117">
        <ele>793.22</ele>
        <time>2011-04-20T13:22:55Z</time>
      </trkpt>
      <trkpt lat="43.81826" lon="7.11117">
        <ele>792.74</ele>
        <time>2011-04-20T13:23:26Z</time>
      </trkpt>
      <trkpt lat="43.81826" lon="7.11117">
        <ele>793.22</ele>
        <time>2011-04-20T13:23:56Z</time>
      </trkpt>
      <trkpt lat="43.81826" lon="7.11117">
        <ele>793.71</ele>
        <time>2011-04-20T13:23:58Z</time>
      </trkpt>
      <trkpt lat="43.81826" lon="7.11117">
        <ele>793.71</ele>
        <time>2011-04-20T13:24:17Z</time>
      </trkpt>
      <trkpt lat="43.81826" lon="7.11117">
        <ele>794.19</ele>
        <time>2011-04-20T13:24:19Z</time>
      </trkpt>
      <trkpt lat="43.81827" lon="7.11113">
        <ele>794.19</ele>
        <time>2011-04-20T13:24:44Z</time>
      </trkpt>
      <trkpt lat="43.81827" lon="7.11113">
        <ele>794.19</ele>
        <time>2011-04-20T13:25:15Z</time>
      </trkpt>
      <trkpt lat="43.81824" lon="7.11089">
        <ele>796.59</ele>
        <time>2011-04-20T13:25:33Z</time>
      </trkpt>
      <trkpt lat="43.8182" lon="7.1108">
        <ele>796.59</ele>
        <time>2011-04-20T13:25:41Z</time>
      </trkpt>
      <trkpt lat="43.8182" lon="7.11075">
        <ele>797.07</ele>
        <time>2011-04-20T13:25:45Z</time>
      </trkpt>
      <trkpt lat="43.81817" lon="7.11051">
        <ele>797.55</ele>
        <time>2011-04-20T13:26:00Z</time>
      </trkpt>
      <trkpt lat="43.81819" lon="7.11025">
        <ele>796.59</ele>
        <time>2011-04-20T13:26:16Z</time>
      </trkpt>
      <trkpt lat="43.8182" lon="7.11009">
        <ele>797.07</ele>
        <time>2011-04-20T13:26:26Z</time>
      </trkpt>
      <trkpt lat="43.81815" lon="7.10984">
        <ele>800.44</ele>
        <time>2011-04-20T13:26:42Z</time>
      </trkpt>
      <trkpt lat="43.81812" lon="7.10974">
        <ele>800.44</ele>
        <time>2011-04-20T13:26:49Z</time>
      </trkpt>
      <trkpt lat="43.81805" lon="7.10953">
        <ele>802.84</ele>
        <time>2011-04-20T13:27:05Z</time>
      </trkpt>
      <trkpt lat="43.81799" lon="7.10936">
        <ele>805.24</ele>
        <time>2011-04-20T13:27:20Z</time>
      </trkpt>
      <trkpt lat="43.81791" lon="7.10916">
        <ele>807.64</ele>
        <time>2011-04-20T13:27:37Z</time>
      </trkpt>
      <trkpt lat="43.81783" lon="7.10903">
        <ele>809.57</ele>
        <time>2011-04-20T13:27:52Z</time>
      </trkpt>
      <trkpt lat="43.81779" lon="7.10896">
        <ele>811.01</ele>
        <time>2011-04-20T13:28:01Z</time>
      </trkpt>
      <trkpt lat="43.81771" lon="7.10882">
        <ele>811.01</ele>
        <time>2011-04-20T13:28:15Z</time>
      </trkpt>
      <trkpt lat="43.81762" lon="7.10869">
        <ele>813.89</ele>
        <time>2011-04-20T13:28:29Z</time>
      </trkpt>
      <trkpt lat="43.81761" lon="7.10868">
        <ele>813.41</ele>
        <time>2011-04-20T13:28:31Z</time>
      </trkpt>
      <trkpt lat="43.8176" lon="7.10866">
        <ele>813.89</ele>
        <time>2011-04-20T13:28:33Z</time>
      </trkpt>
      <trkpt lat="43.8175" lon="7.10846">
        <ele>812.45</ele>
        <time>2011-04-20T13:28:49Z</time>
      </trkpt>
      <trkpt lat="43.81741" lon="7.10823">
        <ele>811.01</ele>
        <time>2011-04-20T13:29:05Z</time>
      </trkpt>
      <trkpt lat="43.81738" lon="7.10812">
        <ele>810.53</ele>
        <time>2011-04-20T13:29:13Z</time>
      </trkpt>
      <trkpt lat="43.81733" lon="7.10799">
        <ele>808.13</ele>
        <time>2011-04-20T13:29:22Z</time>
      </trkpt>
      <trkpt lat="43.81732" lon="7.10797">
        <ele>809.57</ele>
        <time>2011-04-20T13:29:24Z</time>
      </trkpt>
      <trkpt lat="43.81728" lon="7.10788">
        <ele>808.61</ele>
        <time>2011-04-20T13:29:30Z</time>
      </trkpt>
      <trkpt lat="43.81718" lon="7.10765">
        <ele>807.64</ele>
        <time>2011-04-20T13:29:47Z</time>
      </trkpt>
      <trkpt lat="43.81709" lon="7.10741">
        <ele>806.68</ele>
        <time>2011-04-20T13:30:04Z</time>
      </trkpt>
      <trkpt lat="43.81708" lon="7.10732">
        <ele>806.2</ele>
        <time>2011-04-20T13:30:11Z</time>
      </trkpt>
      <trkpt lat="43.81709" lon="7.10725">
        <ele>805.72</ele>
        <time>2011-04-20T13:30:17Z</time>
      </trkpt>
      <trkpt lat="43.8171" lon="7.10707">
        <ele>804.76</ele>
        <time>2011-04-20T13:30:30Z</time>
      </trkpt>
      <trkpt lat="43.8171" lon="7.10691">
        <ele>805.72</ele>
        <time>2011-04-20T13:30:42Z</time>
      </trkpt>
      <trkpt lat="43.81707" lon="7.10675">
        <ele>805.72</ele>
        <time>2011-04-20T13:30:56Z</time>
      </trkpt>
      <trkpt lat="43.81707" lon="7.10672">
        <ele>805.24</ele>
        <time>2011-04-20T13:31:11Z</time>
      </trkpt>
      <trkpt lat="43.81705" lon="7.10665">
        <ele>805.72</ele>
        <time>2011-04-20T13:31:26Z</time>
      </trkpt>
      <trkpt lat="43.81701" lon="7.10657">
        <ele>805.24</ele>
        <time>2011-04-20T13:31:41Z</time>
      </trkpt>
      <trkpt lat="43.81699" lon="7.10654">
        <ele>806.2</ele>
        <time>2011-04-20T13:31:49Z</time>
      </trkpt>
      <trkpt lat="43.81697" lon="7.10646">
        <ele>804.28</ele>
        <time>2011-04-20T13:32:06Z</time>
      </trkpt>
      <trkpt lat="43.81697" lon="7.10646">
        <ele>804.76</ele>
        <time>2011-04-20T13:32:36Z</time>
      </trkpt>
      <trkpt lat="43.81694" lon="7.10634">
        <ele>803.8</ele>
        <time>2011-04-20T13:32:54Z</time>
      </trkpt>
      <trkpt lat="43.81686" lon="7.10618">
        <ele>800.92</ele>
        <time>2011-04-20T13:33:07Z</time>
      </trkpt>
      <trkpt lat="43.81684" lon="7.10615">
        <ele>800.44</ele>
        <time>2011-04-20T13:33:11Z</time>
      </trkpt>
      <trkpt lat="43.81681" lon="7.10612">
        <ele>799.47</ele>
        <time>2011-04-20T13:33:32Z</time>
      </trkpt>
      <trkpt lat="43.81681" lon="7.10608">
        <ele>798.03</ele>
        <time>2011-04-20T13:33:47Z</time>
      </trkpt>
      <trkpt lat="43.81678" lon="7.10599">
        <ele>797.07</ele>
        <time>2011-04-20T13:34:02Z</time>
      </trkpt>
      <trkpt lat="43.81678" lon="7.10599">
        <ele>797.55</ele>
        <time>2011-04-20T13:34:30Z</time>
      </trkpt>
      <trkpt lat="43.81678" lon="7.106">
        <ele>798.51</ele>
        <time>2011-04-20T13:34:50Z</time>
      </trkpt>
      <trkpt lat="43.81682" lon="7.10609">
        <ele>801.88</ele>
        <time>2011-04-20T13:35:03Z</time>
      </trkpt>
      <trkpt lat="43.81682" lon="7.1061">
        <ele>801.4</ele>
        <time>2011-04-20T13:35:04Z</time>
      </trkpt>
      <trkpt lat="43.81683" lon="7.10614">
        <ele>802.36</ele>
        <time>2011-04-20T13:35:06Z</time>
      </trkpt>
      <trkpt lat="43.81688" lon="7.10626">
        <ele>803.32</ele>
        <time>2011-04-20T13:35:21Z</time>
      </trkpt>
      <trkpt lat="43.81689" lon="7.10627">
        <ele>804.28</ele>
        <time>2011-04-20T13:35:23Z</time>
      </trkpt>
      <trkpt lat="43.81692" lon="7.10636">
        <ele>805.72</ele>
        <time>2011-04-20T13:35:38Z</time>
      </trkpt>
      <trkpt lat="43.81693" lon="7.10638">
        <ele>805.24</ele>
        <time>2011-04-20T13:35:52Z</time>
      </trkpt>
      <trkpt lat="43.81694" lon="7.1065">
        <ele>805.72</ele>
        <time>2011-04-20T13:36:00Z</time>
      </trkpt>
      <trkpt lat="43.81706" lon="7.10667">
        <ele>806.68</ele>
        <time>2011-04-20T13:36:17Z</time>
      </trkpt>
      <trkpt lat="43.81718" lon="7.10658">
        <ele>807.64</ele>
        <time>2011-04-20T13:36:32Z</time>
      </trkpt>
      <trkpt lat="43.81718" lon="7.10654">
        <ele>808.13</ele>
        <time>2011-04-20T13:36:35Z</time>
      </trkpt>
      <trkpt lat="43.81719" lon="7.10655">
        <ele>808.61</ele>
        <time>2011-04-20T13:36:50Z</time>
      </trkpt>
      <trkpt lat="43.81717" lon="7.10652">
        <ele>810.53</ele>
        <time>2011-04-20T13:37:00Z</time>
      </trkpt>
      <trkpt lat="43.81717" lon="7.10651">
        <ele>811.01</ele>
        <time>2011-04-20T13:37:03Z</time>
      </trkpt>
      <trkpt lat="43.81714" lon="7.10646">
        <ele>811.01</ele>
        <time>2011-04-20T13:37:08Z</time>
      </trkpt>
      <trkpt lat="43.81709" lon="7.10639">
        <ele>811.97</ele>
        <time>2011-04-20T13:37:18Z</time>
      </trkpt>
      <trkpt lat="43.81705" lon="7.10616">
        <ele>811.49</ele>
        <time>2011-04-20T13:37:32Z</time>
      </trkpt>
      <trkpt lat="43.81705" lon="7.10613">
        <ele>811.97</ele>
        <time>2011-04-20T13:37:34Z</time>
      </trkpt>
      <trkpt lat="43.81699" lon="7.10592">
        <ele>811.97</ele>
        <time>2011-04-20T13:37:49Z</time>
      </trkpt>
      <trkpt lat="43.81694" lon="7.10576">
        <ele>811.49</ele>
        <time>2011-04-20T13:38:02Z</time>
      </trkpt>
      <trkpt lat="43.81693" lon="7.10575">
        <ele>811.49</ele>
        <time>2011-04-20T13:38:03Z</time>
      </trkpt>
      <trkpt lat="43.81691" lon="7.10566">
        <ele>811.49</ele>
        <time>2011-04-20T13:38:09Z</time>
      </trkpt>
      <trkpt lat="43.81686" lon="7.10541">
        <ele>811.97</ele>
        <time>2011-04-20T13:38:25Z</time>
      </trkpt>
      <trkpt lat="43.81685" lon="7.10539">
        <ele>811.97</ele>
        <time>2011-04-20T13:38:46Z</time>
      </trkpt>
      <trkpt lat="43.81683" lon="7.10535">
        <ele>812.45</ele>
        <time>2011-04-20T13:39:03Z</time>
      </trkpt>
      <trkpt lat="43.81683" lon="7.10535">
        <ele>811.97</ele>
        <time>2011-04-20T13:39:19Z</time>
      </trkpt>
      <trkpt lat="43.81683" lon="7.10532">
        <ele>811.49</ele>
        <time>2011-04-20T13:39:47Z</time>
      </trkpt>
      <trkpt lat="43.81683" lon="7.10532">
        <ele>811.49</ele>
        <time>2011-04-20T13:40:10Z</time>
      </trkpt>
      <trkpt lat="43.8168" lon="7.10529">
        <ele>809.09</ele>
        <time>2011-04-20T13:40:24Z</time>
      </trkpt>
      <trkpt lat="43.81675" lon="7.10528">
        <ele>805.72</ele>
        <time>2011-04-20T13:40:50Z</time>
      </trkpt>
      <trkpt lat="43.81671" lon="7.10527">
        <ele>806.2</ele>
        <time>2011-04-20T13:41:05Z</time>
      </trkpt>
      <trkpt lat="43.81667" lon="7.10527">
        <ele>804.76</ele>
        <time>2011-04-20T13:41:20Z</time>
      </trkpt>
      <trkpt lat="43.81666" lon="7.10527">
        <ele>804.76</ele>
        <time>2011-04-20T13:41:21Z</time>
      </trkpt>
      <trkpt lat="43.81662" lon="7.10527">
        <ele>804.76</ele>
        <time>2011-04-20T13:41:35Z</time>
      </trkpt>
      <trkpt lat="43.81657" lon="7.10527">
        <ele>803.32</ele>
        <time>2011-04-20T13:41:51Z</time>
      </trkpt>
      <trkpt lat="43.81651" lon="7.10526">
        <ele>802.84</ele>
        <time>2011-04-20T13:42:05Z</time>
      </trkpt>
      <trkpt lat="43.81647" lon="7.10524">
        <ele>804.28</ele>
        <time>2011-04-20T13:42:21Z</time>
      </trkpt>
      <trkpt lat="43.81641" lon="7.1052">
        <ele>806.2</ele>
        <time>2011-04-20T13:42:36Z</time>
      </trkpt>
      <trkpt lat="43.81636" lon="7.10517">
        <ele>807.16</ele>
        <time>2011-04-20T13:42:52Z</time>
      </trkpt>
      <trkpt lat="43.81635" lon="7.10515">
        <ele>808.61</ele>
        <time>2011-04-20T13:43:08Z</time>
      </trkpt>
      <trkpt lat="43.81634" lon="7.10513">
        <ele>810.53</ele>
        <time>2011-04-20T13:43:22Z</time>
      </trkpt>
      <trkpt lat="43.81626" lon="7.10506">
        <ele>810.05</ele>
        <time>2011-04-20T13:43:35Z</time>
      </trkpt>
      <trkpt lat="43.81621" lon="7.10503">
        <ele>811.49</ele>
        <time>2011-04-20T13:43:51Z</time>
      </trkpt>
      <trkpt lat="43.81617" lon="7.10497">
        <ele>813.89</ele>
        <time>2011-04-20T13:44:00Z</time>
      </trkpt>
      <trkpt lat="43.81615" lon="7.10494">
        <ele>813.89</ele>
        <time>2011-04-20T13:44:14Z</time>
      </trkpt>
      <trkpt lat="43.81613" lon="7.10491">
        <ele>815.34</ele>
        <time>2011-04-20T13:44:17Z</time>
      </trkpt>
      <trkpt lat="43.81608" lon="7.10486">
        <ele>815.34</ele>
        <time>2011-04-20T13:44:30Z</time>
      </trkpt>
      <trkpt lat="43.81601" lon="7.1048">
        <ele>815.82</ele>
        <time>2011-04-20T13:44:43Z</time>
      </trkpt>
      <trkpt lat="43.8159" lon="7.10468">
        <ele>817.74</ele>
        <time>2011-04-20T13:44:59Z</time>
      </trkpt>
      <trkpt lat="43.81584" lon="7.10457">
        <ele>818.7</ele>
        <time>2011-04-20T13:45:12Z</time>
      </trkpt>
      <trkpt lat="43.81576" lon="7.10446">
        <ele>820.14</ele>
        <time>2011-04-20T13:45:27Z</time>
      </trkpt>
      <trkpt lat="43.81572" lon="7.10437">
        <ele>822.06</ele>
        <time>2011-04-20T13:45:37Z</time>
      </trkpt>
      <trkpt lat="43.81565" lon="7.10423">
        <ele>824.47</ele>
        <time>2011-04-20T13:45:53Z</time>
      </trkpt>
      <trkpt lat="43.81558" lon="7.1041">
        <ele>826.39</ele>
        <time>2011-04-20T13:46:10Z</time>
      </trkpt>
      <trkpt lat="43.81556" lon="7.10397">
        <ele>827.83</ele>
        <time>2011-04-20T13:46:25Z</time>
      </trkpt>
      <trkpt lat="43.81556" lon="7.10384">
        <ele>828.31</ele>
        <time>2011-04-20T13:46:43Z</time>
      </trkpt>
      <trkpt lat="43.81553" lon="7.10367">
        <ele>829.27</ele>
        <time>2011-04-20T13:46:52Z</time>
      </trkpt>
      <trkpt lat="43.8154" lon="7.10351">
        <ele>829.27</ele>
        <time>2011-04-20T13:47:07Z</time>
      </trkpt>
      <trkpt lat="43.81535" lon="7.10334">
        <ele>830.72</ele>
        <time>2011-04-20T13:47:23Z</time>
      </trkpt>
      <trkpt lat="43.81527" lon="7.10318">
        <ele>831.68</ele>
        <time>2011-04-20T13:47:36Z</time>
      </trkpt>
      <trkpt lat="43.81513" lon="7.10317">
        <ele>831.2</ele>
        <time>2011-04-20T13:47:52Z</time>
      </trkpt>
      <trkpt lat="43.81502" lon="7.10314">
        <ele>833.12</ele>
        <time>2011-04-20T13:48:03Z</time>
      </trkpt>
      <trkpt lat="43.81494" lon="7.10301">
        <ele>834.56</ele>
        <time>2011-04-20T13:48:19Z</time>
      </trkpt>
      <trkpt lat="43.81488" lon="7.10285">
        <ele>836.96</ele>
        <time>2011-04-20T13:48:34Z</time>
      </trkpt>
      <trkpt lat="43.81485" lon="7.10272">
        <ele>837.93</ele>
        <time>2011-04-20T13:48:48Z</time>
      </trkpt>
      <trkpt lat="43.81484" lon="7.10269">
        <ele>837.93</ele>
        <time>2011-04-20T13:48:51Z</time>
      </trkpt>
      <trkpt lat="43.81477" lon="7.10254">
        <ele>840.33</ele>
        <time>2011-04-20T13:49:06Z</time>
      </trkpt>
      <trkpt lat="43.81472" lon="7.10245">
        <ele>841.29</ele>
        <time>2011-04-20T13:49:16Z</time>
      </trkpt>
      <trkpt lat="43.81463" lon="7.10232">
        <ele>842.25</ele>
        <time>2011-04-20T13:49:31Z</time>
      </trkpt>
      <trkpt lat="43.8145" lon="7.10219">
        <ele>841.77</ele>
        <time>2011-04-20T13:49:45Z</time>
      </trkpt>
      <trkpt lat="43.81438" lon="7.10205">
        <ele>841.29</ele>
        <time>2011-04-20T13:49:59Z</time>
      </trkpt>
      <trkpt lat="43.81426" lon="7.10195">
        <ele>841.29</ele>
        <time>2011-04-20T13:50:13Z</time>
      </trkpt>
      <trkpt lat="43.81414" lon="7.10185">
        <ele>842.25</ele>
        <time>2011-04-20T13:50:26Z</time>
      </trkpt>
      <trkpt lat="43.814" lon="7.1017">
        <ele>841.77</ele>
        <time>2011-04-20T13:50:43Z</time>
      </trkpt>
      <trkpt lat="43.81389" lon="7.10152">
        <ele>840.81</ele>
        <time>2011-04-20T13:50:58Z</time>
      </trkpt>
      <trkpt lat="43.8138" lon="7.10134">
        <ele>841.29</ele>
        <time>2011-04-20T13:51:12Z</time>
      </trkpt>
      <trkpt lat="43.81376" lon="7.10123">
        <ele>841.77</ele>
        <time>2011-04-20T13:51:23Z</time>
      </trkpt>
      <trkpt lat="43.81373" lon="7.10113">
        <ele>841.29</ele>
        <time>2011-04-20T13:51:29Z</time>
      </trkpt>
      <trkpt lat="43.81369" lon="7.10105">
        <ele>840.81</ele>
        <time>2011-04-20T13:51:34Z</time>
      </trkpt>
      <trkpt lat="43.81361" lon="7.10089">
        <ele>841.77</ele>
        <time>2011-04-20T13:51:47Z</time>
      </trkpt>
      <trkpt lat="43.81355" lon="7.10068">
        <ele>843.21</ele>
        <time>2011-04-20T13:52:03Z</time>
      </trkpt>
      <trkpt lat="43.8135" lon="7.10046">
        <ele>843.21</ele>
        <time>2011-04-20T13:52:19Z</time>
      </trkpt>
      <trkpt lat="43.81348" lon="7.10036">
        <ele>843.69</ele>
        <time>2011-04-20T13:52:27Z</time>
      </trkpt>
      <trkpt lat="43.81347" lon="7.10033">
        <ele>842.73</ele>
        <time>2011-04-20T13:52:30Z</time>
      </trkpt>
      <trkpt lat="43.81344" lon="7.10025">
        <ele>842.25</ele>
        <time>2011-04-20T13:52:37Z</time>
      </trkpt>
      <trkpt lat="43.81337" lon="7.10008">
        <ele>840.33</ele>
        <time>2011-04-20T13:52:49Z</time>
      </trkpt>
      <trkpt lat="43.81329" lon="7.09989">
        <ele>839.85</ele>
        <time>2011-04-20T13:53:04Z</time>
      </trkpt>
      <trkpt lat="43.81331" lon="7.09975">
        <ele>839.37</ele>
        <time>2011-04-20T13:53:20Z</time>
      </trkpt>
      <trkpt lat="43.81327" lon="7.09957">
        <ele>837.45</ele>
        <time>2011-04-20T13:53:35Z</time>
      </trkpt>
      <trkpt lat="43.81323" lon="7.0994">
        <ele>836</ele>
        <time>2011-04-20T13:53:50Z</time>
      </trkpt>
      <trkpt lat="43.81323" lon="7.09937">
        <ele>835.52</ele>
        <time>2011-04-20T13:53:53Z</time>
      </trkpt>
      <trkpt lat="43.81326" lon="7.09911">
        <ele>834.56</ele>
        <time>2011-04-20T13:54:09Z</time>
      </trkpt>
      <trkpt lat="43.8133" lon="7.09888">
        <ele>834.56</ele>
        <time>2011-04-20T13:54:24Z</time>
      </trkpt>
      <trkpt lat="43.8133" lon="7.09886">
        <ele>834.56</ele>
        <time>2011-04-20T13:54:25Z</time>
      </trkpt>
      <trkpt lat="43.81331" lon="7.09875">
        <ele>834.08</ele>
        <time>2011-04-20T13:54:31Z</time>
      </trkpt>
      <trkpt lat="43.81329" lon="7.09856">
        <ele>831.68</ele>
        <time>2011-04-20T13:54:45Z</time>
      </trkpt>
      <trkpt lat="43.81323" lon="7.09834">
        <ele>831.2</ele>
        <time>2011-04-20T13:55:01Z</time>
      </trkpt>
      <trkpt lat="43.81319" lon="7.09815">
        <ele>830.72</ele>
        <time>2011-04-20T13:55:15Z</time>
      </trkpt>
      <trkpt lat="43.81314" lon="7.09797">
        <ele>828.79</ele>
        <time>2011-04-20T13:55:29Z</time>
      </trkpt>
      <trkpt lat="43.81308" lon="7.09775">
        <ele>827.35</ele>
        <time>2011-04-20T13:55:43Z</time>
      </trkpt>
      <trkpt lat="43.81307" lon="7.09774">
        <ele>827.35</ele>
        <time>2011-04-20T13:55:44Z</time>
      </trkpt>
      <trkpt lat="43.81298" lon="7.09756">
        <ele>824.95</ele>
        <time>2011-04-20T13:56:00Z</time>
      </trkpt>
      <trkpt lat="43.81297" lon="7.09734">
        <ele>822.06</ele>
        <time>2011-04-20T13:56:14Z</time>
      </trkpt>
      <trkpt lat="43.81301" lon="7.09722">
        <ele>821.1</ele>
        <time>2011-04-20T13:56:23Z</time>
      </trkpt>
      <trkpt lat="43.81302" lon="7.09719">
        <ele>821.1</ele>
        <time>2011-04-20T13:56:25Z</time>
      </trkpt>
      <trkpt lat="43.81303" lon="7.09714">
        <ele>820.62</ele>
        <time>2011-04-20T13:56:28Z</time>
      </trkpt>
      <trkpt lat="43.81297" lon="7.09701">
        <ele>818.7</ele>
        <time>2011-04-20T13:56:39Z</time>
      </trkpt>
      <trkpt lat="43.81295" lon="7.0969">
        <ele>818.22</ele>
        <time>2011-04-20T13:56:46Z</time>
      </trkpt>
      <trkpt lat="43.81295" lon="7.09684">
        <ele>817.74</ele>
        <time>2011-04-20T13:56:51Z</time>
      </trkpt>
      <trkpt lat="43.81294" lon="7.09678">
        <ele>815.34</ele>
        <time>2011-04-20T13:57:01Z</time>
      </trkpt>
      <trkpt lat="43.81287" lon="7.09655">
        <ele>814.85</ele>
        <time>2011-04-20T13:57:17Z</time>
      </trkpt>
      <trkpt lat="43.81285" lon="7.09654">
        <ele>813.41</ele>
        <time>2011-04-20T13:57:20Z</time>
      </trkpt>
      <trkpt lat="43.8128" lon="7.09651">
        <ele>812.93</ele>
        <time>2011-04-20T13:57:24Z</time>
      </trkpt>
      <trkpt lat="43.81278" lon="7.09648">
        <ele>812.45</ele>
        <time>2011-04-20T13:57:26Z</time>
      </trkpt>
      <trkpt lat="43.81277" lon="7.09627">
        <ele>812.45</ele>
        <time>2011-04-20T13:57:40Z</time>
      </trkpt>
      <trkpt lat="43.81274" lon="7.09607">
        <ele>811.01</ele>
        <time>2011-04-20T13:57:55Z</time>
      </trkpt>
      <trkpt lat="43.81272" lon="7.0959">
        <ele>809.09</ele>
        <time>2011-04-20T13:58:08Z</time>
      </trkpt>
      <trkpt lat="43.81271" lon="7.09586">
        <ele>808.61</ele>
        <time>2011-04-20T13:58:12Z</time>
      </trkpt>
      <trkpt lat="43.81267" lon="7.09568">
        <ele>806.2</ele>
        <time>2011-04-20T13:58:26Z</time>
      </trkpt>
      <trkpt lat="43.81266" lon="7.09562">
        <ele>805.72</ele>
        <time>2011-04-20T13:58:32Z</time>
      </trkpt>
      <trkpt lat="43.81265" lon="7.09557">
        <ele>804.76</ele>
        <time>2011-04-20T13:58:36Z</time>
      </trkpt>
      <trkpt lat="43.81265" lon="7.09547">
        <ele>802.84</ele>
        <time>2011-04-20T13:58:46Z</time>
      </trkpt>
      <trkpt lat="43.81258" lon="7.09528">
        <ele>799.47</ele>
        <time>2011-04-20T13:59:01Z</time>
      </trkpt>
      <trkpt lat="43.81254" lon="7.09525">
        <ele>798.51</ele>
        <time>2011-04-20T13:59:06Z</time>
      </trkpt>
      <trkpt lat="43.81252" lon="7.09517">
        <ele>797.55</ele>
        <time>2011-04-20T13:59:11Z</time>
      </trkpt>
      <trkpt lat="43.81251" lon="7.09512">
        <ele>797.07</ele>
        <time>2011-04-20T13:59:15Z</time>
      </trkpt>
      <trkpt lat="43.81249" lon="7.09489">
        <ele>794.67</ele>
        <time>2011-04-20T13:59:32Z</time>
      </trkpt>
      <trkpt lat="43.81243" lon="7.09471">
        <ele>791.78</ele>
        <time>2011-04-20T13:59:45Z</time>
      </trkpt>
      <trkpt lat="43.81236" lon="7.09456">
        <ele>788.42</ele>
        <time>2011-04-20T13:59:59Z</time>
      </trkpt>
      <trkpt lat="43.81231" lon="7.09439">
        <ele>786.5</ele>
        <time>2011-04-20T14:00:15Z</time>
      </trkpt>
      <trkpt lat="43.81231" lon="7.09433">
        <ele>783.13</ele>
        <time>2011-04-20T14:00:27Z</time>
      </trkpt>
      <trkpt lat="43.8123" lon="7.09432">
        <ele>782.65</ele>
        <time>2011-04-20T14:00:46Z</time>
      </trkpt>
      <trkpt lat="43.8123" lon="7.09431">
        <ele>782.65</ele>
        <time>2011-04-20T14:01:12Z</time>
      </trkpt>
      <trkpt lat="43.81227" lon="7.09421">
        <ele>779.77</ele>
        <time>2011-04-20T14:01:25Z</time>
      </trkpt>
      <trkpt lat="43.81223" lon="7.09399">
        <ele>776.88</ele>
        <time>2011-04-20T14:01:41Z</time>
      </trkpt>
      <trkpt lat="43.81219" lon="7.09388">
        <ele>773.52</ele>
        <time>2011-04-20T14:01:56Z</time>
      </trkpt>
      <trkpt lat="43.81219" lon="7.09386">
        <ele>774</ele>
        <time>2011-04-20T14:01:57Z</time>
      </trkpt>
      <trkpt lat="43.81218" lon="7.09378">
        <ele>771.6</ele>
        <time>2011-04-20T14:02:05Z</time>
      </trkpt>
      <trkpt lat="43.81218" lon="7.09376">
        <ele>771.11</ele>
        <time>2011-04-20T14:02:07Z</time>
      </trkpt>
      <trkpt lat="43.81218" lon="7.09371">
        <ele>770.63</ele>
        <time>2011-04-20T14:02:10Z</time>
      </trkpt>
      <trkpt lat="43.81216" lon="7.09363">
        <ele>768.71</ele>
        <time>2011-04-20T14:02:18Z</time>
      </trkpt>
      <trkpt lat="43.81215" lon="7.09347">
        <ele>765.83</ele>
        <time>2011-04-20T14:02:29Z</time>
      </trkpt>
      <trkpt lat="43.81214" lon="7.09331">
        <ele>763.9</ele>
        <time>2011-04-20T14:02:44Z</time>
      </trkpt>
      <trkpt lat="43.81214" lon="7.09328">
        <ele>763.42</ele>
        <time>2011-04-20T14:02:46Z</time>
      </trkpt>
      <trkpt lat="43.81213" lon="7.09324">
        <ele>762.46</ele>
        <time>2011-04-20T14:02:50Z</time>
      </trkpt>
      <trkpt lat="43.81215" lon="7.0931">
        <ele>760.06</ele>
        <time>2011-04-20T14:03:00Z</time>
      </trkpt>
      <trkpt lat="43.81212" lon="7.09295">
        <ele>758.14</ele>
        <time>2011-04-20T14:03:14Z</time>
      </trkpt>
      <trkpt lat="43.81197" lon="7.09278">
        <ele>758.14</ele>
        <time>2011-04-20T14:03:30Z</time>
      </trkpt>
      <trkpt lat="43.81181" lon="7.09284">
        <ele>758.62</ele>
        <time>2011-04-20T14:03:46Z</time>
      </trkpt>
      <trkpt lat="43.8117" lon="7.09296">
        <ele>759.58</ele>
        <time>2011-04-20T14:04:00Z</time>
      </trkpt>
      <trkpt lat="43.81164" lon="7.09305">
        <ele>762.46</ele>
        <time>2011-04-20T14:04:17Z</time>
      </trkpt>
      <trkpt lat="43.81159" lon="7.09311">
        <ele>765.83</ele>
        <time>2011-04-20T14:04:30Z</time>
      </trkpt>
      <trkpt lat="43.81155" lon="7.09304">
        <ele>765.83</ele>
        <time>2011-04-20T14:04:44Z</time>
      </trkpt>
      <trkpt lat="43.81144" lon="7.09302">
        <ele>768.23</ele>
        <time>2011-04-20T14:05:00Z</time>
      </trkpt>
      <trkpt lat="43.81135" lon="7.09299">
        <ele>771.11</ele>
        <time>2011-04-20T14:05:17Z</time>
      </trkpt>
      <trkpt lat="43.81129" lon="7.09296">
        <ele>773.04</ele>
        <time>2011-04-20T14:05:34Z</time>
      </trkpt>
      <trkpt lat="43.81122" lon="7.09297">
        <ele>775.44</ele>
        <time>2011-04-20T14:05:49Z</time>
      </trkpt>
      <trkpt lat="43.81116" lon="7.09295">
        <ele>778.32</ele>
        <time>2011-04-20T14:06:05Z</time>
      </trkpt>
      <trkpt lat="43.81113" lon="7.09299">
        <ele>781.69</ele>
        <time>2011-04-20T14:06:20Z</time>
      </trkpt>
      <trkpt lat="43.81113" lon="7.09299">
        <ele>781.21</ele>
        <time>2011-04-20T14:06:23Z</time>
      </trkpt>
      <trkpt lat="43.81105" lon="7.093">
        <ele>783.61</ele>
        <time>2011-04-20T14:06:41Z</time>
      </trkpt>
      <trkpt lat="43.81102" lon="7.09302">
        <ele>784.09</ele>
        <time>2011-04-20T14:06:51Z</time>
      </trkpt>
      <trkpt lat="43.81097" lon="7.09299">
        <ele>785.53</ele>
        <time>2011-04-20T14:07:09Z</time>
      </trkpt>
      <trkpt lat="43.81094" lon="7.093">
        <ele>787.46</ele>
        <time>2011-04-20T14:07:18Z</time>
      </trkpt>
      <trkpt lat="43.81088" lon="7.09301">
        <ele>789.86</ele>
        <time>2011-04-20T14:07:34Z</time>
      </trkpt>
      <trkpt lat="43.81078" lon="7.09305">
        <ele>792.26</ele>
        <time>2011-04-20T14:07:49Z</time>
      </trkpt>
      <trkpt lat="43.81067" lon="7.09309">
        <ele>794.19</ele>
        <time>2011-04-20T14:08:06Z</time>
      </trkpt>
      <trkpt lat="43.81059" lon="7.09317">
        <ele>795.63</ele>
        <time>2011-04-20T14:08:18Z</time>
      </trkpt>
      <trkpt lat="43.81057" lon="7.09337">
        <ele>795.63</ele>
        <time>2011-04-20T14:08:33Z</time>
      </trkpt>
      <trkpt lat="43.81053" lon="7.09354">
        <ele>796.59</ele>
        <time>2011-04-20T14:08:47Z</time>
      </trkpt>
      <trkpt lat="43.8105" lon="7.09364">
        <ele>799.47</ele>
        <time>2011-04-20T14:08:59Z</time>
      </trkpt>
      <trkpt lat="43.81046" lon="7.09374">
        <ele>801.4</ele>
        <time>2011-04-20T14:09:14Z</time>
      </trkpt>
      <trkpt lat="43.81036" lon="7.09384">
        <ele>802.84</ele>
        <time>2011-04-20T14:09:30Z</time>
      </trkpt>
      <trkpt lat="43.81033" lon="7.09395">
        <ele>804.76</ele>
        <time>2011-04-20T14:09:44Z</time>
      </trkpt>
      <trkpt lat="43.81027" lon="7.0941">
        <ele>806.2</ele>
        <time>2011-04-20T14:09:59Z</time>
      </trkpt>
      <trkpt lat="43.8102" lon="7.09419">
        <ele>807.64</ele>
        <time>2011-04-20T14:10:09Z</time>
      </trkpt>
      <trkpt lat="43.81014" lon="7.09433">
        <ele>808.13</ele>
        <time>2011-04-20T14:10:19Z</time>
      </trkpt>
      <trkpt lat="43.81012" lon="7.09434">
        <ele>807.16</ele>
        <time>2011-04-20T14:10:21Z</time>
      </trkpt>
      <trkpt lat="43.8101" lon="7.09453">
        <ele>809.57</ele>
        <time>2011-04-20T14:10:38Z</time>
      </trkpt>
      <trkpt lat="43.81011" lon="7.09468">
        <ele>809.09</ele>
        <time>2011-04-20T14:10:50Z</time>
      </trkpt>
      <trkpt lat="43.81009" lon="7.09478">
        <ele>810.53</ele>
        <time>2011-04-20T14:10:57Z</time>
      </trkpt>
      <trkpt lat="43.81007" lon="7.09483">
        <ele>810.53</ele>
        <time>2011-04-20T14:11:01Z</time>
      </trkpt>
      <trkpt lat="43.80996" lon="7.09486">
        <ele>811.49</ele>
        <time>2011-04-20T14:11:17Z</time>
      </trkpt>
      <trkpt lat="43.80984" lon="7.09489">
        <ele>813.41</ele>
        <time>2011-04-20T14:11:32Z</time>
      </trkpt>
      <trkpt lat="43.8097" lon="7.09492">
        <ele>814.85</ele>
        <time>2011-04-20T14:11:47Z</time>
      </trkpt>
      <trkpt lat="43.80961" lon="7.09496">
        <ele>816.3</ele>
        <time>2011-04-20T14:12:01Z</time>
      </trkpt>
      <trkpt lat="43.8095" lon="7.0951">
        <ele>817.74</ele>
        <time>2011-04-20T14:12:16Z</time>
      </trkpt>
      <trkpt lat="43.8095" lon="7.09519">
        <ele>819.66</ele>
        <time>2011-04-20T14:12:30Z</time>
      </trkpt>
      <trkpt lat="43.80954" lon="7.09533">
        <ele>820.62</ele>
        <time>2011-04-20T14:12:43Z</time>
      </trkpt>
      <trkpt lat="43.80956" lon="7.09536">
        <ele>820.62</ele>
        <time>2011-04-20T14:12:47Z</time>
      </trkpt>
      <trkpt lat="43.80964" lon="7.09556">
        <ele>821.58</ele>
        <time>2011-04-20T14:13:03Z</time>
      </trkpt>
      <trkpt lat="43.80972" lon="7.09574">
        <ele>823.03</ele>
        <time>2011-04-20T14:13:19Z</time>
      </trkpt>
      <trkpt lat="43.8098" lon="7.09592">
        <ele>825.43</ele>
        <time>2011-04-20T14:13:38Z</time>
      </trkpt>
      <trkpt lat="43.80986" lon="7.09607">
        <ele>827.35</ele>
        <time>2011-04-20T14:13:53Z</time>
      </trkpt>
      <trkpt lat="43.80992" lon="7.09625">
        <ele>828.31</ele>
        <time>2011-04-20T14:14:08Z</time>
      </trkpt>
      <trkpt lat="43.80993" lon="7.09628">
        <ele>828.79</ele>
        <time>2011-04-20T14:14:11Z</time>
      </trkpt>
      <trkpt lat="43.81" lon="7.09644">
        <ele>829.76</ele>
        <time>2011-04-20T14:14:26Z</time>
      </trkpt>
      <trkpt lat="43.81003" lon="7.09659">
        <ele>831.68</ele>
        <time>2011-04-20T14:14:40Z</time>
      </trkpt>
      <trkpt lat="43.81006" lon="7.09674">
        <ele>832.64</ele>
        <time>2011-04-20T14:14:54Z</time>
      </trkpt>
      <trkpt lat="43.81012" lon="7.09689">
        <ele>834.08</ele>
        <time>2011-04-20T14:15:10Z</time>
      </trkpt>
      <trkpt lat="43.81013" lon="7.09696">
        <ele>835.04</ele>
        <time>2011-04-20T14:15:26Z</time>
      </trkpt>
      <trkpt lat="43.81014" lon="7.09696">
        <ele>833.6</ele>
        <time>2011-04-20T14:15:40Z</time>
      </trkpt>
      <trkpt lat="43.81014" lon="7.09696">
        <ele>835.04</ele>
        <time>2011-04-20T14:16:15Z</time>
      </trkpt>
      <trkpt lat="43.81014" lon="7.09696">
        <ele>834.56</ele>
        <time>2011-04-20T14:16:46Z</time>
      </trkpt>
      <trkpt lat="43.81014" lon="7.09696">
        <ele>835.52</ele>
        <time>2011-04-20T14:17:07Z</time>
      </trkpt>
      <trkpt lat="43.81014" lon="7.09696">
        <ele>836</ele>
        <time>2011-04-20T14:17:38Z</time>
      </trkpt>
      <trkpt lat="43.81014" lon="7.09707">
        <ele>836.48</ele>
        <time>2011-04-20T14:17:55Z</time>
      </trkpt>
      <trkpt lat="43.81009" lon="7.09713">
        <ele>838.41</ele>
        <time>2011-04-20T14:18:10Z</time>
      </trkpt>
      <trkpt lat="43.81007" lon="7.09707">
        <ele>838.89</ele>
        <time>2011-04-20T14:18:19Z</time>
      </trkpt>
      <trkpt lat="43.81001" lon="7.09693">
        <ele>840.81</ele>
        <time>2011-04-20T14:18:33Z</time>
      </trkpt>
      <trkpt lat="43.80993" lon="7.09684">
        <ele>841.29</ele>
        <time>2011-04-20T14:18:45Z</time>
      </trkpt>
      <trkpt lat="43.80987" lon="7.09672">
        <ele>842.73</ele>
        <time>2011-04-20T14:18:58Z</time>
      </trkpt>
      <trkpt lat="43.80975" lon="7.09659">
        <ele>846.1</ele>
        <time>2011-04-20T14:19:12Z</time>
      </trkpt>
      <trkpt lat="43.80966" lon="7.09646">
        <ele>847.06</ele>
        <time>2011-04-20T14:19:28Z</time>
      </trkpt>
      <trkpt lat="43.80963" lon="7.09642">
        <ele>848.5</ele>
        <time>2011-04-20T14:19:33Z</time>
      </trkpt>
      <trkpt lat="43.80952" lon="7.0963">
        <ele>849.94</ele>
        <time>2011-04-20T14:19:49Z</time>
      </trkpt>
      <trkpt lat="43.80943" lon="7.09616">
        <ele>851.87</ele>
        <time>2011-04-20T14:20:06Z</time>
      </trkpt>
      <trkpt lat="43.80932" lon="7.09602">
        <ele>854.75</ele>
        <time>2011-04-20T14:20:22Z</time>
      </trkpt>
      <trkpt lat="43.80921" lon="7.0959">
        <ele>857.15</ele>
        <time>2011-04-20T14:20:37Z</time>
      </trkpt>
      <trkpt lat="43.8091" lon="7.09576">
        <ele>857.63</ele>
        <time>2011-04-20T14:20:54Z</time>
      </trkpt>
      <trkpt lat="43.80899" lon="7.09565">
        <ele>859.56</ele>
        <time>2011-04-20T14:21:09Z</time>
      </trkpt>
      <trkpt lat="43.80892" lon="7.09556">
        <ele>861</ele>
        <time>2011-04-20T14:21:23Z</time>
      </trkpt>
      <trkpt lat="43.80887" lon="7.09554">
        <ele>862.44</ele>
        <time>2011-04-20T14:21:38Z</time>
      </trkpt>
      <trkpt lat="43.80887" lon="7.09558">
        <ele>862.92</ele>
        <time>2011-04-20T14:21:44Z</time>
      </trkpt>
      <trkpt lat="43.80888" lon="7.09566">
        <ele>864.84</ele>
        <time>2011-04-20T14:21:54Z</time>
      </trkpt>
      <trkpt lat="43.80893" lon="7.0958">
        <ele>866.77</ele>
        <time>2011-04-20T14:22:09Z</time>
      </trkpt>
      <trkpt lat="43.80895" lon="7.09586">
        <ele>867.25</ele>
        <time>2011-04-20T14:22:15Z</time>
      </trkpt>
      <trkpt lat="43.80896" lon="7.09599">
        <ele>869.65</ele>
        <time>2011-04-20T14:22:29Z</time>
      </trkpt>
      <trkpt lat="43.80899" lon="7.09611">
        <ele>872.05</ele>
        <time>2011-04-20T14:22:44Z</time>
      </trkpt>
      <trkpt lat="43.80902" lon="7.09623">
        <ele>873.5</ele>
        <time>2011-04-20T14:22:59Z</time>
      </trkpt>
      <trkpt lat="43.80903" lon="7.09627">
        <ele>874.46</ele>
        <time>2011-04-20T14:23:08Z</time>
      </trkpt>
      <trkpt lat="43.80903" lon="7.0963">
        <ele>875.42</ele>
        <time>2011-04-20T14:23:11Z</time>
      </trkpt>
      <trkpt lat="43.80904" lon="7.09641">
        <ele>877.82</ele>
        <time>2011-04-20T14:23:24Z</time>
      </trkpt>
      <trkpt lat="43.80902" lon="7.09651">
        <ele>879.74</ele>
        <time>2011-04-20T14:23:39Z</time>
      </trkpt>
      <trkpt lat="43.80898" lon="7.09654">
        <ele>880.22</ele>
        <time>2011-04-20T14:23:46Z</time>
      </trkpt>
      <trkpt lat="43.8089" lon="7.09665">
        <ele>882.15</ele>
        <time>2011-04-20T14:24:02Z</time>
      </trkpt>
      <trkpt lat="43.80891" lon="7.0967">
        <ele>882.15</ele>
        <time>2011-04-20T14:24:17Z</time>
      </trkpt>
      <trkpt lat="43.8089" lon="7.09669">
        <ele>882.15</ele>
        <time>2011-04-20T14:24:30Z</time>
      </trkpt>
      <trkpt lat="43.8089" lon="7.09669">
        <ele>882.15</ele>
        <time>2011-04-20T14:24:59Z</time>
      </trkpt>
      <trkpt lat="43.80891" lon="7.0967">
        <ele>883.11</ele>
        <time>2011-04-20T14:25:21Z</time>
      </trkpt>
      <trkpt lat="43.80891" lon="7.09672">
        <ele>884.07</ele>
        <time>2011-04-20T14:25:35Z</time>
      </trkpt>
      <trkpt lat="43.80891" lon="7.09672">
        <ele>883.59</ele>
        <time>2011-04-20T14:26:01Z</time>
      </trkpt>
      <trkpt lat="43.80891" lon="7.09672">
        <ele>884.55</ele>
        <time>2011-04-20T14:26:22Z</time>
      </trkpt>
      <trkpt lat="43.80891" lon="7.09672">
        <ele>884.07</ele>
        <time>2011-04-20T14:26:46Z</time>
      </trkpt>
      <trkpt lat="43.80891" lon="7.09672">
        <ele>884.07</ele>
        <time>2011-04-20T14:26:56Z</time>
      </trkpt>
    </trkseg>
  </trk>
</gpx>